[[{"header":{"parameterUnit":"m.s-1","parameterCategory":1,"la1":30.6,"la2":29.2853,"lo1":-89.7004,"lo2":-87.6739,"dy":0.0162,"dx":0.0183,"nx":112,"ny":82,"refTime":"2026-03-27T12:00:00:Z","depth":0,"parameterNumber":2,"parameterNumberName":"U-component_of_WINDS"},"data":[0.0,0.0,0.0,0.0,0.0,0.0,0.0,0.0,0.0,0.0,0.0,0.0,0.0,0.0,0.0,0.0,0.0,0.0,0.0,0.0,0.0,0.0,0.0,0.0,0.0,0.0,0.0,0.0,0.0,0.0,0.0,0.0,0.0,0.0,0.0,0.0,0.0,0.0,0.0,0.0,0.0,0.0,0.0,0.0,0.0,0.0,0.0,0.0,0.0,0.0,0.0,0.0,0.0,0.0,0.0,0.0,0.0,0.0,0.0,0.0,0.0,0.0,0.0,0.0,0.0,0.0,0.0,0.0,0.0,0.0,0.0,0.0,0.0,0.0,0.0,0.0,0.0,0.0,0.0,0.0,0.0,0.0,0.0,0.0,0.0,0.0,0.0,0.0,0.0,0.0,0.0,3.4483,3.7972,4.0641,4.2016,4.0202,3.7381,3.3649,0.0,0.0,0.0,0.0,0.0,0.0,0.0,0.0,0.0,0.0,0.0,0.0,0.0,0.0,0.0,0.0,0.0,0.0,0.0,0.0,0.0,0.0,0.0,0.0,0.0,0.0,0.0,0.0,0.0,0.0,0.0,0.0,0.0,0.0,0.0,0.0,0.0,0.0,0.0,0.0,0.0,0.0,0.0,0.0,0.0,0.0,0.0,0.0,0.0,0.0,0.0,0.0,0.0,0.0,0.0,0.0,0.0,0.0,0.0,0.0,0.0,0.0,0.0,0.0,0.0,0.0,0.0,0.0,0.0,0.0,0.0,0.0,0.0,0.0,0.0,0.0,0.0,0.0,0.0,0.0,0.0,0.0,0.0,0.0,0.0,0.0,0.0,0.0,0.0,0.0,0.0,0.0,0.0,0.0,0.0,0.0,0.0,0.0,0.0,0.0,0.0,0.0,0.0,0.0,3.304,3.9371,4.0083,4.0438,4.1305,3.9918,3.7381,3.3649,0.0,0.0,0.0,0.0,0.0,0.0,0.0,0.0,0.0,0.0,0.0,0.0,0.0,0.0,0.0,0.0,0.0,0.0,0.0,0.0,0.0,0.0,0.0,0.0,0.0,0.0,0.0,0.0,0.0,0.0,0.0,0.0,0.0,0.0,0.0,0.0,0.0,0.0,0.0,0.0,0.0,0.0,0.0,0.0,0.0,0.0,0.0,0.0,0.0,0.0,0.0,0.0,0.0,0.0,0.0,0.0,0.0,0.0,0.0,0.0,0.0,0.0,0.0,0.0,0.0,0.0,0.0,0.0,0.0,0.0,0.0,0.0,0.0,0.0,0.0,0.0,0.0,0.0,0.0,0.0,0.0,0.0,0.0,0.0,0.0,0.0,0.0,0.0,0.0,0.0,0.0,0.0,0.0,0.0,0.0,0.0,0.0,0.0,0.0,0.0,0.0,0.0,0.0,2.9997,3.3484,3.9333,4.0033,4.0405,4.1136,3.9851,3.7275,3.3227,3.0918,0.0,0.0,0.0,0.0,0.0,0.0,0.0,0.0,0.0,0.0,0.0,0.0,0.0,0.0,0.0,0.0,0.0,0.0,0.0,0.0,0.0,0.0,0.0,0.0,0.0,0.0,0.0,0.0,0.0,0.0,0.0,0.0,0.0,0.0,0.0,0.0,0.0,0.0,0.0,0.0,0.0,0.0,0.0,0.0,0.0,0.0,0.0,0.0,0.0,0.0,0.0,0.0,0.0,0.0,0.0,0.0,0.0,0.0,0.0,0.0,0.0,0.0,0.0,0.0,0.0,0.0,0.0,0.0,0.0,0.0,0.0,0.0,0.0,0.0,0.0,0.0,0.0,0.0,0.0,0.0,0.0,0.0,0.0,0.0,0.0,0.0,0.0,0.0,0.0,0.0,0.0,0.0,0.0,0.0,0.0,0.0,0.0,0.0,0.0,0.0,0.0,0.0,3.2406,3.4848,3.8762,3.9748,4.0337,4.0899,3.9242,3.6607,3.2851,2.9997,0.0,0.0,0.0,0.0,0.0,0.0,0.0,0.0,0.0,0.0,0.0,0.0,0.0,0.0,0.0,0.0,0.0,0.0,0.0,0.0,0.0,0.0,0.0,0.0,0.0,0.0,0.0,0.0,0.0,0.0,0.0,0.0,0.0,0.0,0.0,0.0,0.0,0.0,0.0,0.0,0.0,0.0,0.0,0.0,0.0,0.0,0.0,0.0,0.0,0.0,0.0,0.0,0.0,0.0,0.0,0.0,0.0,0.0,0.0,0.0,0.0,0.0,0.0,0.0,0.0,0.0,0.0,0.0,0.0,0.0,0.0,0.0,0.0,0.0,0.0,0.0,0.0,0.0,0.0,0.0,0.0,0.0,0.0,0.0,0.0,0.0,0.0,0.0,0.0,0.0,0.0,0.0,0.0,0.0,0.0,0.0,0.0,0.0,0.0,0.0,0.0,0.0,3.4443,3.8207,3.9842,4.0049,4.0113,4.0168,3.7516,3.4903,3.2752,2.8235,0.0,0.0,0.0,0.0,0.0,0.0,0.0,0.0,0.0,0.0,0.0,0.0,0.0,0.0,0.0,0.0,0.0,0.0,0.0,0.0,0.0,0.0,0.0,0.0,0.0,0.0,0.0,0.0,0.0,0.0,0.0,0.0,0.0,0.0,0.0,0.0,0.0,0.0,0.0,0.0,0.0,0.0,0.0,0.0,0.0,0.0,0.0,0.0,0.0,0.0,0.0,0.0,0.0,0.0,0.0,0.0,0.0,0.0,0.0,0.0,0.0,0.0,0.0,0.0,0.0,0.0,0.0,0.0,0.0,0.0,0.0,0.0,0.0,0.0,0.0,0.0,0.0,0.0,0.0,0.0,0.0,0.0,0.0,0.0,0.0,0.0,0.0,0.0,0.0,0.0,0.0,0.0,0.0,0.0,0.0,0.0,0.0,0.0,0.0,0.0,0.0,0.0,3.2121,3.5714,0.0,3.9089,3.9558,4.0075,3.8254,3.5515,3.1788,0.0,0.0,0.0,0.0,0.0,0.0,0.0,0.0,0.0,0.0,0.0,0.0,0.0,0.0,0.0,0.0,0.0,0.0,0.0,0.0,0.0,0.0,0.0,0.0,0.0,0.0,0.0,0.0,0.0,0.0,0.0,0.0,0.0,0.0,0.0,0.0,0.0,0.0,0.0,0.0,0.0,0.0,0.0,0.0,0.0,0.0,0.0,0.0,0.0,0.0,0.0,0.0,0.0,0.0,0.0,0.0,0.0,0.0,0.0,0.0,0.0,0.0,0.0,0.0,0.0,0.0,0.0,0.0,0.0,0.0,0.0,0.0,0.0,0.0,0.0,0.0,0.0,0.0,0.0,0.0,0.0,0.0,0.0,0.0,0.0,0.0,0.0,0.0,0.0,0.0,0.0,0.0,0.0,0.0,0.0,0.0,0.0,0.0,0.0,0.0,0.0,0.0,2.7716,3.1677,3.5409,0.0,3.8738,3.9236,4.0016,3.7732,3.4618,3.079,0.0,0.0,0.0,0.0,0.0,0.0,0.0,0.0,0.0,0.0,0.0,0.0,0.0,0.0,0.0,0.0,0.0,0.0,0.0,0.0,0.0,0.0,0.0,0.0,0.0,0.0,0.0,0.0,0.0,0.0,0.0,0.0,0.0,0.0,0.0,0.0,0.0,0.0,0.0,0.0,0.0,0.0,0.0,0.0,0.0,0.0,0.0,0.0,0.0,0.0,0.0,0.0,0.0,0.0,0.0,0.0,0.0,0.0,0.0,0.0,0.0,0.0,0.0,0.0,0.0,0.0,0.0,0.0,0.0,0.0,0.0,0.0,0.0,0.0,0.0,0.0,0.0,0.0,0.0,0.0,0.0,0.0,0.0,0.0,0.0,0.0,0.0,0.0,0.0,0.0,0.0,0.0,0.0,0.0,0.0,0.0,0.0,0.0,0.0,0.0,0.0,0.0,2.8697,3.3993,3.8341,3.9905,3.9369,3.9222,4.0003,3.543,3.1758,0.0,0.0,0.0,0.0,0.0,0.0,0.0,0.0,0.0,0.0,0.0,0.0,0.0,0.0,0.0,0.0,0.0,0.0,0.0,0.0,0.0,0.0,0.0,0.0,0.0,0.0,0.0,0.0,0.0,0.0,0.0,0.0,0.0,0.0,0.0,0.0,0.0,0.0,0.0,0.0,0.0,0.0,0.0,0.0,0.0,0.0,0.0,0.0,0.0,0.0,0.0,0.0,0.0,0.0,0.0,0.0,0.0,0.0,0.0,0.0,0.0,0.0,0.0,0.0,0.0,0.0,0.0,0.0,0.0,0.0,0.0,0.0,0.0,0.0,0.0,0.0,0.0,0.0,0.0,0.0,0.0,0.0,0.0,0.0,0.0,0.0,0.0,0.0,0.0,0.0,0.0,0.0,0.0,0.0,0.0,0.0,0.0,0.0,0.0,0.0,0.0,0.0,0.0,2.7936,3.2801,3.6598,3.7539,3.7932,3.8219,3.8473,3.6199,3.3149,2.9318,0.0,0.0,0.0,0.0,0.0,0.0,0.0,0.0,0.0,0.0,0.0,0.0,0.0,0.0,0.0,0.0,0.0,0.0,0.0,0.0,0.0,0.0,0.0,0.0,0.0,0.0,0.0,0.0,0.0,0.0,0.0,0.0,0.0,0.0,0.0,0.0,0.0,0.0,0.0,0.0,0.0,0.0,0.0,0.0,0.0,0.0,0.0,0.0,0.0,0.0,0.0,0.0,0.0,0.0,0.0,0.0,0.0,0.0,0.0,0.0,0.0,0.0,0.0,0.0,0.0,0.0,0.0,0.0,0.0,0.0,0.0,0.0,0.0,0.0,0.0,0.0,0.0,0.0,0.0,0.0,0.0,0.0,0.0,0.0,0.0,0.0,0.0,0.0,0.0,0.0,0.0,0.0,0.0,0.0,0.0,0.0,0.0,0.0,0.0,0.0,0.0,0.0,2.7567,3.2035,3.5642,3.6909,3.7196,3.7344,3.7392,3.5636,3.2623,2.818,0.0,0.0,0.0,0.0,0.0,0.0,0.0,0.0,0.0,0.0,0.0,0.0,0.0,0.0,0.0,0.0,0.0,0.0,0.0,0.0,0.0,0.0,0.0,0.0,0.0,0.0,0.0,0.0,0.0,0.0,0.0,0.0,0.0,0.0,0.0,0.0,0.0,0.0,0.0,0.0,0.0,0.0,0.0,0.0,0.0,0.0,0.0,0.0,0.0,0.0,0.0,0.0,0.0,0.0,0.0,0.0,0.0,0.0,0.0,0.0,0.0,0.0,0.0,0.0,0.0,0.0,0.0,0.0,0.0,0.0,0.0,0.0,0.0,0.0,0.0,0.0,0.0,0.0,0.0,0.0,0.0,0.0,0.0,0.0,0.0,0.0,0.0,0.0,0.0,0.0,0.0,0.0,0.0,0.0,0.0,0.0,0.0,0.0,0.0,0.0,0.0,0.0,2.7505,3.1654,3.527,3.7281,3.6971,3.6591,3.6603,3.4319,3.1116,2.6934,0.0,0.0,0.0,0.0,0.0,0.0,0.0,0.0,0.0,0.0,0.0,0.0,0.0,0.0,0.0,0.0,0.0,0.0,0.0,0.0,0.0,0.0,0.0,0.0,0.0,0.0,0.0,0.0,0.0,0.0,0.0,0.0,0.0,0.0,0.0,0.0,0.0,0.0,0.0,0.0,0.0,0.0,0.0,0.0,0.0,0.0,0.0,0.0,0.0,0.0,0.0,0.0,0.0,0.0,0.0,0.0,0.0,0.0,0.0,0.0,2.5632,2.4452,0.0,0.0,0.0,0.0,0.0,0.0,0.0,0.0,0.0,0.0,0.0,0.0,0.0,0.0,0.0,0.0,0.0,0.0,0.0,0.0,0.0,0.0,0.0,0.0,0.0,0.0,0.0,0.0,0.0,0.0,0.0,0.0,0.0,0.0,0.0,0.0,0.0,0.0,0.0,0.0,2.7505,3.1654,3.4877,3.5874,3.6336,3.6164,3.5067,3.4486,3.2241,2.7671,2.51,0.0,0.0,0.0,0.0,0.0,0.0,0.0,0.0,0.0,0.0,0.0,0.0,0.0,0.0,0.0,0.0,0.0,0.0,0.0,0.0,0.0,0.0,0.0,0.0,0.0,0.0,0.0,0.0,0.0,0.0,0.0,0.0,0.0,0.0,0.0,0.0,0.0,0.0,0.0,0.0,0.0,0.0,0.0,0.0,0.0,0.0,0.0,0.0,0.0,0.0,0.0,0.0,0.0,0.0,0.0,0.0,0.0,0.0,0.0,2.8164,2.7063,0.0,0.0,0.0,0.0,0.0,0.0,0.0,0.0,0.0,0.0,0.0,0.0,0.0,0.0,0.0,0.0,0.0,0.0,0.0,0.0,0.0,0.0,0.0,0.0,0.0,0.0,0.0,0.0,0.0,0.0,0.0,0.0,0.0,0.0,0.0,0.0,0.0,0.0,0.0,0.0,2.7922,3.1564,3.441,3.5372,3.5559,3.5156,3.412,3.3097,3.0958,2.7312,2.4554,0.0,0.0,0.0,0.0,0.0,0.0,0.0,0.0,0.0,0.0,0.0,0.0,0.0,0.0,0.0,0.0,0.0,0.0,0.0,0.0,0.0,0.0,0.0,0.0,0.0,0.0,0.0,0.0,0.0,0.0,0.0,0.0,0.0,0.0,0.0,0.0,0.0,0.0,0.0,0.0,0.0,0.0,0.0,0.0,0.0,0.0,0.0,0.0,0.0,0.0,0.0,0.0,0.0,3.1974,3.2809,3.3049,3.3276,3.3593,3.3872,3.1388,3.0673,3.1068,2.8703,0.0,0.0,0.0,0.0,0.0,0.0,0.0,0.0,0.0,0.0,0.0,0.0,0.0,0.0,0.0,0.0,0.0,0.0,0.0,0.0,0.0,0.0,2.9556,2.8996,3.0707,3.1417,2.7598,0.0,0.0,0.0,0.0,0.0,0.0,0.0,0.0,0.0,0.0,0.0,2.8487,3.1539,3.3963,3.519,3.4847,3.4111,3.3181,3.1477,2.9273,2.6507,2.3892,2.117,0.0,0.0,0.0,0.0,0.0,0.0,0.0,0.0,0.0,0.0,0.0,0.0,0.0,0.0,0.0,0.0,0.0,0.0,0.0,0.0,0.0,0.0,0.0,0.0,0.0,0.0,0.0,0.0,0.0,0.0,0.0,0.0,2.2093,2.2394,0.0,0.0,0.0,0.0,0.0,0.0,0.0,0.0,0.0,0.0,0.0,0.0,0.0,2.9564,3.0853,3.2677,3.3695,3.3874,3.6344,3.6946,3.5963,3.651,3.678,3.6804,3.5908,0.0,3.1422,3.0876,0.0,0.0,0.0,0.0,0.0,0.0,0.0,0.0,0.0,0.0,0.0,0.0,0.0,0.0,0.0,0.0,0.0,0.0,0.0,0.0,0.0,0.0,3.2831,3.2641,3.2902,3.2832,3.1593,2.961,2.7254,2.4483,2.3182,2.1901,0.0,0.0,0.0,0.0,0.0,0.0,2.9129,3.1823,3.3784,3.4548,3.4548,3.3684,3.1657,3.1241,2.9546,2.5944,2.4001,2.1929,1.9568,1.6744,0.0,0.0,0.0,0.0,0.0,0.0,0.0,0.0,0.0,0.0,0.0,0.0,0.0,0.0,0.0,0.0,0.0,0.0,0.0,0.0,0.0,0.0,0.0,0.0,0.0,0.0,0.0,0.0,0.0,2.2114,2.3201,2.3721,2.4264,2.4107,0.0,0.0,0.0,0.0,0.0,0.0,0.0,0.0,0.0,3.0865,3.1853,3.317,3.4815,3.6058,3.7062,3.7841,3.896,3.9409,3.9248,3.9547,3.9667,3.9619,3.9367,3.8003,3.5759,3.3442,3.1765,3.0509,0.0,0.0,0.0,0.0,3.1423,3.2374,3.4408,3.5115,3.5013,3.4516,0.0,0.0,0.0,0.0,0.0,0.0,0.0,3.0296,3.1136,3.2342,3.3498,3.3874,3.4583,3.4863,3.3722,3.2609,3.0854,2.7568,2.6815,2.5675,2.2284,2.235,0.0,0.0,0.0,2.7692,3.0329,3.2018,3.3335,3.4368,3.338,3.2252,3.1268,2.9516,2.7613,2.5611,2.3166,2.1115,1.9529,1.7241,1.567,0.0,0.0,0.0,0.0,0.0,0.0,0.0,0.0,0.0,0.0,0.0,0.0,0.0,0.0,0.0,0.0,0.0,0.0,0.0,0.0,0.0,0.0,0.0,0.0,0.0,0.0,0.0,0.0,2.3351,2.4567,2.5053,2.6141,2.6176,0.0,0.0,0.0,0.0,0.0,0.0,2.997,3.0925,3.2422,3.4681,3.5565,3.6686,3.8135,3.8811,3.9649,4.0666,4.0834,4.1164,4.1643,4.1643,4.1643,4.1643,4.1463,4.0816,3.9649,3.6178,3.4391,3.3707,3.2207,3.1743,3.2106,3.3627,3.4641,3.5615,3.8035,3.8894,3.8761,3.7861,3.5919,3.3542,3.1128,0.0,0.0,0.0,0.0,3.1483,3.2982,3.3753,3.4288,3.4868,3.5806,3.6242,3.502,3.4714,3.3718,3.0509,2.9973,2.8895,2.5277,2.5201,0.0,0.0,0.0,2.874,3.1182,3.1886,3.2553,3.3533,3.199,3.0637,3.0011,2.7709,2.5766,2.4471,2.2114,2.0299,1.9167,1.7439,1.6121,1.5291,0.0,0.0,0.0,0.0,0.0,0.0,0.0,0.0,0.0,0.0,0.0,0.0,0.0,0.0,0.0,0.0,0.0,0.0,0.0,0.0,0.0,0.0,0.0,0.0,0.0,0.0,0.0,0.0,0.0,2.6494,2.8727,0.0,0.0,0.0,0.0,2.7882,2.9115,3.1137,3.4052,3.5446,3.6763,3.811,3.9409,4.0157,4.0247,4.0905,4.1283,4.1373,4.2021,4.2321,4.2351,4.2351,4.2351,4.2321,4.1673,4.1373,4.1134,3.9038,3.7062,3.5377,3.5202,3.4766,3.4389,3.5734,3.6716,3.7474,3.8312,3.8614,3.8724,3.9439,3.7688,3.5172,3.4367,3.3111,0.0,0.0,3.3628,3.451,3.5926,3.6317,3.6347,3.6374,3.6467,3.6304,3.5579,3.4969,3.4086,3.2601,3.0876,2.9359,2.8466,0.0,2.6741,2.7315,2.8051,2.9252,3.1241,3.1349,3.1299,3.1357,3.0575,2.9105,2.6756,2.6391,2.4974,2.1803,2.1086,2.0147,1.8701,1.6907,1.5615,1.493,1.2865,0.0,0.0,0.0,0.0,0.0,0.0,0.0,0.0,0.0,0.0,0.0,0.0,0.0,0.0,0.0,0.0,0.0,0.0,0.0,0.0,0.0,0.0,0.0,0.0,0.0,0.0,0.0,0.0,2.9305,3.096,0.0,2.8441,2.8987,2.9987,3.1082,3.2426,3.4496,3.7502,3.8512,3.9409,4.0296,4.1224,4.1673,4.1673,4.2312,4.2622,4.2622,4.2861,4.3,4.3,4.3,4.3,4.297,4.2711,4.2402,4.1991,4.1272,4.0056,3.8619,3.8142,3.755,3.7091,3.8101,3.8653,3.9015,3.9817,4.0098,3.9894,3.8748,3.7653,3.6611,3.5446,3.5034,3.5034,3.5301,3.5828,3.6444,3.6963,3.7075,3.6985,3.6583,3.6493,3.6314,3.5639,3.531,3.5011,3.4532,3.3155,3.1599,3.0103,2.979,2.9551,2.8979,2.9804,3.0682,3.1231,3.1234,3.0744,2.9574,2.8356,2.6994,2.5456,2.3979,2.2634,2.1476,2.0424,1.9459,1.8635,1.7394,1.6285,1.5317,1.3644,1.2046,0.0,0.0,0.0,0.0,0.0,0.0,0.0,0.0,0.0,0.0,0.0,0.0,0.0,0.0,0.0,0.0,0.0,0.0,0.0,0.0,0.0,0.0,0.0,0.0,0.0,2.8597,3.0397,3.1384,3.2783,3.2785,3.0583,3.1549,3.2851,3.4245,3.5565,3.7496,4.0252,4.0816,4.1354,4.2013,4.2462,4.269,4.269,4.31,4.313,4.271,4.271,4.2528,4.2181,4.2548,4.271,4.276,4.315,4.307,4.269,4.269,4.2162,4.1276,4.0427,3.9798,3.9499,4.0021,4.0235,4.0313,4.0611,4.0576,4.0119,3.8413,3.7865,3.7644,3.6493,3.6447,3.6836,3.7092,3.7434,3.7793,3.8033,3.8075,3.7913,3.7302,3.6972,3.6626,3.5968,3.5669,3.5519,3.5519,3.4592,3.3395,3.2093,3.2048,3.1781,3.0629,3.1161,3.1537,3.1057,3.0327,2.9367,2.8158,2.6427,2.4962,2.3935,2.2364,2.1212,2.072,1.9539,1.8672,1.8205,1.6874,1.5753,1.4886,1.317,1.1601,1.023,0.0,0.0,0.0,0.0,0.0,0.0,0.0,0.0,0.0,0.0,0.0,0.0,0.0,0.0,0.0,0.0,0.0,0.0,0.0,0.0,0.0,0.0,0.0,2.8607,3.0017,3.1475,3.2663,3.4196,3.4453,3.2757,3.4732,3.6456,3.7191,3.8353,3.9984,4.2312,4.244,4.272,4.329,4.3319,4.3319,4.331,4.331,4.2729,4.1574,4.1574,4.0986,3.9956,4.1085,4.1587,4.1649,4.282,4.329,4.329,4.329,4.329,4.319,4.1923,4.1463,4.1433,4.1433,4.1403,4.1313,4.0636,3.996,3.9331,3.8631,3.8422,3.8302,3.7674,3.7464,3.7614,3.8242,3.8422,3.8571,3.9242,3.9391,3.9242,3.8542,3.7913,3.7255,3.6626,3.5998,3.5519,3.5519,3.4997,3.4518,3.4518,3.3948,3.316,3.2266,3.2105,0.0,3.0636,2.8517,2.7082,2.6944,2.4829,2.2988,2.2,2.1504,2.0665,1.9315,1.8387,1.7745,1.7369,1.5242,1.3901,1.3538,1.129,0.9993,0.9714,0.0,0.0,0.0,0.0,0.0,0.0,0.0,0.0,0.0,0.0,0.0,0.0,0.0,0.0,0.0,0.0,0.0,0.0,0.0,0.0,0.0,2.7247,2.9099,3.0529,3.2418,3.4037,3.5049,3.5636,3.5478,3.4234,3.4703,3.6068,3.831,3.8804,4.0179,4.2931,4.304,4.3339,4.3997,4.4027,4.3799,4.3375,4.3375,4.256,4.096,4.096,4.0584,3.9956,4.1085,4.1587,4.1649,4.282,4.329,4.329,4.329,4.329,4.326,4.2921,4.2521,4.2141,4.2141,4.1841,4.1313,4.0636,4.0277,4.0008,3.9331,3.914,3.9092,3.8913,3.8853,3.8883,3.9062,3.914,3.9152,3.9361,3.9391,3.9242,3.8542,3.8242,3.7823,3.6733,3.6374,3.6088,3.5609,3.534,3.522,3.522,3.4093,3.3135,3.2861,3.219,0.0,2.8395,2.7936,2.6705,2.3727,2.2113,2.0853,1.9904,1.8463,1.7619,1.7624,1.6368,1.5819,1.63,1.451,1.3046,1.2014,1.1174,1.0501,0.0,0.0,0.0,0.0,0.0,0.0,0.0,0.0,0.0,0.0,0.0,0.0,0.0,0.0,0.0,0.0,0.0,0.0,0.0,0.0,0.0,0.0,2.9319,3.1187,3.2783,3.3694,3.4701,3.6021,3.6056,3.5804,3.5447,3.5836,3.6817,3.8504,3.9547,4.0925,4.291,4.3457,4.3775,4.3923,4.3902,4.3499,4.2596,4.2596,4.1848,4.0317,4.0069,3.9771,3.9513,4.0473,4.1148,4.1649,4.282,4.329,4.329,4.329,4.329,4.329,0.0,0.0,0.0,0.0,4.204,4.1028,4.0626,3.9993,3.9286,3.889,3.8935,3.9106,3.9106,3.9224,3.9391,3.9391,3.9391,3.9391,3.9391,3.9391,3.9302,3.8901,3.8601,3.8123,3.7105,3.6673,3.6314,3.5639,3.5149,0.0,3.4872,3.4118,3.3208,3.2409,3.1405,2.9881,2.7581,2.6639,2.5017,2.1988,2.0547,1.9396,1.8361,1.7122,0.0,0.0,0.0,1.4743,1.4564,1.3598,0.0,0.0,0.0,0.0,0.0,0.0,0.0,0.0,1.072,1.0744,0.0,0.0,0.0,0.0,0.0,0.0,0.0,0.0,0.0,0.0,0.0,0.0,0.0,0.0,0.0,0.0,3.1257,3.3382,3.4846,3.4239,3.4309,3.6157,3.5913,3.5807,3.6331,3.7312,3.7948,3.8085,4.0087,4.1617,4.236,4.3412,0.0,0.0,0.0,4.2715,4.1503,4.153,4.09,3.9695,3.9092,3.8822,3.8929,3.9588,4.0511,4.1649,4.282,4.329,4.329,4.329,4.323,4.313,4.313,4.313,4.3081,4.2961,4.1904,4.0527,4.0421,0.0,0.0,3.7917,3.8206,3.8617,3.8677,3.899,3.9336,3.9385,3.9391,3.9391,3.9391,3.9391,3.9391,3.9391,3.896,3.8332,3.7674,3.7015,3.637,3.5598,3.4668,3.3927,3.3722,3.3688,3.307,3.127,3.0056,2.882,2.7312,2.5019,2.2874,2.1193,1.9695,0.0,1.7212,1.6649,1.6254,1.5997,1.5308,1.422,1.277,1.2733,1.2389,1.157,1.1882,1.2149,1.2358,1.269,1.2878,1.2904,1.1564,1.1467,0.0,0.0,0.0,0.0,0.0,0.0,0.0,0.0,0.0,0.0,0.0,0.0,0.0,0.0,0.0,3.0062,3.1649,3.3182,3.445,3.453,3.5076,3.6756,3.6524,3.6256,3.6405,3.6617,3.7103,3.8017,3.8918,3.9893,4.1007,4.168,4.2239,4.2652,4.268,4.232,4.159,4.159,4.0743,3.9094,3.846,0.0,3.8929,3.9588,4.0511,4.1649,4.282,4.329,4.329,4.329,4.278,4.1947,4.1947,4.1947,4.1823,4.0894,4.0348,3.996,3.9437,3.899,3.8613,3.8075,3.7979,3.8135,3.8557,3.8755,0.0,3.9275,3.9391,3.9391,3.9391,3.9391,3.9391,3.9391,3.9302,3.9002,3.8332,3.7674,3.6794,3.5367,3.4507,3.3533,3.1983,3.1756,3.1299,3.0031,2.8997,2.7532,2.5142,2.404,2.2574,2.0164,1.8548,1.7192,1.6108,1.4903,1.4359,1.472,1.4403,1.378,1.2828,1.2999,1.2917,1.2529,1.2818,1.2872,1.2703,1.2992,1.336,1.3835,1.3273,1.302,0.0,0.0,0.0,0.0,0.0,0.0,0.0,0.0,0.0,0.0,0.0,2.6494,2.764,0.0,3.087,3.1504,3.2729,3.3839,3.45,3.4891,3.5411,3.6208,3.6356,3.6405,3.6405,3.6405,3.6639,3.7219,3.8269,3.9316,4.0229,4.1379,4.2004,4.2037,4.204,4.1595,4.0642,4.0642,4.0211,3.9296,3.8417,3.8762,4.0183,3.9991,4.0831,4.2487,4.3041,4.329,4.327,4.267,4.1782,4.0682,4.0074,4.0225,4.0682,4.0102,3.9514,3.8929,3.861,3.8127,3.7588,3.7253,3.7316,3.7665,3.8538,3.8712,3.8813,3.9665,3.966,3.9391,3.9391,3.9391,3.9391,3.9391,3.9391,3.9212,3.8542,3.7522,3.6359,3.5201,3.3713,3.229,3.1352,3.0335,2.9474,2.888,2.7475,2.589,2.4406,2.2817,2.1069,1.9014,1.7425,1.6047,1.4998,1.409,1.3716,1.3975,1.3741,1.3419,1.3012,1.3133,1.3133,1.3006,1.3247,1.3427,1.3454,1.3721,1.4095,1.4544,1.4522,1.4362,0.0,0.0,0.0,0.0,0.0,0.0,0.0,0.0,2.3756,2.5755,2.6952,2.8101,2.9683,3.1288,3.2463,3.2717,3.3684,3.4499,3.4816,3.5232,3.5533,3.5656,3.6081,3.6405,3.6405,3.6405,3.6405,3.6405,3.7837,3.8948,3.949,4.1057,4.1721,4.1243,4.1219,4.0743,3.9723,3.9697,3.9697,3.9672,3.8792,3.9444,4.1461,4.0636,4.1365,4.329,4.3061,4.284,4.2548,4.1399,4.0376,3.9426,3.8221,3.8356,3.9205,3.9205,3.8604,3.7769,3.7769,3.7173,3.6405,3.6405,3.666,3.7149,3.8228,3.8609,3.8818,3.9553,3.9665,3.9468,3.8936,3.909,3.9337,3.9156,3.9247,3.9188,3.8442,3.7173,3.5859,3.4807,3.2855,3.1187,3.0707,2.9047,2.7783,2.7783,2.6087,2.4534,2.374,2.1629,1.9565,1.7948,1.6542,1.5275,1.4187,1.3847,1.3714,1.3714,1.3487,1.3367,1.3367,1.3367,1.3414,1.3447,1.3653,1.394,1.4277,1.4496,1.4763,1.5079,1.5307,1.5271,2.2006,2.1681,2.166,2.2807,2.2702,2.3305,0.0,0.0,2.7224,3.0151,3.0863,3.1095,3.1551,3.2198,3.275,3.3009,3.3568,3.4331,3.528,3.5458,3.5707,3.623,3.638,3.6405,3.6405,3.6405,3.6405,3.6405,3.7457,3.8111,3.8211,3.9348,3.9981,3.9904,3.9904,3.9826,3.9697,3.9697,3.9697,3.9698,3.9631,4.0274,4.1484,4.1432,4.2091,4.325,4.2214,4.1211,4.0189,3.9006,3.8424,3.8175,3.7034,3.6662,3.6779,3.6779,3.6709,3.6593,3.6593,3.6523,3.6405,3.6405,3.6425,3.6578,3.7131,3.8028,3.8679,3.7739,3.8832,3.9691,3.722,3.7965,3.9174,3.82,3.8694,3.9126,3.8094,3.7265,3.6031,3.3692,3.2508,3.1157,2.885,2.7461,2.6689,2.6689,2.5609,2.4021,2.1916,2.0796,1.9374,1.7168,1.6197,1.5275,1.4187,1.4076,1.4041,1.4041,1.4022,1.4009,1.4009,1.4009,1.4108,1.4341,1.4381,1.4563,1.4914,1.4919,1.5093,1.5351,1.5378,1.5378,2.2761,2.2584,2.2598,2.3514,2.425,2.5309,2.743,2.7762,2.8231,3.0515,3.1218,3.1571,3.2008,3.2542,3.308,0.0,3.335,3.3738,3.529,3.483,3.4716,3.5762,3.5881,3.6006,3.638,3.6405,3.6405,3.6405,3.711,3.7663,3.799,3.8768,3.9396,3.9697,3.9697,3.9697,3.9697,3.9697,3.9697,3.9698,3.9753,4.0392,4.1461,4.087,4.0873,4.1302,4.081,3.995,3.8805,3.8311,3.7723,3.7057,3.6593,3.6405,3.6405,3.6405,3.6405,3.6405,3.6405,3.6405,3.6405,3.6405,3.6405,3.6566,3.7414,3.7745,3.7898,3.8087,3.8315,3.8191,3.7019,3.7594,3.8379,3.7919,3.8144,3.836,3.79,3.6341,3.4761,3.3681,3.1701,2.9845,2.8766,2.6868,2.5504,2.5504,2.4553,2.3195,2.1525,2.029,1.8512,1.5762,1.519,1.4767,1.4137,1.4103,1.4103,1.4103,1.4103,1.4162,1.4335,1.4335,1.4482,1.4776,1.4798,1.4946,1.524,1.524,1.5364,1.5635,1.5832,1.5936,2.2635,2.2823,2.3306,2.4408,2.5829,2.711,2.7839,2.8398,2.9132,3.0287,3.0762,3.105,3.1376,3.1696,3.2157,3.2967,3.2578,3.2912,3.4906,3.422,3.3981,3.5344,3.5357,3.5506,3.6105,3.6306,3.6405,3.6405,3.7034,3.7588,3.799,3.8693,3.9296,3.9672,3.9697,3.9697,3.9697,3.9697,3.9697,3.9698,3.9908,4.0387,4.1008,4.0239,3.9711,3.9404,3.9404,3.8716,3.7632,3.7632,3.715,3.6405,3.6405,3.6405,3.6405,3.6405,3.6405,3.6405,3.6405,3.6405,3.6405,3.6405,3.6405,3.657,3.7379,3.7527,3.7448,3.7836,3.7791,3.738,3.6481,3.7119,3.7873,3.7116,3.7377,3.7625,3.7069,3.5407,3.3903,3.3442,3.1154,2.9118,2.8565,2.6529,2.4806,2.4402,2.3347,2.2164,2.0966,1.9211,1.7212,1.4894,1.4643,1.4563,1.437,1.4344,1.4344,1.4344,1.4344,1.4451,1.4629,1.4643,1.4776,1.5106,1.5106,1.5253,1.5511,1.5511,1.5658,1.5928,1.6203,1.6391,2.141,2.207,2.3466,2.5827,2.7236,2.8348,2.9453,3.0156,3.0512,3.0412,3.0095,2.9773,2.9512,2.9173,2.9398,3.0771,3.0971,3.1766,3.4122,3.391,3.3981,3.5344,3.5031,3.4954,3.5483,3.6056,3.6405,3.6405,3.7386,3.799,3.8015,3.9069,3.9672,3.9697,3.9697,3.9697,3.9697,3.9697,3.9697,3.9723,4.0298,4.0333,3.9846,3.991,3.9249,3.8153,3.8153,3.7494,3.6452,3.6452,3.6428,3.6405,3.6405,3.6405,3.6405,3.6405,3.6405,3.6405,3.6405,3.6405,3.6405,3.6405,3.6405,3.6405,3.6428,3.7219,3.7726,3.607,3.717,3.8112,3.4827,3.6331,3.8019,3.5419,3.6318,3.7261,3.5224,3.4733,3.4204,3.2566,3.1232,2.9693,2.7698,2.626,2.4876,2.338,2.212,2.0904,1.9724,1.7202,1.5376,1.5022,1.4972,1.4995,1.4959,1.4959,1.4959,1.4959,1.4959,1.4981,1.4972,1.4972,1.5106,1.5378,1.5378,1.5524,1.5795,1.5795,1.5965,1.6284,1.6297,1.6605,2.24,2.3432,2.4797,2.7435,2.8024,2.8361,2.9866,2.9711,2.9303,2.932,2.9229,2.9005,2.8609,2.843,2.879,3.0204,2.9689,3.0345,3.3904,3.311,3.2885,3.4753,3.4803,3.4778,3.4954,3.5481,3.5981,3.638,3.706,3.7613,3.799,3.8743,3.9346,3.9697,3.9697,3.9697,3.9697,3.9697,3.9697,3.9698,3.996,3.9754,3.9172,3.8865,3.8088,3.6964,3.6964,3.6756,3.6405,3.6405,3.6405,3.6405,3.6405,3.6405,3.6405,3.6405,3.6405,3.6405,3.6405,3.6405,3.6405,3.6405,3.6405,3.6405,3.6405,3.6662,3.6845,3.6272,3.6358,3.6383,3.5259,3.5783,3.6339,3.5451,3.5472,3.5568,3.4836,3.4142,3.3224,3.1796,3.0348,2.8765,2.6954,2.5357,2.3772,2.2154,2.0877,1.9679,1.8457,1.6757,1.5555,1.5284,1.528,1.52,1.5022,1.5008,1.5008,1.5008,1.5008,1.5079,1.5267,1.528,1.5391,1.5648,1.5661,1.5701,1.5808,1.6032,1.6203,1.631,1.6698,1.7005,2.2717,2.38,2.4993,2.7786,2.8315,2.8402,2.9298,2.9075,2.8478,2.7811,2.7414,2.702,2.6455,2.5958,2.6238,2.8063,2.7648,2.8579,3.2844,3.2309,3.2356,3.4707,3.4828,3.4778,3.4979,3.5282,3.5757,3.6331,3.7085,3.7638,3.799,3.8743,3.9346,3.9697,3.9697,3.9697,3.9697,3.9697,3.9697,3.9698,3.9337,3.8953,3.8564,3.7834,3.708,3.6405,3.6405,3.6405,3.6405,3.6405,3.6405,3.6405,3.6405,3.6405,3.6405,3.6405,3.6405,3.6405,3.6405,3.6405,3.6405,3.6405,3.6405,3.6405,3.6405,3.6405,3.6405,3.6405,3.613,3.5757,3.5558,3.5763,3.5877,3.5119,3.4962,3.481,3.4251,3.3232,3.2174,3.1356,2.9669,2.7978,2.6735,2.5002,2.3291,2.1775,2.0377,1.9062,1.787,1.6598,1.5728,1.5565,1.5551,1.5471,1.5307,1.5294,1.5294,1.5294,1.5294,1.5351,1.5551,1.5551,1.5608,1.5808,1.5808,1.5861,1.5992,1.6179,1.6404,1.6618,1.7032,1.7259,2.2427,2.329,2.4296,2.7061,2.8121,2.8366,2.7942,2.821,2.7944,2.589,2.4767,2.395,0.0,0.0,2.2069,2.4593,2.5134,2.6747,3.11,3.1686,3.2614,0.0,0.0,0.0,0.0,0.0,3.5757,3.6331,3.7387,3.8015,3.8015,3.9069,3.9697,3.9697,3.9697,3.9697,3.9697,3.9697,3.9672,3.9647,3.8542,3.799,3.7914,3.6884,3.6405,3.6405,3.6405,3.6405,3.6405,3.6405,3.6405,3.6405,3.6405,3.6405,3.6405,3.6405,3.6405,3.6405,3.6405,3.6405,3.6405,3.6405,3.6405,3.6405,3.6405,3.6405,3.6405,3.6405,3.6405,3.6256,3.5707,3.626,3.6512,3.4417,3.4701,3.4987,3.3427,3.2108,3.1178,3.1134,2.9143,2.734,2.6877,2.5156,2.3403,2.2094,2.0566,1.9078,1.7847,1.6598,1.5808,1.5808,1.5808,1.5808,1.5808,1.5808,1.5808,1.5808,1.5808,1.5808,1.5808,1.5808,1.5808,1.5808,1.5821,1.5992,1.6297,1.6324,1.6632,1.7206,1.7219,1.7354,2.3324,2.464,2.591,2.7878,2.7544,2.6808,2.711,2.6074,2.4743,2.3551,2.2867,2.2147,0.0,2.1269,2.2148,2.346,2.5571,0.0,3.1267,3.284,0.0,3.5347,0.0,3.5332,3.5483,3.5508,3.5757,3.6331,3.7387,3.8015,3.8015,3.9069,3.9697,3.9697,3.9697,3.9697,3.9697,3.9697,3.9496,3.9095,3.8341,3.7789,3.7362,3.6708,3.6405,3.6405,3.6405,3.6405,3.6405,3.6405,3.6405,3.6405,3.6405,3.6405,3.6405,3.6405,3.6405,3.6405,3.6405,3.6405,3.6405,3.6405,3.6405,3.6405,3.6405,3.6405,3.6405,3.6405,3.6405,3.638,3.6205,3.6039,3.5674,3.472,3.4395,3.4092,3.328,3.2108,3.0933,3.0033,2.7634,2.5697,2.5574,2.4818,2.3411,2.0939,2.0222,1.9399,1.79,1.6598,1.5808,1.5808,1.5808,1.5808,1.5808,1.5808,1.5808,1.5808,1.5808,1.5808,1.5808,1.5808,1.5808,1.5808,1.6046,1.6192,1.6297,1.6764,1.7058,1.7206,1.7394,1.7635,2.3827,2.4954,2.5946,2.7052,2.6475,2.5582,2.5347,2.4204,2.2812,2.1387,2.0762,2.0176,1.924,1.9844,2.0937,2.2384,0.0,0.0,3.1005,3.3135,3.4776,0.0,3.5906,0.0,3.5906,3.5906,3.6031,3.638,3.7387,3.8015,3.8015,3.9069,3.9697,3.9697,3.9697,3.9697,3.9697,3.9697,3.9446,3.8894,3.7691,3.7147,3.7161,3.6034,3.5834,3.6405,3.6405,3.6405,3.6405,3.6405,3.6405,3.6405,3.6405,3.6405,3.6405,3.6405,3.6405,3.6405,3.6405,3.6405,3.6405,3.6405,3.6405,3.6405,3.6405,3.6405,3.6405,3.6405,3.6405,3.6405,3.6405,3.6155,3.5732,3.5205,3.4828,3.4242,3.2934,3.1669,3.0171,2.8164,2.6469,2.5371,2.5371,2.5,2.3937,2.1706,2.0776,1.9739,1.808,1.6658,1.5808,1.5808,1.5808,1.5808,1.5808,1.5808,1.5808,1.5808,1.5808,1.5808,1.5808,1.5928,1.6019,1.6019,1.6313,1.6551,1.671,1.7045,1.7259,1.7367,1.7649,1.7849,2.4134,2.4824,2.5254,2.562,2.5312,2.4613,2.346,2.2678,2.1581,1.9609,1.8791,1.8322,1.7893,1.8247,1.9372,2.1688,0.0,2.7716,3.0821,3.3144,3.4993,3.6238,3.6405,3.643,3.6505,3.6505,3.6505,3.6505,3.7512,3.809,3.8015,3.9069,3.9697,3.9697,3.9697,3.9697,3.9697,3.9697,3.9446,3.8894,3.7007,3.6522,3.7237,3.5429,3.5308,3.6505,3.6505,3.648,3.6405,3.6405,3.6455,3.6505,3.6505,3.6532,3.6607,3.6607,3.6607,3.6582,3.6531,3.6505,3.6482,3.643,3.6405,3.6405,3.6405,3.6405,3.6405,3.6405,3.6405,3.6405,3.6405,3.6405,3.6256,3.5656,3.5344,3.4675,3.2616,3.0997,2.9104,2.6342,2.5732,2.5693,2.5693,2.5266,2.4407,2.2966,2.1434,1.9821,1.8138,1.6731,1.5848,1.5808,1.5808,1.5808,1.5808,1.5808,1.5808,1.5808,1.5848,1.5861,1.5861,1.6166,1.6351,1.6351,1.6645,1.6913,1.7206,1.7246,1.7381,1.7649,1.7889,1.8035,2.4504,2.5273,2.562,2.5674,2.4863,2.389,2.3345,2.1719,0.0,0.0,1.8144,1.7461,1.6999,1.7837,1.9545,2.2408,2.5486,2.8688,3.2089,3.4163,3.5598,0.0,3.6405,3.6557,3.7009,3.706,3.706,3.706,3.8115,3.8542,3.804,3.9069,3.9697,3.9697,3.9697,3.9697,3.9697,3.9697,3.9446,3.8868,3.732,3.703,3.7815,3.6249,3.6108,3.706,3.706,3.6808,3.6405,3.6405,3.6658,3.706,3.706,3.7312,3.7713,3.7713,3.7713,3.7663,3.7235,3.706,3.6984,3.6532,3.6405,3.6405,3.6405,3.6405,3.6405,3.6405,3.6405,3.6405,3.6405,3.6405,3.6256,3.5656,3.4666,3.3624,3.2769,3.0474,2.8105,2.6567,2.5971,2.5693,2.5693,2.4724,2.3392,2.1764,2.0323,1.884,1.7158,1.6513,1.6099,1.5835,1.5808,1.5808,1.5808,1.5808,1.5808,1.5808,1.6059,1.6217,1.6217,1.6473,1.6633,1.6633,1.6953,1.7152,1.7206,1.7421,1.7662,1.7943,1.7982,1.8276,2.4881,2.5542,2.5693,2.5693,2.4742,2.3496,2.2402,0.0,0.0,0.0,1.6989,1.6578,1.6118,1.7269,0.0,2.0805,2.41,2.7544,3.081,3.3019,3.4776,3.6229,3.6632,3.6909,3.7185,3.7437,3.7613,3.7613,3.8416,3.8642,3.804,3.9069,3.9697,3.9697,3.8973,3.8556,3.8556,3.7793,3.7109,3.6562,3.5908,3.6043,3.6843,3.6187,3.6522,3.7613,3.7613,3.7462,3.7235,3.7235,3.7362,3.7613,3.7613,3.7764,3.8015,3.8015,3.8015,3.7965,3.7713,3.7613,3.7563,3.7336,3.6859,3.6405,3.6405,3.6405,3.6405,3.6405,3.6405,3.6405,3.6405,3.6405,3.6141,3.5157,3.3188,3.1448,3.1178,2.9264,2.7327,2.655,2.6211,2.5971,2.5732,2.4584,2.3189,2.1687,2.0288,1.8826,1.7171,1.6846,1.6645,1.6288,1.6262,1.6262,1.6262,1.6262,1.6262,1.6262,1.642,1.6524,1.6524,1.6805,1.6966,1.6966,1.7247,1.7488,1.7622,1.7756,1.7942,1.8263,1.8396,1.8623,2.5073,2.5693,2.5693,2.5693,2.4664,2.3223,2.1561,2.0059,0.0,1.6496,1.6026,1.5855,1.5586,1.666,1.8034,0.0,2.2387,2.5649,2.9012,3.139,3.3535,3.5603,3.664,0.0,3.7337,3.7864,3.8191,3.8191,3.8642,3.8743,3.8391,3.922,3.9697,3.9697,3.8269,3.7503,3.7503,3.6054,3.5059,3.4575,3.4706,3.5253,3.6163,3.6266,3.701,3.8191,3.8191,3.8115,3.8015,3.8015,3.809,3.8191,3.8191,3.8266,3.8366,3.8366,3.8366,3.8341,3.8241,3.8191,3.8165,3.804,3.7412,3.6733,3.6733,3.6733,3.6733,3.6733,3.6658,3.6581,3.6581,3.6267,3.5571,3.392,3.1636,2.9731,2.9471,2.8195,2.7051,2.6744,2.6607,2.6306,2.5635,2.433,2.2957,2.1571,2.0096,1.87,1.7456,1.73,1.718,1.6914,1.678,1.67,1.67,1.67,1.67,1.67,1.6767,1.6807,1.6807,1.7113,1.73,1.73,1.7555,1.7782,1.7995,1.8076,1.8263,1.8584,1.8796,1.893,2.4887,2.5693,2.5693,2.5693,2.4407,2.283,2.1502,0.0,1.7734,1.6378,1.5757,1.5586,1.5968,1.6163,0.0,0.0,0.0,2.3607,2.7838,3.0343,3.2292,3.3767,0.0,0.0,3.7889,3.8467,3.8818,3.8818,3.8869,3.9095,3.9521,3.9647,3.9697,3.9697,3.8269,3.7503,3.7503,3.6054,3.5266,3.5221,3.5221,3.5989,3.7337,3.7337,3.7882,3.8818,3.8818,3.8517,3.8015,3.8015,3.8316,3.8818,3.8818,3.912,3.9546,3.9546,3.9546,3.9471,3.8994,3.8818,3.8743,3.8191,3.7939,3.7864,3.7864,3.7864,3.7864,3.7864,3.7487,3.7135,3.7135,3.5867,3.392,3.1312,3.0467,2.9901,2.8701,2.7996,2.7624,2.7585,2.7226,2.6525,2.512,2.3531,2.1921,2.0472,1.884,1.7726,1.7568,1.7568,1.7555,1.7528,1.7021,1.67,1.67,1.67,1.67,1.67,1.6993,1.7166,1.7166,1.7408,1.7568,1.7568,1.7822,1.7996,1.7995,1.8317,1.8597,1.885,1.889,1.9065,2.3516,2.4927,2.5693,2.5693,2.4387,2.2713,2.1191,1.9375,1.7559,1.5996,1.5527,1.5469,1.5644,1.5909,1.6706,0.0,0.0,0.0,2.4717,2.7238,2.9797,3.2683,3.5219,3.721,3.8441,3.907,3.9396,3.9396,3.9396,3.9087,3.84,3.9232,3.931,3.84,3.6918,3.5754,3.4853,3.3388,3.2664,3.2693,3.4453,3.5617,3.6244,3.8005,3.9031,3.9396,3.9396,3.9271,3.9019,3.9019,3.9145,3.9396,3.9396,3.9496,3.9697,3.9697,3.9697,3.9672,3.9472,3.9396,3.932,3.9094,3.9019,3.8894,3.8216,3.8015,3.8015,3.8015,3.7839,3.7467,3.6601,3.4363,3.1994,3.0651,2.9676,2.8953,2.8415,2.8164,2.7995,2.7741,2.7545,2.6865,2.5092,2.3556,2.2032,2.0554,1.8911,1.7836,1.7836,1.7702,1.7608,1.7608,1.7394,1.7235,1.7235,1.7235,1.7235,1.7235,1.7367,1.7434,1.7434,1.7702,1.7836,1.7836,1.8129,1.8369,1.8543,1.8663,1.8905,1.9199,1.9372,1.9519,2.2464,2.4291,2.5523,2.5523,2.4313,2.2635,2.082,1.9141,1.7519,1.5747,1.5396,1.5396,1.5396,1.5777,1.6339,1.707,0.0,1.939,2.2199,2.4626,2.7321,3.0595,3.3164,3.5305,3.6845,3.8253,3.9051,3.9051,3.9051,3.8425,3.6918,3.7846,3.7926,3.6865,3.5426,3.4153,3.3106,3.1623,3.1112,3.1585,3.4118,3.5535,3.6027,3.8556,3.9697,3.9697,3.9697,3.9697,3.9697,3.9697,3.9697,3.9697,3.9697,3.9697,3.9697,3.9697,3.9697,3.9697,3.9697,3.9697,3.9697,3.9697,3.9697,3.9546,3.8743,3.8492,3.8492,3.8492,3.8066,3.724,3.5647,3.3196,3.0971,3.009,2.916,2.8437,2.832,2.8301,2.8203,2.7936,2.7878,2.7163,2.4881,2.3623,2.2242,2.0325,1.8947,1.8156,1.8156,1.7983,1.7876,1.7876,1.7876,1.7782,1.7622,1.7608,1.7622,1.7716,1.7716,1.7756,1.7849,1.8063,1.8156,1.8156,1.8464,1.8942,1.9555,1.9197,1.9428,2.0178,1.9929,1.9893,2.2162,2.3928,2.5102,2.5102,2.4102,2.2535,2.0391,1.8926,1.7519,1.5747,1.5396,1.5396,1.5396,1.5777,1.6226,1.6629,1.7425,0.0,2.0918,2.3124,2.5168,0.0,2.9229,3.1147,3.2447,3.557,3.7506,3.7506,3.7506,3.6865,3.5398,3.5343,3.5343,3.5316,3.3873,3.3134,3.3106,3.1623,3.1623,3.3106,3.4598,3.6054,3.753,3.9025,3.9697,3.9697,3.9697,3.9697,3.9697,3.9697,3.9697,3.9697,3.9697,3.9697,3.9697,3.9697,3.9697,3.9697,3.9697,3.9697,3.9697,3.9697,3.9697,3.9697,3.9672,3.9672,3.9672,3.9672,3.8269,3.6263,3.4313,3.2721,3.1133,2.9332,2.8906,2.8762,2.8379,2.8301,2.8301,2.8281,2.8281,2.733,2.435,2.358,2.2363,1.9357,1.8677,1.849,1.849,1.8477,1.8477,1.8477,1.8477,1.8237,1.7662,1.7608,1.7716,1.7969,1.7995,1.8143,1.8464,1.8477,1.849,1.849,1.8771,1.9625,2.1065,1.9931,2.0265,2.1948,2.0482,2.0107,2.0156,2.187,2.3262,2.299,2.215,2.0977,1.9376,1.8264,1.7168,1.5688,1.5396,1.5396,1.5396,1.5527,1.6055,1.7366,1.7815,1.8652,0.0,0.0,0.0,2.8255,3.3149,3.6178,3.5942,3.6888,3.7079,3.6081,3.5999,3.5343,3.3873,3.3789,3.3789,3.3789,3.336,3.3106,3.3106,3.2644,3.3134,3.4626,3.6108,3.7052,3.7557,3.9025,3.9697,3.9697,3.9697,3.9697,3.9697,3.9697,3.9697,3.9697,3.9697,3.9697,3.9697,3.9697,3.9697,3.9697,3.9697,3.9697,3.9697,3.9697,3.9697,3.9697,3.9697,3.9697,3.9491,3.8504,3.7012,3.5283,3.3356,3.1761,3.0426,2.9564,2.9383,2.9238,2.8809,2.8711,2.8633,2.834,2.8301,2.7672,2.5717,2.4431,2.3352,2.2377,2.1124,2.0294,2.0294,2.0133,1.9634,1.8601,1.849,1.841,1.8223,1.8237,1.825,1.8343,1.8343,1.8397,1.849,1.8677,1.8756,1.8756,2.0061,2.1115,2.1836,2.2559,2.2855,2.2722,2.2256,2.168,1.8979,2.0608,2.1952,2.1699,2.1114,2.0214,1.8713,1.7871,1.7028,1.5684,1.5396,1.5396,1.5396,1.5547,1.6016,1.7106,1.7695,1.8555,2.0117,2.2469,2.5375,2.9035,3.3647,3.6536,3.6731,3.6697,3.6298,3.5371,3.4792,3.3838,3.235,3.2264,3.2264,3.2264,3.2264,3.253,3.3106,3.3106,3.4125,3.6135,3.7052,3.7796,3.8348,3.9284,3.9697,3.9697,3.9697,3.9697,0.0,3.9697,3.9697,3.9697,3.9697,3.9697,3.9697,3.9697,3.9697,3.9697,3.9697,3.9697,3.9697,3.9697,3.9697,3.9697,3.9697,3.931,3.8687,3.7769,3.6054,3.4199,3.2979,3.158,3.0351,2.995,2.9833,2.9687,2.9258,2.916,2.9082,2.8855,2.8797,2.8276,2.6619,2.5072,2.4015,2.381,2.1885,2.0655,2.1216,2.0662,1.985,1.8937,1.8853,1.8853,1.8853,1.8624,1.8544,1.8651,1.9167,1.9292,1.8867,2.0062,2.05,1.9934,2.1743,2.3086,2.391,2.4515,2.4541,2.4034,2.2864,2.2276,0.0,1.9861,2.0917,2.0878,2.0605,1.9882,1.8242,1.7595,0.0,1.5649,1.5396,1.5415,1.5474,1.5835,1.6144,1.63,1.7344,1.8576,1.9864,2.2442,2.565,2.9579,3.1687,3.3501,3.5317,3.5283,3.5096,3.4985,3.3726,3.235,3.0966,3.0898,3.0898,3.0898,3.0995,3.1767,3.3247,3.3275,3.4742,3.7663,3.7663,3.8374,3.9697,3.9697,3.9697,3.9697,3.9697,3.9697,3.9697,3.9697,3.9697,3.9697,3.9697,3.9697,3.9697,3.9697,3.9697,3.9697,3.9697,3.9697,3.9697,3.9697,3.9697,3.9697,3.9697,3.8661,3.7477,3.7373,3.5293,3.3077,3.2964,3.194,3.0781,3.0351,3.0254,3.0137,2.9735,2.9637,2.9637,2.9598,2.9598,2.9043,2.7215,2.5665,2.4584,2.4262,2.1774,2.0456,2.1786,2.0687,1.9705,1.9562,1.9562,1.9562,1.9562,1.9034,1.8832,1.9073,2.0482,2.0837,1.9807,2.2382,2.3227,2.1873,2.3739,2.5474,2.6945,2.6109,2.5681,2.5549,2.2759,2.2398,1.7051,0.0,1.8203,1.7854,1.7698,1.7425,0.0,1.6476,1.6207,0.0,0.0,0.0,1.6258,1.623,1.6633,1.8279,1.9062,1.9922,2.123,2.5786,2.9847,3.2201,3.4402,3.5634,3.5374,3.4317,3.3134,3.2026,3.1614,3.1267,3.0928,3.0898,3.0898,3.0898,3.1977,3.3275,3.4764,3.4792,3.6244,3.9181,3.9181,3.9362,3.9697,3.9697,3.9697,3.9697,3.9697,3.9697,3.9697,3.9697,3.9697,3.9697,3.9697,3.9697,3.9697,3.9697,3.9697,3.9697,3.9697,3.9697,3.9697,3.9697,3.9697,3.9697,3.9697,3.8661,3.7266,3.6135,3.4515,3.2822,3.171,3.117,3.0859,3.0762,3.0723,3.0605,3.0156,3.0059,2.9989,2.9657,2.9598,2.9447,2.8996,2.7648,2.7017,2.8071,2.6636,2.5452,2.5499,2.4223,2.2731,2.126,2.1088,2.1088,2.1088,2.0942,2.0898,2.0971,2.2367,2.3211,2.3295,2.3967,2.431,2.4284,2.6174,2.7906,2.9373,2.9534,2.8312,2.5899,2.5385,2.4796,1.6039,1.6859,1.7617,1.7366,1.7308,1.7191,1.6793,0.0,0.0,0.0,0.0,0.0,0.0,0.0,0.0,1.8437,1.9394,2.0898,2.3807,2.7892,3.1302,3.3192,3.5367,3.6329,3.5381,3.3957,3.2786,3.1949,3.1267,3.0898,3.0898,3.1556,3.1911,3.1911,3.3332,3.4487,3.5288,3.5972,3.745,3.9697,3.9697,3.9697,3.9697,3.9697,3.9697,3.9697,3.9697,3.9697,3.9697,3.9697,3.9697,3.9697,3.9697,3.9697,3.9697,3.9697,3.9697,3.9697,3.9697,3.9697,3.9697,3.9697,3.9697,3.9569,3.8921,3.7663,3.6325,3.5508,3.3754,3.1911,3.1112,3.0898,3.0898,3.0898,3.0898,3.082,3.0566,3.0508,3.0449,3.0243,3.0204,3.0146,2.9931,2.8633,2.8073,2.9394,2.7691,2.6461,2.6919,2.5674,2.4359,2.3304,2.3202,2.3202,2.3202,2.3832,2.3853,2.2982,2.4489,2.5213,2.477,2.6101,2.7035,2.7431,2.8475,2.9498,3.0508,3.0214,2.9543,2.8486,2.7356,2.6859,1.5664,1.6859,1.803,1.7757,1.7812,1.7812,1.7399,0.0,0.0,0.0,0.0,0.0,0.0,1.6758,0.0,0.0,1.9727,2.2087,2.6408,2.909,3.1298,3.3184,3.5039,3.5921,3.5353,3.3782,3.2851,3.3077,3.1738,3.0995,3.1208,3.2416,3.3219,3.3445,3.4875,3.5645,3.5645,3.6865,3.8243,3.9697,3.9697,3.9747,3.9823,3.9823,3.9823,3.9823,3.9823,3.9772,3.9697,3.9697,3.9697,3.9697,3.9798,3.9772,3.9697,3.9798,3.9772,3.9697,3.9697,3.9697,3.9697,3.9697,3.9543,3.9129,3.7875,3.6325,3.4958,3.4958,3.2985,3.0898,3.0898,3.0898,3.0898,3.0898,3.0898,3.0898,3.0898,3.0898,3.0898,3.0898,3.0898,3.0762,3.0371,2.9267,2.8731,2.9655,2.7617,2.64,2.7602,2.6446,2.5514,2.5435,2.5418,2.5418,2.5418,2.686,2.7068,2.5463,2.6789,2.7111,2.5937,2.8398,2.997,3.0293,3.0293,3.0527,3.0996,2.998,3.0076,3.1153,2.8826,2.8642,1.6777,1.7793,1.8166,1.6735,1.6966,1.7363,1.6918,0.0,0.0,0.0,0.0,0.0,0.0,1.8266,1.8966,0.0,2.2656,2.462,2.7213,2.929,3.1028,3.242,3.3236,3.4094,3.5206,3.2843,3.1767,3.3021,3.1738,3.1441,3.2701,3.2964,3.3649,3.493,3.6406,3.716,3.716,3.7373,3.8243,3.9697,3.9697,3.9948,4.0374,4.0374,4.0374,4.0374,4.0374,4.0124,3.9697,3.9697,3.9697,3.9747,4.0199,4.0099,3.9747,4.0224,4.0099,3.9697,3.9697,3.9697,3.9697,3.9697,3.8868,3.7796,3.7583,3.5595,3.3445,3.3445,3.2207,3.0898,3.0898,3.0898,3.0898,3.0898,3.0898,3.0898,3.0898,3.0898,3.0898,3.0898,3.0898,3.0859,3.0801,3.0607,3.0529,3.0674,3.0316,2.9949,2.9794,2.8483,2.7412,2.7014,2.6979,2.6979,2.6979,2.868,2.9632,2.9327,2.9285,2.9285,2.9403,3.0238,3.0723,3.0781,3.0781,3.0996,3.1426,3.1197,3.0728,2.9959,2.9829,2.9982,1.6211,1.7129,1.7812,1.7246,1.8142,1.9002,1.8537,0.0,0.0,0.0,0.0,0.0,0.0,0.0,2.1172,2.3552,2.4824,2.6152,2.8066,2.9764,3.0995,3.1511,3.2491,3.3388,3.4041,3.29,3.2701,3.4181,3.367,3.3557,3.4236,3.5018,3.5786,3.646,3.7926,3.8834,3.9128,3.9128,3.947,4.0149,4.0149,4.0399,4.0926,4.0926,4.0775,4.0499,4.08,4.0625,4.0149,4.045,4.0374,4.0174,4.0399,4.0174,3.9722,3.9973,3.9898,3.9697,3.9697,3.9697,3.9569,3.8765,3.8034,3.7186,3.5595,3.4181,3.2936,3.215,3.1412,3.0898,3.0898,3.0898,3.0898,3.0898,3.0898,3.0898,3.0898,3.0898,3.0898,3.0898,3.0898,3.0898,3.0898,3.0898,3.0898,3.0898,3.0898,3.082,3.0605,2.9997,2.9485,2.9267,2.9248,2.9248,2.9248,3.0074,3.0566,3.0566,3.0391,3.04,3.0566,3.0781,3.0996,3.123,3.123,3.1445,3.1875,3.209,3.1918,3.1382,3.1766,3.1954,1.6172,1.6836,1.7656,1.8184,0.0,2.0156,2.0196,0.0,0.0,0.0,0.0,0.0,0.0,2.168,2.334,2.5503,2.6504,2.75,2.9004,3.0166,3.0894,3.0907,3.2207,3.3106,3.3106,3.3417,3.4069,3.5206,3.5288,3.5453,3.5809,3.6892,3.7663,3.8005,3.9227,4.0099,4.0501,4.0625,4.0675,4.0675,4.0675,4.0976,4.1503,4.1503,4.1304,4.0927,4.1327,4.1202,4.07,4.1001,4.0876,4.0499,4.0499,4.0249,3.9873,3.9747,3.9697,3.9697,3.9697,3.9697,3.9465,3.7981,3.7266,3.6514,3.3901,3.2851,3.235,3.1228,3.0898,3.0898,3.0898,3.0898,3.0898,3.0898,3.0898,3.0898,3.0898,3.0898,3.0898,3.0898,3.0898,3.0898,3.0898,3.0898,3.0918,3.1016,3.1035,3.1074,3.1172,3.1094,3.1035,3.1035,3.0957,3.0898,3.0898,3.0976,3.1035,3.1035,3.0937,3.0937,3.1035,3.1035,3.123,3.166,3.168,3.1875,3.2355,3.2637,3.2851,3.2949,3.3281,3.3476,1.8052,1.8166,1.8164,1.8984,0.0,0.0,2.0742,0.0,0.0,0.0,0.0,0.0,0.0,2.3711,2.52,2.6172,2.7695,2.9035,2.998,3.0183,3.0407,3.0849,3.2207,3.3106,3.3106,3.4348,3.5178,3.5288,3.5288,3.589,3.7266,3.7426,3.8137,3.9491,4.0122,4.0449,4.0499,4.1001,4.1225,4.1225,4.1225,4.158,4.2135,4.2135,4.211,4.206,4.2137,4.1781,4.1227,4.075,4.0524,4.0499,4.0499,4.0474,4.0374,3.9873,3.9697,3.9697,3.9697,3.9697,3.9465,3.7981,3.6568,3.5151,3.3564,3.215,3.1025,3.0928,3.0898,3.0898,3.0898,3.0898,3.0898,3.0898,3.0898,3.0898,3.0898,3.0898,3.0898,3.0898,3.0898,3.0898,3.0898,3.0898,3.1016,3.1406,3.1465,3.1621,3.2061,3.1719,3.1465,3.1465,3.1133,3.0898,3.0898,3.125,3.1465,3.1465,3.1113,3.1074,3.1416,3.1465,3.168,3.214,3.2159,3.2355,3.2754,3.2773,3.2988,3.3347,3.3386,3.3633,1.7369,1.7698,1.8223,1.9082,0.0,0.0,0.0,0.0,0.0,0.0,0.0,0.0,0.0,0.0,2.5937,2.7344,2.8555,2.9629,3.0508,3.0625,3.104,3.2129,3.3043,3.4196,3.5695,3.6629,3.7405,3.7976,3.8031,3.8293,3.8842,3.9164,3.9598,4.0173,4.0725,4.1204,4.1557,4.1758,4.2032,4.2359,4.2007,4.216,4.2688,4.2336,4.2213,4.2213,4.2213,4.1856,4.1327,4.148,4.1128,4.0449,4.0149,3.9998,3.9973,3.9772,3.9697,3.9697,3.9697,3.9103,3.8084,3.6595,3.5151,3.367,3.2178,3.1325,3.0898,3.0898,3.0898,3.0898,3.0898,3.0898,3.0898,3.0898,3.0898,3.0898,3.0898,3.0898,3.0898,3.0898,3.0898,3.0898,3.0898,3.0898,3.0937,3.1094,3.1133,3.1289,3.1699,3.1621,3.1621,3.1894,3.1807,3.171,3.171,3.1866,3.1944,3.1944,3.1807,3.1788,3.1914,3.1944,3.2159,3.2559,3.2559,3.2773,3.3184,3.3184,3.323,3.3406,3.3691,3.3938,1.7269,1.7542,1.8223,0.0,0.0,0.0,0.0,0.0,0.0,0.0,0.0,0.0,0.0,0.0,2.6596,2.8066,2.9513,3.0734,3.1494,3.2148,3.2929,3.394,3.4945,3.6011,3.7216,3.8476,3.9301,3.9516,3.9937,4.0224,4.0224,4.0549,4.075,4.075,4.1277,4.1781,4.2213,4.2389,4.2637,4.2989,4.2436,4.2386,4.2738,4.2389,4.2085,4.1934,4.1934,4.1681,4.1327,4.1555,4.1078,4.0224,3.9848,3.9697,3.9697,3.9697,3.9697,3.9645,3.9155,3.8348,3.7186,3.5233,3.3901,3.2822,3.1354,3.0898,3.0898,3.0898,3.0898,3.0898,3.0898,3.0898,3.0898,3.0898,3.0898,3.0898,3.0898,3.0898,3.0898,3.0898,3.0898,3.0898,3.0898,3.0898,3.0937,3.1074,3.1094,3.125,3.166,3.1719,3.1836,3.2179,3.2198,3.2198,3.2198,3.2316,3.2394,3.2394,3.2531,3.2531,3.2394,3.2394,3.2589,3.2988,3.2988,3.3144,3.3386,3.3386,3.3496,3.3633,3.3958,3.4251,1.8242,1.7991,1.8223,0.0,0.0,0.0,0.0,0.0,0.0,0.0,0.0,2.6894,2.6509,2.6763,2.7305,2.8191,3.0608,3.256,3.3043,3.4818,3.6084,3.6112,3.7887,3.8526,3.7093,3.9599,4.071,3.9216,4.0468,4.1302,4.1302,4.1327,4.1327,4.1327,4.1909,4.2213,4.2213,4.2738,4.3014,4.2989,4.2436,4.2213,4.2213,4.2213,4.1856,4.1302,4.1275,4.1275,4.1252,4.07,4.0199,3.9697,3.9697,3.9697,3.9697,3.9697,3.9697,3.9491,3.8005,3.7477,3.6999,3.4069,3.3077,3.2794,3.1325,3.0898,3.0898,3.0898,3.0898,3.0898,3.0898,3.0898,3.0898,3.0898,3.0898,3.0898,3.0898,3.0898,3.0898,3.0898,3.0898,3.0898,3.0898,3.0898,3.1035,3.1416,3.1474,3.168,3.214,3.2198,3.2198,3.2198,3.2218,3.2218,3.2218,3.2589,3.2793,3.2793,3.3184,3.3242,3.2812,3.2793,3.2988,3.3386,3.3386,3.3386,3.3406,3.3406,3.3652,3.4114,3.4114,3.4551,1.7715,1.7991,1.8773,2.0274,0.0,0.0,0.0,0.0,0.0,0.0,2.8945,2.8522,2.9157,2.9384,2.9647,3.0199,3.1475,3.256,3.3043,3.3941,3.5301,3.7417,3.888,3.9786,3.9977,4.1166,4.1568,4.0708,4.106,4.1302,4.1302,4.1706,4.1934,4.1934,4.2462,4.2763,4.2763,4.2914,4.3014,4.2989,4.2436,4.2213,4.2187,4.1381,4.1128,4.1277,4.0901,4.0725,4.07,4.0174,3.9848,3.9697,3.9697,3.9697,3.9569,3.8556,3.8792,3.9336,3.6811,3.5945,3.5645,3.3705,3.2387,3.1469,3.1025,3.0898,3.0898,3.0898,3.0898,3.0898,3.0898,3.0898,3.0898,3.0898,3.0898,3.0898,3.0898,3.0898,3.0898,3.0898,3.0898,3.0898,3.0898,3.0898,3.0937,3.1055,3.1074,3.123,3.166,3.2226,3.2598,3.2598,3.2871,3.3047,3.3047,3.3164,3.3242,3.3242,3.3328,3.3359,3.3242,3.3242,3.3269,3.3386,3.3386,3.3574,3.3887,3.3887,3.4101,3.4531,3.4844,3.5137,1.8418,1.8986,2.004,2.1796,2.3591,2.5562,2.8132,0.0,0.0,0.0,2.9785,2.9587,3.1007,3.1132,3.1339,3.2318,3.3577,3.4521,3.4808,3.601,3.7498,3.9277,4.0498,4.1394,4.1925,4.2311,4.2386,4.2007,4.1982,4.1982,4.1982,4.2336,4.2512,4.2512,4.2838,4.3014,4.3014,4.3014,4.3014,4.2989,4.2208,4.1831,4.1806,4.0927,4.0549,4.065,4.0299,4.0199,4.0174,3.9823,3.9697,3.9645,3.9051,3.9181,3.9439,3.7397,3.7557,3.84,3.5453,3.4431,3.4181,3.2701,3.1623,3.0918,3.1094,3.1133,3.1172,3.1348,3.1436,3.1436,3.1436,3.1436,3.1338,3.0976,3.0898,3.0898,3.0898,3.0898,3.0898,3.0898,3.0898,3.0898,3.0898,3.0898,3.0898,3.0898,3.0898,3.1055,3.1435,3.2109,3.2617,3.2773,3.3164,3.3359,3.3184,3.3164,3.3164,3.3164,3.3164,3.3242,3.3386,3.3386,3.3496,3.3672,3.3691,3.3887,3.4349,3.4349,3.4551,3.498,3.5254,3.5488,1.9708,2.0508,2.164,2.3457,2.5,2.6791,2.957,3.0234,3.04,3.0985,3.0463,3.0522,3.2502,3.2557,3.2868,3.4603,3.6347,3.7503,3.7551,3.9616,4.1166,4.1351,4.2333,4.3014,4.3014,4.3014,4.3014,4.3014,4.3014,4.3014,4.3014,4.3014,4.3014,4.3014,4.3014,4.3014,4.3014,4.3014,4.2989,4.2914,4.1804,4.125,4.1227,4.0675,4.0174,3.9697,3.9697,3.9697,3.9697,3.9697,3.9697,3.9543,3.8084,3.8321,3.9129,3.619,3.6027,3.6865,3.3944,3.3055,3.2934,3.1482,3.1016,3.1074,3.1465,3.1552,3.166,3.2081,3.2198,3.2198,3.2198,3.2198,3.2003,3.1221,3.1016,3.1016,3.1016,3.1016,3.1016,3.1016,3.1016,3.1016,3.1016,3.1016,3.1016,3.1016,3.1016,3.1152,3.1523,3.1934,3.2355,3.2695,3.3086,3.3164,3.2832,3.2793,3.2812,3.2851,3.2851,3.3027,3.3367,3.3386,3.3613,3.4036,3.4095,3.431,3.4707,3.4746,3.5,3.5449,3.5449,3.5664,1.9219,2.0312,2.1796,2.4222,2.6803,2.9004,2.998,3.0488,3.109,3.2366,3.2478,3.3197,3.5902,3.634,3.64,3.6811,3.7222,3.7673,3.8078,3.8971,4.0181,4.1798,4.2587,4.3014,4.3014,4.3014,4.3014,4.3014,4.3014,4.3014,4.3014,4.3014,4.3014,4.3014,4.3014,4.3014,4.3014,4.3014,4.2788,4.2361,4.1628,4.1076,4.065,4.0124,3.9798,3.9697,3.9697,3.9697,3.9697,3.9697,3.9697,3.9543,3.8084,3.769,3.761,3.4681,3.4515,3.5411,3.2769,3.2601,3.3376,3.2296,3.1925,3.1944,3.2042,3.2061,3.2081,3.2179,3.2198,3.2198,3.2198,3.2198,3.2159,3.1964,3.1925,3.1925,3.1925,3.1925,3.1925,3.1925,3.1925,3.1925,3.1925,3.1925,3.1925,3.1925,3.1925,3.1964,3.2042,3.214,3.2237,3.2316,3.2413,3.257,3.2773,3.2793,3.293,3.323,3.3281,3.332,3.3386,3.3386,3.3457,3.3555,3.3906,3.431,3.4707,3.5059,3.5469,3.5879,3.5879,3.5937,1.9569,2.1152,2.3184,2.6172,2.8269,2.9755,3.0391,3.0723,3.1527,3.3698,3.3592,3.4013,3.6972,3.7503,3.7743,3.8427,3.8776,3.902,3.9313,4.0049,4.0988,4.208,4.2663,4.3014,4.3014,4.3014,4.3014,4.3014,4.3014,4.3014,4.3014,4.3014,4.3014,4.3014,4.3014,4.2889,4.2612,4.2612,4.2336,4.1756,4.1177,4.0625,4.0124,3.9823,3.9697,3.9697,3.9697,3.9697,3.9697,3.9697,3.9697,3.9465,3.729,3.6865,3.7076,3.3593,3.327,3.4282,3.2474,3.2336,3.2922,3.2373,3.2198,3.2237,3.2433,3.2511,3.255,3.2715,3.2773,3.2773,3.2773,3.2773,3.2773,3.2773,3.2492,3.2198,3.2198,3.2198,3.2198,3.2198,3.2198,3.2198,3.2198,3.2198,3.2198,3.2198,3.2198,3.2198,3.2198,3.2374,3.2511,3.2511,3.2656,3.2773,3.2793,3.2793,3.2891,3.3105,3.3125,3.3203,3.3386,3.3386,3.3516,3.373,3.416,3.4473,3.4707,3.5176,3.5391,3.5391,3.5391,3.5508,1.9921,2.215,2.4805,2.8059,2.9238,2.9833,3.0684,3.1112,3.2055,3.4736,3.432,3.4376,3.732,3.7875,3.8269,3.9491,4.0149,4.0524,4.0625,4.1557,4.2238,4.2338,4.2738,4.3014,4.3014,4.3014,4.3014,4.3014,4.3014,4.3014,4.3014,4.3014,4.3014,4.3014,4.3014,4.2738,4.2213,4.2213,4.1858,4.1177,4.0625,4.0149,3.9697,3.9697,3.9697,3.9697,3.9697,3.9697,3.9697,3.9697,3.9543,3.9051,3.644,3.5977,3.6428,3.2907,3.2384,3.3317,3.2563,3.2316,3.2316,3.2394,3.2413,3.2472,3.2793,3.291,3.2969,3.332,3.3386,3.3386,3.3386,3.3386,3.3386,3.3386,3.2891,3.2413,3.2413,3.2413,3.2413,3.2413,3.2413,3.2413,3.2413,3.2413,3.2413,3.2413,3.2413,3.2413,3.2413,3.2617,3.2793,3.2793,3.3047,3.3086,3.2812,3.2793,3.2832,3.2891,3.291,3.3066,3.3367,3.3386,3.3594,3.3977,3.4375,3.459,3.459,3.5059,3.5078,3.4707,3.4785,3.5019,1.912,2.215,2.5571,2.8215,2.9238,2.9833,3.0684,3.1883,3.3275,3.4958,3.5123,3.589,3.8868,3.9413,3.9465,3.9671,4.0149,4.065,4.1127,4.1756,4.2361,4.2838,4.2964,4.3014,4.3014,4.3014,4.3014,4.3014,4.3014,4.3014,4.3014,4.3014,4.3014,4.3014,4.3014,4.2738,4.2213,4.2213,4.1658,4.06,4.0074,3.9772,3.9697,3.9697,3.9697,3.9697,3.9697,3.9697,3.9697,3.9697,3.8947,3.7658,3.6319,3.5156,3.4053,3.2625,3.2222,3.2432,3.2651,3.2715,3.2773,3.3144,3.323,3.3262,3.3289,3.3308,3.3308,3.3367,3.3386,3.3386,3.3386,3.3386,3.3386,3.3386,3.3308,3.323,3.323,3.323,3.323,3.323,3.323,3.323,3.323,3.323,3.323,3.323,3.323,3.323,3.323,3.2988,3.2793,3.2793,3.255,3.2492,3.2773,3.2793,3.2949,3.332,3.3308,3.3328,3.3386,3.3386,3.3425,3.3496,3.3945,3.4192,3.4192,3.459,3.4766,3.4707,3.5117,3.5332,2.0352,2.2717,2.5063,2.7871,2.8887,2.9636,3.1333,3.2457,3.3761,3.6081,3.6541,3.7183,3.931,3.9697,3.9697,3.9697,4.0399,4.1026,4.1277,4.2082,4.2738,4.2964,4.3014,4.3014,4.3014,4.3014,4.3014,4.3014,4.3014,4.3014,4.3014,4.3014,4.2864,4.2562,4.2537,4.2135,4.1254,4.1229,4.0852,4.0049,3.9798,3.9697,3.9697,3.9697,3.9697,3.9697,3.9697,3.9697,3.9722,4.0023,3.9758,3.8992,3.7099,3.5953,3.5157,3.3236,3.255,3.2578,3.3008,3.3144,3.3184,3.3328,3.3386,3.3386,3.3386,3.3386,3.3386,3.3386,3.3386,3.3386,3.3386,3.3386,3.3386,3.3386,3.3386,3.3386,3.3386,3.3386,3.3386,3.3386,3.3386,3.3386,3.3386,3.3386,3.3386,3.3386,3.3386,3.3386,3.3386,3.3262,3.3144,3.3144,3.2988,3.2949,3.3125,3.3144,3.3223,3.3386,3.3386,3.3386,3.3386,3.3386,3.3386,3.3386,3.3848,3.3977,3.3711,3.4141,3.4336,3.4388,3.4603,3.4922,2.0762,2.2402,2.3809,2.6602,2.8213,2.9628,3.1627,3.3078,3.4692,3.7029,3.7796,3.84,3.9491,3.9697,3.9697,3.9697,4.0501,4.1152,4.1275,4.2158,4.2838,4.2989,4.3014,4.2939,4.2813,4.2788,4.2738,4.2585,4.2559,4.2559,4.2559,4.2559,4.2384,4.1984,4.1984,4.1507,4.0499,4.0349,4.0099,3.9697,3.9697,3.9697,3.9697,3.931,3.9436,3.9898,3.9747,3.9772,3.9897,3.9879,3.9755,3.9337,3.7116,3.6049,3.55,3.3616,3.2949,3.3008,3.332,3.3386,3.3386,3.3386,3.3386,3.3386,3.3386,3.3386,3.3386,3.3386,3.3496,3.3594,3.3594,3.3672,3.3718,3.3718,3.3718,3.3659,3.3445,3.3386,3.3386,3.3386,3.3386,3.3386,3.3386,3.3386,3.3386,3.3386,3.3386,3.3386,3.3386,3.3386,3.3386,3.3386,3.3386,3.3386,3.3386,3.3386,3.3386,3.3386,3.3503,3.3594,3.3594,3.3691,3.3718,3.3718,3.4062,3.4023,3.3594,3.3938,3.4153,3.4271,3.4388,3.4798,1.8865,2.0391,2.1874,2.4059,2.7138,2.9925,3.0953,3.393,3.6701,3.7358,3.8608,3.962,3.9697,3.9697,3.9697,3.9697,4.0174,4.0725,4.1227,4.1831,4.2411,4.2939,4.3014,4.2788,4.2313,4.2263,4.2009,4.1428,4.1403,4.1403,4.1403,4.1403,4.1378,4.1352,4.1352,4.1076,4.0499,3.9998,3.9722,3.9697,3.9697,3.9697,3.9671,3.8243,3.8666,4.0424,3.9923,3.9998,4.0344,3.8833,3.7701,3.6773,3.555,3.4248,3.301,3.3285,3.3347,3.3367,3.3386,3.3386,3.3386,3.3386,3.3386,3.3386,3.3386,3.3386,3.3386,3.3386,3.3711,3.4075,3.4075,3.4336,3.4629,3.4629,3.4629,3.4414,3.3562,3.3386,3.3386,3.3386,3.3386,3.3386,3.3386,3.3386,3.3386,3.3386,3.3386,3.3386,3.3386,3.3386,3.3386,3.3386,3.3386,3.3386,3.3386,3.3386,3.3386,3.3386,3.3809,3.4075,3.4075,3.4414,3.4629,3.4629,3.4648,3.4453,3.4075,3.4095,3.431,3.4668,3.5117,3.5351,1.8184,1.9609,2.1191,2.2771,2.5561,2.8476,3.0658,3.3754,3.6566,3.81,3.9087,3.9697,3.9697,3.9697,3.9697,3.9697,4.045,4.1102,4.125,4.2108,4.2663,4.2487,4.2487,4.2261,4.1681,4.163,4.1528,4.1327,4.1302,4.1302,4.1302,4.1302,4.1152,4.08,4.0775,4.0524,3.9998,3.9798,3.9697,3.9697,3.9697,3.9873,4.0198,3.9676,4.0025,4.1001,4.08,4.0267,3.9388,3.8171,3.7461,3.7027,3.593,3.5178,3.4605,3.3717,3.3386,3.3386,3.3386,3.3386,3.3386,3.3386,3.3386,3.3476,3.375,3.3848,3.3887,3.416,3.4355,3.4473,3.4473,3.459,3.4707,3.4707,3.4707,3.4609,3.4316,3.4238,3.4238,3.4238,3.4238,3.4238,3.4238,3.4238,3.4141,3.3887,3.4062,3.4141,3.3867,3.4082,3.4141,3.3867,3.3848,3.3848,3.3848,3.3848,3.3965,3.4219,3.4394,3.4473,3.4473,3.4609,3.4707,3.4707,3.4707,3.4629,3.4473,3.4473,3.4707,3.5156,3.5312,3.5527,1.7324,0.0,0.0,2.1523,2.4154,2.7237,3.0478,3.338,3.6111,3.8416,3.9195,3.9497,3.9672,3.9697,3.9697,3.9697,4.03,4.0826,4.1001,4.1681,4.211,4.1934,4.1909,4.1656,4.1102,4.1026,4.0951,4.0775,4.075,4.075,4.075,4.075,4.06,4.0249,4.0249,4.0074,3.9697,3.9697,3.9697,3.9697,3.9873,4.0174,4.0499,4.0172,4.0598,4.1524,3.9944,3.9228,3.9112,3.79,3.7192,3.6717,3.5487,3.4995,3.484,3.3776,3.3386,3.3386,3.3386,3.3386,3.3406,3.3594,3.3633,3.373,3.416,3.431,3.4368,3.4609,3.4805,3.4922,3.4922,3.5039,3.5137,3.5137,3.5137,3.5137,3.5137,3.4902,3.4707,3.4707,3.4707,3.4707,3.4707,3.4707,3.4609,3.4349,3.4531,3.459,3.4349,3.4531,3.459,3.4349,3.431,3.431,3.431,3.431,3.4394,3.4687,3.4844,3.4922,3.4922,3.5059,3.5137,3.5137,3.5137,3.5137,3.5137,3.5,3.5156,3.5605,3.5605,3.5742,0.0,0.0,0.0,0.0,2.3015,2.6365,3.017,3.2857,3.5355,3.8215,3.8793,3.8994,3.9572,3.9697,3.9697,3.9697,3.9697,3.9898,4.0424,4.0499,4.07,4.1227,4.1277,4.1076,4.0524,4.0474,4.0275,3.9747,3.9697,3.9697,3.9697,3.9697,3.9697,3.9697,3.9697,3.9697,3.9697,3.9722,3.9722,3.9722,4.0275,4.0524,4.0523,3.9625,4.0296,4.1966,3.7396,3.7104,3.9689,3.7972,3.6649,3.556,3.4027,3.3386,3.3386,3.3386,3.3386,3.3386,3.3386,3.3406,3.3516,3.3945,3.4114,3.4192,3.459,3.4726,3.4726,3.4726,3.5059,3.541,3.541,3.5723,3.5982,3.5982,3.5982,3.5982,3.5982,3.5351,3.4746,3.4746,3.4746,3.4746,3.4746,3.4746,3.4726,3.4726,3.4726,3.4726,3.4726,3.4726,3.4726,3.4726,3.4726,3.4726,3.4726,3.4726,3.4726,3.4746,3.5156,3.541,3.541,3.5801,3.5982,3.5982,3.5982,3.5982,3.5982,3.5605,3.5625,3.5982,3.5982,3.5982,1.8063,0.0,0.0,0.0,0.0,0.0,2.6878,2.9293,3.2164,3.5707,3.6434,3.7112,3.9295,3.9697,3.9697,3.9697,4.0023,4.035,4.0474,4.0826,4.1001,4.075,4.0725,4.0499,3.9973,3.9923,3.9848,3.9697,3.9697,3.9697,3.9697,3.9697,3.9697,3.9697,3.9697,3.9697,3.9697,4.0099,4.03,4.03,4.0826,4.1329,4.1733,4.1477,4.1878,4.2707,4.1399,4.0664,4.009,3.6134,3.4324,3.4007,3.3576,3.3386,3.3386,3.3386,3.3386,3.3386,3.3386,3.3633,3.3938,3.4055,3.431,3.4609,3.5059,3.5195,3.5273,3.5566,3.5742,3.5806,3.5806,3.5937,3.5982,3.5982,3.5982,3.5982,3.5982,3.582,3.5644,3.5644,3.5644,3.5644,3.5644,3.5644,3.5547,3.5254,3.5195,3.5195,3.5195,3.5195,3.5195,3.5195,3.5195,3.5195,3.5195,3.5195,3.5332,3.5644,3.5781,3.5806,3.5806,3.5923,3.5982,3.5982,3.5982,3.5982,3.5982,3.5898,3.5898,3.5982,3.5982,3.5982,0.0,0.0,0.0,0.0,0.0,0.0,2.6533,2.8493,3.0809,3.4405,3.5332,3.6158,3.8266,3.8843,3.9069,3.9346,3.9823,4.0174,4.0174,4.045,4.0499,4.0199,4.0174,4.0049,3.9722,3.9697,3.9697,3.9697,3.9697,3.9697,3.9697,3.9697,3.9697,3.9697,3.9697,3.9798,4.0023,4.035,4.06,4.0826,4.143,4.1856,4.2213,4.2411,4.2688,4.2958,4.2291,4.1472,4.0332,3.6842,3.5396,3.5396,3.5396,3.4984,3.4414,3.4414,3.4115,3.3691,3.3691,3.3965,3.4388,3.4603,3.4785,3.5078,3.5527,3.5664,3.5703,3.5923,3.5982,3.5982,3.5982,3.5982,3.5982,3.5982,3.5982,3.5982,3.5982,3.5982,3.5982,3.5982,3.5982,3.5982,3.5982,3.5982,3.5937,3.5684,3.5664,3.5664,3.5664,3.5664,3.5664,3.5664,3.5664,3.5664,3.5664,3.5664,3.5762,3.5996,3.5982,3.5982,3.5982,3.5982,3.5982,3.5982,3.5982,3.5982,3.5982,3.5982,3.5982,3.5982,3.5982,3.5982,0.0,0.0,0.0,0.0,0.0,0.0,2.7511,2.8861,3.0306,3.3423,3.4452,3.5205,3.6584,3.7211,3.7739,3.8341,3.8994,3.9471,3.9672,3.9697,3.9697,3.9697,3.9697,3.9697,3.9697,3.9697,3.9697,3.9697,3.9697,3.9697,3.9697,3.9697,3.9697,3.9697,3.9747,4.0023,4.0501,4.0651,4.0926,4.1403,4.2009,4.2313,4.2313,4.2788,4.3014,4.293,4.1476,4.0851,4.0765,3.9317,3.8521,3.8194,3.8015,3.7062,3.5775,3.5654,3.4967,3.4114,3.4153,3.4414,3.4844,3.5254,3.543,3.5527,3.5898,3.5982,3.5982,3.5982,3.5982,3.5982,3.5982,3.5982,3.5982,3.5982,3.5982,3.5982,3.5982,3.5982,3.5982,3.5982,3.5982,3.5982,3.5982,3.5982,3.5982,3.5982,3.5942,3.5942,3.5982,3.5942,3.5942,3.6016,3.5982,3.5982,3.5982,3.5982,3.5982,3.5982,3.5982,3.5982,3.5982,3.5982,3.5982,3.5982,3.5982,3.5982,3.5982,3.5982,3.5982,3.5982,3.5982,3.5982,2.33,2.4173,2.4884,0.0,0.0,0.0,2.5161,2.6077,2.7688,2.9634,3.0091,3.109,3.3997,3.4625,3.4876,3.5431,3.6734,3.8165,3.9496,3.9697,3.9697,3.9697,3.9697,3.9697,3.9697,3.9697,3.9697,3.9697,3.9697,3.9697,3.9697,3.9697,3.9697,3.9697,4.0124,4.0374,4.0499,4.1431,4.1909,4.2034,4.2587,4.2838,4.2838,4.2964,4.3014,4.2986,4.2681,4.2516,4.2513,4.2206,4.0534,3.8074,3.676,3.6081,3.5694,3.4785,3.4273,3.4153,3.4453,3.4883,3.5273,3.5371,3.5625,3.5918,3.5962,3.5982,3.5982,3.5982,3.5982,3.5982,3.5982,3.5982,3.5982,3.5982,3.5982,3.5982,3.5982,3.5982,3.5982,3.5982,3.5982,3.5982,3.5982,3.5982,3.5982,3.5982,3.5723,3.5644,3.5976,3.5723,3.5644,3.5996,3.5982,3.5982,3.5982,3.5982,3.5982,3.5982,3.5982,3.5982,3.5982,3.5982,3.5982,3.5982,3.5982,3.5982,3.5982,3.5982,3.5982,3.5982,3.5982,3.5982,2.4881,2.5607,2.6382,2.7069,0.0,0.0,0.0,2.6281,2.7052,2.8976,2.8907,2.9258,3.1788,3.2466,3.2918,3.3771,3.5755,3.7411,3.7964,3.8994,3.9697,3.9697,3.9697,3.9697,3.9697,3.9697,3.9697,3.9697,3.9697,3.9697,3.9697,3.9697,3.9823,4.0099,4.0375,4.0777,4.1329,4.1909,4.2311,4.2587,4.2864,4.3014,4.3014,4.3014,4.3014,4.3014,4.3014,4.3014,4.3014,4.3014,4.1704,3.9604,3.8588,3.7848,3.72,3.5799,3.5079,3.4798,3.498,3.5332,3.5703,3.5703,3.5859,3.5982,3.5982,3.5982,3.5982,3.5982,3.5982,3.5982,3.5982,3.6172,3.6348,3.6348,3.6504,3.666,3.666,3.666,3.666,3.666,3.666,3.6523,3.606,3.5982,3.5982,3.5982,3.584,3.5781,3.5962,3.584,3.5781,3.5962,3.5982,3.5982,3.5982,3.5982,3.5982,3.5982,3.5982,3.5982,3.5982,3.5982,3.6113,3.6348,3.6348,3.6445,3.666,3.666,3.6445,3.6035,3.625,3.6348,0.0,0.0,0.0,0.0,0.0,2.7462,0.0,0.0,0.0,2.8693,2.8348,2.8247,2.9704,3.0306,3.0954,3.1984,3.4371,3.5929,3.5502,3.7361,3.8843,3.917,3.9396,3.9546,3.9546,3.9346,3.9346,3.9672,3.9396,3.9346,3.9672,3.9697,3.9948,4.0474,4.06,4.1153,4.2213,4.2286,4.2562,4.3014,4.3014,4.3014,4.3014,4.3014,4.3014,4.3014,4.3014,4.3014,4.3014,4.3115,4.2573,4.1622,4.0639,3.957,3.8354,3.6834,3.5921,3.541,3.5488,3.5742,3.5982,3.5982,3.5982,3.5982,3.5982,3.5982,3.5982,3.5982,3.6074,3.6152,3.6152,3.6465,3.6832,3.6832,3.7051,3.7305,3.7305,3.7305,3.7305,3.7305,3.7305,3.707,3.6387,3.6269,3.6196,3.6152,3.6152,3.6113,3.6001,3.5982,3.5982,3.5982,3.5982,3.5982,3.5982,3.5982,3.6055,3.6133,3.6152,3.6191,3.6269,3.6269,3.6426,3.6812,3.6832,3.6988,3.7305,3.7305,3.6953,3.6269,3.6621,3.6832,0.0,0.0,0.0,0.0,2.988,0.0,0.0,0.0,0.0,2.6314,0.0,2.6901,2.7562,0.0,0.0,2.8574,3.0583,3.206,3.1984,3.3872,3.583,3.7287,3.8391,3.8994,3.8994,3.809,3.8115,3.9597,3.8316,3.8115,3.9622,3.9697,3.9948,4.0474,4.0976,4.153,4.2213,4.2663,4.2939,4.3014,4.3014,4.3014,4.3014,4.3014,4.3014,4.3014,4.3014,4.3014,4.3039,4.3514,4.3626,4.3222,4.027,3.8358,3.7159,3.5949,3.5459,3.5449,3.582,3.5942,3.5982,3.5982,3.5982,3.5982,3.5982,3.5982,3.5982,3.5982,3.6289,3.6636,3.6636,3.6914,3.7226,3.7226,3.7266,3.7305,3.7305,3.7305,3.7305,3.7305,3.7305,3.7266,3.7168,3.7148,3.7031,3.6695,3.6636,3.6465,3.604,3.5982,3.5982,3.5982,3.5982,3.5982,3.5982,3.5982,3.6191,3.6597,3.6636,3.6758,3.7129,3.7148,3.7168,3.7226,3.7226,3.7246,3.7305,3.7305,3.7246,3.7148,3.7207,3.7226,0.0,0.0,0.0,0.0,0.0,0.0,2.7645,0.0,2.664,0.0,0.0,0.0,0.0,0.0,0.0,0.0,2.9754,3.116,3.0557,3.2089,3.3875,3.5554,3.6182,3.6709,3.7386,3.7009,3.7436,3.912,3.7989,3.7914,3.9597,3.9697,4.0099,4.0951,4.1202,4.1729,4.2663,4.2889,4.3014,4.3014,4.3014,4.3014,4.3014,4.3014,4.3014,4.3014,4.3014,4.319,4.3463,4.3714,4.3594,4.3141,4.1768,4.0268,3.8795,3.7355,3.6376,3.5781,3.5923,3.5982,3.5982,3.5982,3.5982,3.5982,3.5982,3.6191,3.6406,3.6406,3.6699,3.7031,3.7031,3.7344,3.7656,3.7656,3.7851,3.8047,3.8047,3.8047,3.8047,3.8047,3.8047,3.8047,3.8047,3.7617,3.7226,3.7051,3.7031,3.6973,3.6777,3.6758,3.6758,3.6758,3.6758,3.6758,3.6758,3.6758,3.6836,3.7031,3.7031,3.7109,3.7285,3.7305,3.7402,3.7656,3.7656,3.7793,3.8047,3.8047,3.8047,3.8027,3.7773,3.7656,3.1409,0.0,0.0,0.0,0.0,0.0,0.0,0.0,0.0,0.0,0.0,0.0,0.0,0.0,0.0,0.0,0.0,3.0382,2.9453,3.0206,3.1587,3.3549,3.4201,3.4876,3.5854,3.5527,3.608,3.8065,3.7034,3.7235,3.9371,3.9622,4.0199,4.1277,4.1453,4.2007,4.2989,4.3014,4.3014,4.3014,4.3014,4.3014,4.3014,4.3165,4.324,4.324,4.3363,4.3664,4.4041,4.4192,4.3993,4.3602,4.3266,4.2087,4.0336,3.869,3.719,3.5982,3.5982,3.5982,3.5982,3.5982,3.6094,3.6191,3.6191,3.6504,3.6871,3.6871,3.7148,3.7461,3.7461,3.7793,3.8105,3.8105,3.834,3.8611,3.8611,3.8611,3.8611,3.8611,3.8611,3.8611,3.8611,3.8102,3.7598,3.748,3.7461,3.7422,3.7305,3.7305,3.7305,3.7305,3.7305,3.7305,3.7305,3.7305,3.7344,3.7461,3.7578,3.7656,3.7656,3.7656,3.7793,3.8105,3.8105,3.8262,3.8611,3.8611,3.8611,3.8611,3.8242,3.8105,0.0,0.0,0.0,3.1416,0.0,0.0,0.0,0.0,2.9503,0.0,0.0,0.0,0.0,0.0,0.0,0.0,0.0,0.0,0.0,2.7745,2.8467,3.116,3.2943,3.4148,3.4703,3.3273,3.3495,3.6282,3.4951,3.5452,3.8743,3.9421,4.0199,4.1277,4.1884,4.2436,4.2989,4.3014,4.3014,4.3014,4.3014,4.3014,4.3014,4.3539,4.3765,4.379,4.4313,4.4564,4.4614,4.5196,4.5417,4.5285,4.4133,4.2652,4.0966,3.9235,3.7488,3.5982,3.5982,3.5982,3.5982,3.5982,3.6309,3.6675,3.6675,3.6953,3.7266,3.7266,3.7578,3.7874,3.7874,3.8223,3.8591,3.8591,3.8591,3.8611,3.8611,3.8611,3.8611,3.8611,3.8611,3.8611,3.8611,3.8591,3.8398,3.7969,3.7874,3.7718,3.7344,3.7305,3.7305,3.7305,3.7305,3.7305,3.7305,3.7305,3.7461,3.7835,3.8301,3.8571,3.8571,3.8571,3.8571,3.8591,3.8591,3.8591,3.8611,3.8611,3.8611,3.8611,3.8591,3.8591,0.0,0.0,3.6434,3.352,0.0,0.0,0.0,0.0,0.0,0.0,0.0,0.0,0.0,0.0,0.0,0.0,0.0,0.0,0.0,0.0,2.6809,0.0,0.0,0.0,3.2441,3.2319,3.3197,3.5631,3.4954,3.573,3.8743,3.907,3.9823,4.1252,4.1503,4.2057,4.2989,4.3014,4.3014,4.3014,4.3338,4.3514,4.3539,4.4091,4.4313,4.4342,4.4514,4.4844,4.5221,4.5422,4.5698,4.599,4.5597,4.4374,4.2517,3.966,3.7508,3.6021,3.6348,3.6445,3.6504,3.6777,3.6973,3.709,3.709,3.7383,3.7715,3.7715,3.8027,3.8359,3.8359,3.8457,3.8611,3.8611,3.8611,3.8611,3.8611,3.8611,3.8611,3.8611,3.8611,3.8611,3.8611,3.8611,3.8571,3.8379,3.8359,3.8301,3.8164,3.8144,3.8144,3.8144,3.8144,3.8144,3.8144,3.8144,3.8203,3.834,3.8496,3.8611,3.8611,3.8611,3.8611,3.8611,3.8611,3.8611,3.8611,3.8611,3.8611,3.8611,3.8611,3.8611,3.7638,3.809,0.0,3.5655,3.4926,0.0,3.1788,0.0,0.0,0.0,0.0,0.0,0.0,0.0,0.0,0.0,0.0,0.0,0.0,2.618,0.0,0.0,0.0,0.0,0.0,3.0884,3.1742,3.4151,3.3649,3.4527,3.7538,3.8266,3.932,4.0976,4.1403,4.2057,4.2989,4.319,4.3263,4.3291,4.384,4.4091,4.4116,4.4669,4.4945,4.4945,4.5116,4.5447,4.5773,4.5773,4.5999,4.624,4.5641,4.4312,4.2549,4.0343,3.8125,3.6309,3.6738,3.6894,3.6968,3.7207,3.7402,3.7519,3.7519,3.7812,3.8164,3.8164,3.8359,3.8611,3.8611,3.8611,3.8611,3.8611,3.8611,3.8611,3.8611,3.8611,3.8611,3.8611,3.8611,3.8611,3.8611,3.8611,3.8611,3.8611,3.8611,3.8611,3.8611,3.8611,3.8611,3.8611,3.8611,3.8611,3.8611,3.8611,3.8611,3.8611,3.8611,3.8611,3.8611,3.8611,3.8611,3.8611,3.8611,3.8611,3.8611,3.8611,3.8611,3.8611,3.8611,3.8611]},{"header":{"parameterUnit":"m.s-1","parameterCategory":1,"la1":30.6,"la2":29.2853,"lo1":-89.7004,"lo2":-87.6739,"dy":0.0162,"dx":0.0183,"nx":112,"ny":82,"refTime":"2026-03-27T12:00:00:Z","depth":0,"parameterNumber":3,"parameterNumberName":"V-component_of_WINDS"},"data":[0.0,0.0,0.0,0.0,0.0,0.0,0.0,0.0,0.0,0.0,0.0,0.0,0.0,0.0,0.0,0.0,0.0,0.0,0.0,0.0,0.0,0.0,0.0,0.0,0.0,0.0,0.0,0.0,0.0,0.0,0.0,0.0,0.0,0.0,0.0,0.0,0.0,0.0,0.0,0.0,0.0,0.0,0.0,0.0,0.0,0.0,0.0,0.0,0.0,0.0,0.0,0.0,0.0,0.0,0.0,0.0,0.0,0.0,0.0,0.0,0.0,0.0,0.0,0.0,0.0,0.0,0.0,0.0,0.0,0.0,0.0,0.0,0.0,0.0,0.0,0.0,0.0,0.0,0.0,0.0,0.0,0.0,0.0,0.0,0.0,0.0,0.0,0.0,0.0,0.0,0.0,2.1626,2.2507,2.3435,2.4258,2.3181,2.1582,1.9452,0.0,0.0,0.0,0.0,0.0,0.0,0.0,0.0,0.0,0.0,0.0,0.0,0.0,0.0,0.0,0.0,0.0,0.0,0.0,0.0,0.0,0.0,0.0,0.0,0.0,0.0,0.0,0.0,0.0,0.0,0.0,0.0,0.0,0.0,0.0,0.0,0.0,0.0,0.0,0.0,0.0,0.0,0.0,0.0,0.0,0.0,0.0,0.0,0.0,0.0,0.0,0.0,0.0,0.0,0.0,0.0,0.0,0.0,0.0,0.0,0.0,0.0,0.0,0.0,0.0,0.0,0.0,0.0,0.0,0.0,0.0,0.0,0.0,0.0,0.0,0.0,0.0,0.0,0.0,0.0,0.0,0.0,0.0,0.0,0.0,0.0,0.0,0.0,0.0,0.0,0.0,0.0,0.0,0.0,0.0,0.0,0.0,0.0,0.0,0.0,0.0,0.0,0.0,0.0,2.047,2.3133,2.323,2.3318,2.3848,2.3047,2.1582,1.9452,0.0,0.0,0.0,0.0,0.0,0.0,0.0,0.0,0.0,0.0,0.0,0.0,0.0,0.0,0.0,0.0,0.0,0.0,0.0,0.0,0.0,0.0,0.0,0.0,0.0,0.0,0.0,0.0,0.0,0.0,0.0,0.0,0.0,0.0,0.0,0.0,0.0,0.0,0.0,0.0,0.0,0.0,0.0,0.0,0.0,0.0,0.0,0.0,0.0,0.0,0.0,0.0,0.0,0.0,0.0,0.0,0.0,0.0,0.0,0.0,0.0,0.0,0.0,0.0,0.0,0.0,0.0,0.0,0.0,0.0,0.0,0.0,0.0,0.0,0.0,0.0,0.0,0.0,0.0,0.0,0.0,0.0,0.0,0.0,0.0,0.0,0.0,0.0,0.0,0.0,0.0,0.0,0.0,0.0,0.0,0.0,0.0,0.0,0.0,0.0,0.0,0.0,0.0,2.1446,2.1667,2.5209,2.4084,2.3298,2.375,2.3008,2.1765,2.0014,1.8623,0.0,0.0,0.0,0.0,0.0,0.0,0.0,0.0,0.0,0.0,0.0,0.0,0.0,0.0,0.0,0.0,0.0,0.0,0.0,0.0,0.0,0.0,0.0,0.0,0.0,0.0,0.0,0.0,0.0,0.0,0.0,0.0,0.0,0.0,0.0,0.0,0.0,0.0,0.0,0.0,0.0,0.0,0.0,0.0,0.0,0.0,0.0,0.0,0.0,0.0,0.0,0.0,0.0,0.0,0.0,0.0,0.0,0.0,0.0,0.0,0.0,0.0,0.0,0.0,0.0,0.0,0.0,0.0,0.0,0.0,0.0,0.0,0.0,0.0,0.0,0.0,0.0,0.0,0.0,0.0,0.0,0.0,0.0,0.0,0.0,0.0,0.0,0.0,0.0,0.0,0.0,0.0,0.0,0.0,0.0,0.0,0.0,0.0,0.0,0.0,0.0,0.0,2.3248,2.3148,2.5869,2.4328,2.3259,2.3613,2.2656,2.159,2.0478,1.8927,0.0,0.0,0.0,0.0,0.0,0.0,0.0,0.0,0.0,0.0,0.0,0.0,0.0,0.0,0.0,0.0,0.0,0.0,0.0,0.0,0.0,0.0,0.0,0.0,0.0,0.0,0.0,0.0,0.0,0.0,0.0,0.0,0.0,0.0,0.0,0.0,0.0,0.0,0.0,0.0,0.0,0.0,0.0,0.0,0.0,0.0,0.0,0.0,0.0,0.0,0.0,0.0,0.0,0.0,0.0,0.0,0.0,0.0,0.0,0.0,0.0,0.0,0.0,0.0,0.0,0.0,0.0,0.0,0.0,0.0,0.0,0.0,0.0,0.0,0.0,0.0,0.0,0.0,0.0,0.0,0.0,0.0,0.0,0.0,0.0,0.0,0.0,0.0,0.0,0.0,0.0,0.0,0.0,0.0,0.0,0.0,0.0,0.0,0.0,0.0,0.0,0.0,2.2341,2.3701,2.341,2.321,2.3101,2.3162,2.166,2.0636,2.0416,1.8489,0.0,0.0,0.0,0.0,0.0,0.0,0.0,0.0,0.0,0.0,0.0,0.0,0.0,0.0,0.0,0.0,0.0,0.0,0.0,0.0,0.0,0.0,0.0,0.0,0.0,0.0,0.0,0.0,0.0,0.0,0.0,0.0,0.0,0.0,0.0,0.0,0.0,0.0,0.0,0.0,0.0,0.0,0.0,0.0,0.0,0.0,0.0,0.0,0.0,0.0,0.0,0.0,0.0,0.0,0.0,0.0,0.0,0.0,0.0,0.0,0.0,0.0,0.0,0.0,0.0,0.0,0.0,0.0,0.0,0.0,0.0,0.0,0.0,0.0,0.0,0.0,0.0,0.0,0.0,0.0,0.0,0.0,0.0,0.0,0.0,0.0,0.0,0.0,0.0,0.0,0.0,0.0,0.0,0.0,0.0,0.0,0.0,0.0,0.0,0.0,0.0,0.0,2.257,2.361,0.0,2.4574,2.3887,2.3166,2.2872,2.2112,2.0693,0.0,0.0,0.0,0.0,0.0,0.0,0.0,0.0,0.0,0.0,0.0,0.0,0.0,0.0,0.0,0.0,0.0,0.0,0.0,0.0,0.0,0.0,0.0,0.0,0.0,0.0,0.0,0.0,0.0,0.0,0.0,0.0,0.0,0.0,0.0,0.0,0.0,0.0,0.0,0.0,0.0,0.0,0.0,0.0,0.0,0.0,0.0,0.0,0.0,0.0,0.0,0.0,0.0,0.0,0.0,0.0,0.0,0.0,0.0,0.0,0.0,0.0,0.0,0.0,0.0,0.0,0.0,0.0,0.0,0.0,0.0,0.0,0.0,0.0,0.0,0.0,0.0,0.0,0.0,0.0,0.0,0.0,0.0,0.0,0.0,0.0,0.0,0.0,0.0,0.0,0.0,0.0,0.0,0.0,0.0,0.0,0.0,0.0,0.0,0.0,0.0,0.0,2.2195,2.2857,2.3856,0.0,2.5338,2.4339,2.319,2.2981,2.2214,2.0573,0.0,0.0,0.0,0.0,0.0,0.0,0.0,0.0,0.0,0.0,0.0,0.0,0.0,0.0,0.0,0.0,0.0,0.0,0.0,0.0,0.0,0.0,0.0,0.0,0.0,0.0,0.0,0.0,0.0,0.0,0.0,0.0,0.0,0.0,0.0,0.0,0.0,0.0,0.0,0.0,0.0,0.0,0.0,0.0,0.0,0.0,0.0,0.0,0.0,0.0,0.0,0.0,0.0,0.0,0.0,0.0,0.0,0.0,0.0,0.0,0.0,0.0,0.0,0.0,0.0,0.0,0.0,0.0,0.0,0.0,0.0,0.0,0.0,0.0,0.0,0.0,0.0,0.0,0.0,0.0,0.0,0.0,0.0,0.0,0.0,0.0,0.0,0.0,0.0,0.0,0.0,0.0,0.0,0.0,0.0,0.0,0.0,0.0,0.0,0.0,0.0,0.0,2.1307,2.3091,2.4514,2.533,2.5081,2.436,2.3212,2.1579,2.0452,0.0,0.0,0.0,0.0,0.0,0.0,0.0,0.0,0.0,0.0,0.0,0.0,0.0,0.0,0.0,0.0,0.0,0.0,0.0,0.0,0.0,0.0,0.0,0.0,0.0,0.0,0.0,0.0,0.0,0.0,0.0,0.0,0.0,0.0,0.0,0.0,0.0,0.0,0.0,0.0,0.0,0.0,0.0,0.0,0.0,0.0,0.0,0.0,0.0,0.0,0.0,0.0,0.0,0.0,0.0,0.0,0.0,0.0,0.0,0.0,0.0,0.0,0.0,0.0,0.0,0.0,0.0,0.0,0.0,0.0,0.0,0.0,0.0,0.0,0.0,0.0,0.0,0.0,0.0,0.0,0.0,0.0,0.0,0.0,0.0,0.0,0.0,0.0,0.0,0.0,0.0,0.0,0.0,0.0,0.0,0.0,0.0,0.0,0.0,0.0,0.0,0.0,0.0,2.2296,2.3968,2.5507,2.7149,2.653,2.5416,2.4012,2.2785,2.1322,1.9543,0.0,0.0,0.0,0.0,0.0,0.0,0.0,0.0,0.0,0.0,0.0,0.0,0.0,0.0,0.0,0.0,0.0,0.0,0.0,0.0,0.0,0.0,0.0,0.0,0.0,0.0,0.0,0.0,0.0,0.0,0.0,0.0,0.0,0.0,0.0,0.0,0.0,0.0,0.0,0.0,0.0,0.0,0.0,0.0,0.0,0.0,0.0,0.0,0.0,0.0,0.0,0.0,0.0,0.0,0.0,0.0,0.0,0.0,0.0,0.0,0.0,0.0,0.0,0.0,0.0,0.0,0.0,0.0,0.0,0.0,0.0,0.0,0.0,0.0,0.0,0.0,0.0,0.0,0.0,0.0,0.0,0.0,0.0,0.0,0.0,0.0,0.0,0.0,0.0,0.0,0.0,0.0,0.0,0.0,0.0,0.0,0.0,0.0,0.0,0.0,0.0,0.0,2.275,2.4664,2.6434,2.8194,2.7618,2.6484,2.4896,2.4008,2.2395,1.9686,0.0,0.0,0.0,0.0,0.0,0.0,0.0,0.0,0.0,0.0,0.0,0.0,0.0,0.0,0.0,0.0,0.0,0.0,0.0,0.0,0.0,0.0,0.0,0.0,0.0,0.0,0.0,0.0,0.0,0.0,0.0,0.0,0.0,0.0,0.0,0.0,0.0,0.0,0.0,0.0,0.0,0.0,0.0,0.0,0.0,0.0,0.0,0.0,0.0,0.0,0.0,0.0,0.0,0.0,0.0,0.0,0.0,0.0,0.0,0.0,0.0,0.0,0.0,0.0,0.0,0.0,0.0,0.0,0.0,0.0,0.0,0.0,0.0,0.0,0.0,0.0,0.0,0.0,0.0,0.0,0.0,0.0,0.0,0.0,0.0,0.0,0.0,0.0,0.0,0.0,0.0,0.0,0.0,0.0,0.0,0.0,0.0,0.0,0.0,0.0,0.0,0.0,2.2825,2.5151,2.7186,2.8736,2.8433,2.7449,2.5839,2.5135,2.3421,2.0273,0.0,0.0,0.0,0.0,0.0,0.0,0.0,0.0,0.0,0.0,0.0,0.0,0.0,0.0,0.0,0.0,0.0,0.0,0.0,0.0,0.0,0.0,0.0,0.0,0.0,0.0,0.0,0.0,0.0,0.0,0.0,0.0,0.0,0.0,0.0,0.0,0.0,0.0,0.0,0.0,0.0,0.0,0.0,0.0,0.0,0.0,0.0,0.0,0.0,0.0,0.0,0.0,0.0,0.0,0.0,0.0,0.0,0.0,0.0,0.0,1.8283,1.6904,0.0,0.0,0.0,0.0,0.0,0.0,0.0,0.0,0.0,0.0,0.0,0.0,0.0,0.0,0.0,0.0,0.0,0.0,0.0,0.0,0.0,0.0,0.0,0.0,0.0,0.0,0.0,0.0,0.0,0.0,0.0,0.0,0.0,0.0,0.0,0.0,0.0,0.0,0.0,0.0,2.2825,2.5151,2.7372,2.9376,2.8677,2.7625,2.6485,2.5171,2.3344,2.0852,1.9899,0.0,0.0,0.0,0.0,0.0,0.0,0.0,0.0,0.0,0.0,0.0,0.0,0.0,0.0,0.0,0.0,0.0,0.0,0.0,0.0,0.0,0.0,0.0,0.0,0.0,0.0,0.0,0.0,0.0,0.0,0.0,0.0,0.0,0.0,0.0,0.0,0.0,0.0,0.0,0.0,0.0,0.0,0.0,0.0,0.0,0.0,0.0,0.0,0.0,0.0,0.0,0.0,0.0,0.0,0.0,0.0,0.0,0.0,0.0,2.0911,1.9572,0.0,0.0,0.0,0.0,0.0,0.0,0.0,0.0,0.0,0.0,0.0,0.0,0.0,0.0,0.0,0.0,0.0,0.0,0.0,0.0,0.0,0.0,0.0,0.0,0.0,0.0,0.0,0.0,0.0,0.0,0.0,0.0,0.0,0.0,0.0,0.0,0.0,0.0,0.0,0.0,2.33,2.5761,2.7958,2.9615,2.9021,2.8153,2.7384,2.6474,2.4958,2.269,2.206,0.0,0.0,0.0,0.0,0.0,0.0,0.0,0.0,0.0,0.0,0.0,0.0,0.0,0.0,0.0,0.0,0.0,0.0,0.0,0.0,0.0,0.0,0.0,0.0,0.0,0.0,0.0,0.0,0.0,0.0,0.0,0.0,0.0,0.0,0.0,0.0,0.0,0.0,0.0,0.0,0.0,0.0,0.0,0.0,0.0,0.0,0.0,0.0,0.0,0.0,0.0,0.0,0.0,2.6859,2.7076,2.6347,2.7492,2.7661,2.6943,2.4031,2.2905,2.2963,2.1167,0.0,0.0,0.0,0.0,0.0,0.0,0.0,0.0,0.0,0.0,0.0,0.0,0.0,0.0,0.0,0.0,0.0,0.0,0.0,0.0,0.0,0.0,2.0029,2.0898,2.1252,2.0475,1.7016,0.0,0.0,0.0,0.0,0.0,0.0,0.0,0.0,0.0,0.0,0.0,2.3904,2.6465,2.8499,2.9528,2.9208,2.8686,2.8214,2.7971,2.703,2.5127,2.4985,2.4246,0.0,0.0,0.0,0.0,0.0,0.0,0.0,0.0,0.0,0.0,0.0,0.0,0.0,0.0,0.0,0.0,0.0,0.0,0.0,0.0,0.0,0.0,0.0,0.0,0.0,0.0,0.0,0.0,0.0,0.0,0.0,0.0,1.7593,1.8646,0.0,0.0,0.0,0.0,0.0,0.0,0.0,0.0,0.0,0.0,0.0,0.0,0.0,2.4808,2.5946,2.7419,2.8211,2.8361,3.0462,3.0899,2.9943,3.0568,3.0794,3.0643,2.9765,0.0,2.5873,2.456,0.0,0.0,0.0,0.0,0.0,0.0,0.0,0.0,0.0,0.0,0.0,0.0,0.0,0.0,0.0,0.0,0.0,0.0,0.0,0.0,0.0,0.0,2.3122,2.339,2.3496,2.3257,2.2302,1.9808,1.7847,1.8137,1.7528,1.6824,0.0,0.0,0.0,0.0,0.0,0.0,2.4415,2.6673,2.8348,2.8957,2.8957,2.8768,2.8473,2.8409,2.8223,2.7883,2.7218,2.6573,2.5997,2.442,0.0,0.0,0.0,0.0,0.0,0.0,0.0,0.0,0.0,0.0,0.0,0.0,0.0,0.0,0.0,0.0,0.0,0.0,0.0,0.0,0.0,0.0,0.0,0.0,0.0,0.0,0.0,0.0,0.0,1.8189,1.9019,1.986,2.0002,1.9762,0.0,0.0,0.0,0.0,0.0,0.0,0.0,0.0,0.0,2.587,2.6698,2.7802,2.9246,3.0256,3.1065,3.1717,3.2692,3.3068,3.2896,3.3147,3.3248,3.3244,3.2997,3.1888,3.0005,2.7598,2.5637,2.389,0.0,0.0,0.0,0.0,1.9445,1.9839,2.0167,2.0273,2.0215,1.9903,0.0,0.0,0.0,0.0,0.0,0.0,0.0,2.1362,2.3329,2.4455,2.5386,2.6436,2.6477,2.6301,2.6376,2.4489,2.2262,2.0469,1.991,1.9216,1.7666,1.7898,0.0,0.0,0.0,2.3211,2.5477,2.6866,2.7971,2.8806,2.8762,2.8628,2.8495,2.9483,2.9904,2.9495,2.9885,2.9705,2.8715,2.7458,2.6176,0.0,0.0,0.0,0.0,0.0,0.0,0.0,0.0,0.0,0.0,0.0,0.0,0.0,0.0,0.0,0.0,0.0,0.0,0.0,0.0,0.0,0.0,0.0,0.0,0.0,0.0,0.0,0.0,1.9572,2.0614,2.1069,2.1959,2.216,0.0,0.0,0.0,0.0,0.0,0.0,2.5175,2.5921,2.7175,2.9101,2.981,3.0783,3.2035,3.2566,3.3269,3.4123,3.4226,3.4502,3.4904,3.4904,3.4904,3.4904,3.4753,3.4248,3.3269,3.0357,2.835,2.6962,2.5333,2.4275,2.3595,2.3003,2.3037,2.3406,2.3681,2.3776,2.3695,2.3145,2.2718,2.2149,2.0701,0.0,0.0,0.0,0.0,2.3778,2.6117,2.7029,2.7673,2.8999,2.9027,2.8796,2.9061,2.8079,2.6255,2.3252,2.2535,2.1824,1.9927,2.0023,0.0,0.0,0.0,2.4089,2.6223,2.7143,2.7926,2.8704,2.8804,2.8946,2.9204,3.0505,3.1257,3.1146,3.1915,3.1902,3.086,2.994,2.8713,2.7164,0.0,0.0,0.0,0.0,0.0,0.0,0.0,0.0,0.0,0.0,0.0,0.0,0.0,0.0,0.0,0.0,0.0,0.0,0.0,0.0,0.0,0.0,0.0,0.0,0.0,0.0,0.0,0.0,0.0,2.2207,2.4104,0.0,0.0,0.0,0.0,2.5887,2.6913,2.7883,2.8636,2.971,3.0814,3.1943,3.3068,3.3696,3.3771,3.4324,3.4603,3.4678,3.5182,3.5433,3.5458,3.5458,3.5458,3.5433,3.4929,3.4678,3.4477,3.2721,3.1065,2.9488,2.797,2.7071,2.6537,2.6112,2.622,2.6637,2.7076,2.7258,2.7304,2.7647,2.6605,2.5088,2.4401,2.3673,0.0,0.0,2.6243,2.7144,2.9681,3.0373,3.0398,3.0487,3.0498,3.0328,2.9854,2.9245,2.8412,2.7204,2.5736,2.4445,2.3807,0.0,2.2339,2.2869,2.3512,2.4572,2.6273,2.7644,2.8461,2.8514,2.9238,3.0106,3.1087,3.1244,3.1893,3.3255,3.2743,3.2321,3.2188,3.118,2.9876,2.8339,2.6451,0.0,0.0,0.0,0.0,0.0,0.0,0.0,0.0,0.0,0.0,0.0,0.0,0.0,0.0,0.0,0.0,0.0,0.0,0.0,0.0,0.0,0.0,0.0,0.0,0.0,0.0,0.0,0.0,2.6357,2.7846,0.0,2.8348,2.9018,2.934,2.8985,3.0007,3.0924,3.1573,3.2315,3.3068,3.3775,3.4552,3.4929,3.4929,3.5504,3.5803,3.5803,3.6004,3.6081,3.6081,3.6081,3.6081,3.6056,3.5879,3.5579,3.5157,3.4555,3.3574,3.2369,3.1477,3.0782,3.017,2.9335,2.9061,2.9034,2.8532,2.8339,2.8357,2.8541,2.8181,2.7682,2.785,2.793,2.8118,2.8842,2.9371,2.9975,3.0879,3.111,3.1035,3.0663,3.0588,3.0437,2.9905,2.9628,2.9377,2.8976,2.7821,2.6515,2.5259,2.5025,2.4824,2.429,2.5008,2.6147,2.7601,2.8185,2.8889,2.9866,3.0441,3.1087,3.186,3.2405,3.2933,3.3468,3.3206,3.283,3.2317,3.2204,3.1201,2.9151,2.8287,2.6663,0.0,0.0,0.0,0.0,0.0,0.0,0.0,0.0,0.0,0.0,0.0,0.0,0.0,0.0,0.0,0.0,0.0,0.0,0.0,0.0,0.0,0.0,0.0,0.0,0.0,2.4559,2.7011,2.9234,3.111,3.2288,3.2369,3.2742,3.2887,3.2747,3.3056,3.343,3.3888,3.4248,3.47,3.5253,3.5629,3.5782,3.5782,3.6205,3.6593,3.6964,3.6964,3.7173,3.7566,3.715,3.6964,3.6966,3.657,3.618,3.5782,3.5782,3.5378,3.4673,3.3922,3.3395,3.2961,3.2264,3.1933,3.1709,3.0811,3.0403,3.0232,3.0079,3.0018,3.0044,3.0284,3.0583,3.0909,3.109,3.1411,3.1712,3.1913,3.1984,3.1813,3.1265,3.0989,3.0733,3.0181,2.993,2.9804,2.9804,2.9026,2.8021,2.6899,2.6892,2.6905,2.645,2.7028,2.7963,2.9184,2.9607,3.0179,3.1205,3.1775,3.2348,3.3019,3.3352,3.3497,3.3483,3.2965,3.2341,3.1572,3.1862,3.1211,2.9373,2.8898,2.7581,2.54,0.0,0.0,0.0,0.0,0.0,0.0,0.0,0.0,0.0,0.0,0.0,0.0,0.0,0.0,0.0,0.0,0.0,0.0,0.0,0.0,0.0,0.0,0.0,2.4004,2.6909,2.948,3.0726,3.3751,3.5911,3.642,3.6401,3.6575,3.711,3.6079,3.5452,3.5504,3.5533,3.5807,3.6405,3.643,3.643,3.6502,3.6502,3.7062,3.8179,3.8179,3.881,3.9869,3.8649,3.8107,3.8039,3.6896,3.6405,3.6405,3.6405,3.6405,3.6281,3.5177,3.4753,3.4728,3.4728,3.4703,3.4628,3.4098,3.3567,3.304,3.2416,3.224,3.2139,3.1612,3.1436,3.1562,3.2089,3.224,3.2365,3.2964,3.309,3.2964,3.234,3.1813,3.126,3.0733,3.0206,2.9804,2.9804,2.9333,2.8932,2.8932,2.8517,2.8478,2.9372,2.9548,0.0,3.0904,3.1775,3.2347,3.2361,3.3136,3.3921,3.4616,3.3959,3.3516,3.3413,3.2009,3.0891,3.0161,3.0199,2.9895,2.9073,2.83,2.7457,2.6644,0.0,0.0,0.0,0.0,0.0,0.0,0.0,0.0,0.0,0.0,0.0,0.0,0.0,0.0,0.0,0.0,0.0,0.0,0.0,0.0,0.0,2.4027,2.6001,2.5845,2.9029,3.2229,3.4555,3.7104,3.9016,3.9906,3.9965,3.9535,3.8477,3.8091,3.7386,3.6224,3.6155,3.6406,3.6959,3.6984,3.7615,3.8927,3.8927,3.9299,4.0076,4.0076,4.0013,3.9869,3.8649,3.8107,3.8039,3.6896,3.6405,3.6405,3.6405,3.6405,3.638,3.6055,3.568,3.5282,3.5282,3.5031,3.4628,3.4098,3.3796,3.3571,3.304,3.2842,3.2839,3.2688,3.2638,3.2663,3.2813,3.2842,3.2889,3.3065,3.309,3.2964,3.234,3.2089,3.1738,3.0789,3.0487,3.0281,2.988,2.9654,2.9553,2.9553,2.9669,2.9868,3.0111,3.0714,0.0,3.1884,3.2493,3.3162,3.3886,3.4544,3.5182,3.5862,3.4999,3.4073,3.3233,3.1994,3.1046,3.0575,3.1162,3.1254,3.0744,2.9936,2.8851,0.0,0.0,0.0,0.0,0.0,0.0,0.0,0.0,0.0,0.0,0.0,0.0,0.0,0.0,0.0,0.0,0.0,0.0,0.0,0.0,0.0,0.0,2.6749,2.8987,3.0138,3.2644,3.5235,3.7546,3.9651,4.1234,4.2104,4.1774,4.1069,4.009,3.9118,3.8247,3.7507,3.6993,3.7222,3.8308,3.8332,3.9081,4.0688,4.0688,4.1124,4.1978,4.1674,4.1365,4.0962,3.9513,3.8581,3.8039,3.6896,3.6405,3.6405,3.6405,3.6405,3.6405,0.0,0.0,0.0,0.0,3.5826,3.5744,3.5432,3.55,3.5645,3.5325,3.4751,3.4144,3.4144,3.3649,3.309,3.309,3.309,3.309,3.309,3.309,3.3014,3.2641,3.239,3.1989,3.1135,3.0738,3.0437,2.9905,3.012,0.0,3.0381,3.0585,3.1001,3.1779,3.2664,3.3333,3.3608,3.4211,3.4791,3.5316,3.5633,3.6051,3.6676,3.5847,0.0,0.0,0.0,3.1528,3.0792,3.1273,0.0,0.0,0.0,0.0,0.0,0.0,0.0,0.0,2.9354,2.947,0.0,0.0,0.0,0.0,0.0,0.0,0.0,0.0,0.0,0.0,0.0,0.0,0.0,0.0,0.0,0.0,2.9597,3.2236,3.5421,3.6918,3.8229,3.9718,4.145,4.272,4.325,4.2406,4.1732,4.1608,3.9738,3.8766,3.9114,3.8239,0.0,0.0,0.0,4.0846,4.2187,4.2215,4.2771,4.3892,4.3226,4.2786,4.253,4.0727,3.9249,3.8039,3.6896,3.6405,3.6405,3.6405,3.6476,3.6593,3.6593,3.6593,3.6592,3.6732,3.7114,3.7586,3.7528,0.0,0.0,3.8207,3.7137,3.5854,3.5674,3.4571,3.3337,3.3158,3.309,3.309,3.309,3.309,3.309,3.309,3.2692,3.2164,3.1612,3.106,3.0552,3.0136,3.0672,3.1259,3.1481,3.1518,3.211,3.3865,3.4843,3.5471,3.5715,3.6318,3.6651,3.6523,3.6511,0.0,3.7229,3.6585,3.5821,3.495,3.359,3.2365,3.1409,3.1467,3.1604,3.1788,3.2589,3.3323,3.3954,3.4747,3.5261,3.5334,3.1665,3.1451,0.0,0.0,0.0,0.0,0.0,0.0,0.0,0.0,0.0,0.0,0.0,0.0,0.0,0.0,0.0,2.9931,3.3025,3.5661,3.7309,3.9287,4.0573,4.0599,4.2109,4.316,4.329,4.311,4.2589,4.167,4.1689,4.1356,4.0474,4.0736,4.1282,4.2144,4.2171,4.2972,4.4698,4.4698,4.5051,4.5773,4.5081,0.0,4.253,4.0727,3.9249,3.8039,3.6896,3.6405,3.6405,3.6405,3.6943,3.7769,3.7769,3.7769,3.7906,3.885,3.9305,3.9311,3.8839,3.8736,3.8782,3.8325,3.7979,3.7434,3.6033,3.5358,0.0,3.347,3.309,3.309,3.309,3.309,3.309,3.309,3.3014,3.2763,3.2164,3.1612,3.1321,3.1532,3.1378,3.1683,3.3192,3.3463,3.3785,3.4814,3.5729,3.6577,3.7274,3.6973,3.6837,3.7234,3.7151,3.7239,3.772,3.7414,3.6747,3.5592,3.4666,3.4161,3.4196,3.4883,3.4955,3.4307,3.5158,3.5305,3.4784,3.5635,3.6707,3.7947,3.653,3.5833,0.0,0.0,0.0,0.0,0.0,0.0,0.0,0.0,0.0,0.0,0.0,2.5197,2.7103,0.0,3.0836,3.3271,3.5601,3.7706,3.9469,4.0988,4.1829,4.1607,4.2614,4.329,4.329,4.329,4.3041,4.2487,4.2548,4.2439,4.2116,4.2199,4.279,4.4008,4.406,4.48,4.6344,4.6344,4.6513,4.6779,4.5783,4.42,4.216,4.0606,3.8917,3.7219,3.6639,3.6405,3.6428,3.701,3.7952,3.9072,3.964,3.9486,3.9072,3.9667,4.0253,4.0711,4.0421,4.0663,4.111,4.0833,4.0192,3.9217,3.7748,3.6496,3.5294,3.3915,3.3316,3.309,3.309,3.309,3.309,3.309,3.309,3.2939,3.234,3.2153,3.2062,3.2009,3.2343,3.2894,3.3842,3.4705,3.5439,3.5824,3.6961,3.7758,3.7807,3.7694,3.7717,3.7878,3.769,3.7746,3.8259,3.7811,3.7242,3.6644,3.5855,3.5477,3.5628,3.6083,3.6083,3.5672,3.6457,3.689,3.6839,3.7698,3.8726,3.9892,3.99,3.946,0.0,0.0,0.0,0.0,0.0,0.0,0.0,0.0,2.4466,2.6554,2.7788,2.9067,3.0906,3.2506,3.4246,3.6456,3.774,3.921,4.1308,4.2081,4.244,4.2541,4.3,4.329,4.329,4.329,4.329,4.329,4.3193,4.3304,4.3762,4.3645,4.4254,4.5705,4.5779,4.6255,4.7287,4.7309,4.7309,4.7279,4.5722,4.3855,4.1734,4.0239,3.8405,3.6405,3.6615,3.6873,3.715,3.8311,3.9332,4.0339,4.1483,4.1358,4.0554,4.0554,4.1127,4.1947,4.1947,4.2528,4.329,4.329,4.2405,4.1033,3.9759,3.7899,3.604,3.4878,3.3915,3.3302,3.3624,3.3386,3.3154,3.3368,3.3261,3.3028,3.276,3.2852,3.2967,3.2779,3.3543,3.4259,3.448,3.579,3.6828,3.6828,3.8001,3.8791,3.8458,3.8523,3.8607,3.8654,3.8214,3.8107,3.865,3.8109,3.7742,3.7742,3.7118,3.6787,3.6787,3.6787,3.6853,3.7008,3.7639,3.8366,3.9158,3.9827,4.0561,4.136,4.1984,4.1956,2.3114,2.2451,2.2308,2.3208,2.3202,2.3923,0.0,0.0,2.7794,3.0615,3.1338,3.2095,3.4243,3.5293,3.6532,3.8692,3.9652,4.0644,4.2092,4.2351,4.2601,4.313,4.326,4.329,4.329,4.329,4.329,4.329,4.4344,4.5019,4.5087,4.6172,4.6864,4.7084,4.7084,4.7149,4.7309,4.7309,4.7309,4.7258,4.4893,4.3094,4.1711,3.9361,3.7609,3.6452,3.7471,3.8514,3.9579,4.0746,4.1295,4.1525,4.2649,4.3021,4.2921,4.2921,4.2981,4.313,4.313,4.319,4.329,4.329,4.317,4.2733,4.1102,3.9681,3.8384,3.7167,3.5389,3.4125,3.5514,3.4485,3.3347,3.4283,3.3784,3.3343,3.4225,3.4035,3.4043,3.5234,3.5167,3.5178,3.6148,3.7069,3.7677,3.7677,3.8372,3.9294,4.0417,3.9421,3.8965,3.9901,3.8743,3.8107,3.865,3.8608,3.8579,3.8579,3.8461,3.8424,3.8424,3.8424,3.8762,3.9467,3.9578,4.001,4.0838,4.092,4.1397,4.2176,4.2249,4.2249,2.5812,2.5499,2.5487,2.6345,2.7259,2.8512,3.0598,3.1036,3.1664,3.4076,3.4862,3.5489,3.6821,3.76,3.8477,0.0,4.1001,4.1943,4.2338,4.2868,4.3111,4.2809,4.2761,4.291,4.326,4.329,4.329,4.329,4.4177,4.4885,4.5274,4.6202,4.6899,4.7309,4.7309,4.7309,4.7309,4.7309,4.7309,4.7258,4.4784,4.2984,4.1734,3.9944,3.8872,3.8473,3.8939,3.982,4.0937,4.1399,4.1988,4.2629,4.313,4.329,4.329,4.329,4.329,4.329,4.329,4.329,4.329,4.329,4.329,4.3051,4.1689,4.0699,3.9805,3.8588,3.7081,3.5966,3.6618,3.5404,3.4142,3.4594,3.4345,3.4163,3.4615,3.5133,3.5722,3.6317,3.6468,3.6651,3.711,3.7885,3.8442,3.8442,3.9102,3.9923,4.0803,4.0254,3.9813,4.0015,3.9442,3.8976,3.871,3.8681,3.8681,3.8681,3.8681,3.8909,3.9386,3.9386,3.979,4.0598,4.0589,4.0993,4.1801,4.1801,4.2213,4.3029,4.3497,4.3709,2.7611,2.781,2.8273,2.9186,3.0747,3.2273,3.314,3.3844,3.4911,3.6946,3.7567,3.8088,3.9181,3.9625,4.0156,4.126,4.2408,4.3135,4.3058,4.3506,4.3445,4.2496,4.2231,4.2361,4.298,4.322,4.329,4.329,4.4087,4.4796,4.5274,4.6112,4.6779,4.7279,4.7309,4.7309,4.7309,4.7309,4.7309,4.7258,4.496,4.331,4.2234,4.0636,4.0059,4.0361,4.0361,4.1021,4.207,4.207,4.2548,4.329,4.329,4.329,4.329,4.329,4.329,4.329,4.329,4.329,4.329,4.329,4.329,4.315,4.2295,4.1587,4.0867,4.0133,3.8878,3.7749,3.8025,3.6517,3.5048,3.5454,3.5122,3.4856,3.5447,3.6347,3.7121,3.7223,3.775,3.812,3.7951,3.8645,3.922,3.9242,3.9834,4.0504,4.1093,4.1081,4.0858,4.0305,4.023,4.001,3.9415,3.9342,3.9342,3.9342,3.9342,3.9635,4.0194,4.023,4.0598,4.1434,4.1434,4.1837,4.2616,4.2616,4.302,4.3836,4.4443,4.4957,2.7589,2.8312,2.96,3.1054,3.2422,3.3784,3.51,3.5938,3.7014,3.9145,3.9044,3.9242,4.1469,4.1326,4.155,4.3641,4.4026,4.4227,4.467,4.4192,4.3445,4.2496,4.1841,4.1703,4.2381,4.297,4.329,4.329,4.4506,4.5274,4.5304,4.6561,4.7279,4.7309,4.7309,4.7309,4.7309,4.7309,4.7309,4.7287,4.5449,4.4209,4.3437,4.1013,4.0511,4.1545,4.1545,4.2193,4.325,4.325,4.327,4.329,4.329,4.329,4.329,4.329,4.329,4.329,4.329,4.329,4.329,4.329,4.329,4.329,4.327,4.2487,4.167,4.2139,4.0697,3.9165,4.0064,3.7952,3.5921,3.7365,3.616,3.5244,3.7281,3.7738,3.7904,3.8299,3.9045,3.9449,3.8876,3.9487,4.0052,4.0041,4.0528,4.1081,4.1703,4.2047,4.1959,4.1132,4.1067,4.1058,4.103,4.103,4.103,4.103,4.103,4.1022,4.1067,4.1067,4.1434,4.2249,4.2249,4.2653,4.3469,4.3469,4.3864,4.4663,4.47,4.5544,2.939,3.0469,3.1882,3.3171,3.4607,3.6137,3.7885,3.8896,3.9691,4.0356,4.0277,4.0198,4.0481,4.0321,4.0879,4.3036,4.3913,4.4412,4.4737,4.4746,4.3988,4.1972,4.1523,4.1493,4.1703,4.2331,4.288,4.326,4.4117,4.4825,4.5274,4.6172,4.6839,4.7309,4.7309,4.7309,4.7309,4.7309,4.7309,4.7258,4.5018,4.3575,4.2889,4.1632,4.1657,4.271,4.271,4.2941,4.329,4.329,4.329,4.329,4.329,4.329,4.329,4.329,4.329,4.329,4.329,4.329,4.329,4.329,4.329,4.329,4.329,4.3021,4.2761,4.2942,4.2149,4.135,4.165,3.9741,3.7836,3.8351,3.7584,3.6952,3.7644,3.8379,3.9073,3.9795,4.0227,4.0467,4.0292,4.058,4.0762,4.0643,4.1139,4.1725,4.2322,4.2814,4.2808,4.1992,4.1911,4.169,4.1132,4.1095,4.1095,4.1095,4.1095,4.136,4.1874,4.1911,4.2286,4.3065,4.3102,4.3212,4.3506,4.4048,4.4443,4.4737,4.5801,4.6562,3.1922,3.3212,3.4519,3.6089,3.7405,3.8559,3.9549,4.0388,4.086,4.0608,4.0122,3.9777,3.9874,3.9265,3.9689,4.265,4.3662,4.4272,4.4845,4.5087,4.4331,4.201,4.1553,4.1493,4.1733,4.2141,4.2661,4.325,4.4147,4.4855,4.5274,4.6172,4.6839,4.7309,4.7309,4.7309,4.7309,4.7309,4.7309,4.7258,4.5202,4.398,4.3541,4.2623,4.2609,4.329,4.329,4.329,4.329,4.329,4.329,4.329,4.329,4.329,4.329,4.329,4.329,4.329,4.329,4.329,4.329,4.329,4.329,4.329,4.329,4.329,4.329,4.329,4.301,4.2661,4.247,4.0959,3.9497,3.9391,3.8745,3.8197,3.8333,3.9169,4.0043,4.0588,4.1261,4.1675,4.1464,4.1303,4.1219,4.1334,4.1606,4.201,4.2616,4.3169,4.3286,4.2763,4.2727,4.2506,4.1984,4.1947,4.1947,4.1947,4.1947,4.2176,4.2727,4.2727,4.2955,4.3506,4.3506,4.3653,4.3938,4.4452,4.4993,4.5581,4.6636,4.7259,3.4992,3.6295,3.7412,3.9512,4.0537,4.0842,4.0185,4.0475,4.0706,4.001,3.8689,3.8143,0.0,0.0,3.8273,4.2544,4.3314,4.3808,4.4936,4.5147,4.448,0.0,0.0,0.0,0.0,0.0,4.2661,4.325,4.4556,4.5304,4.5304,4.6561,4.7309,4.7309,4.7309,4.7309,4.7309,4.7309,4.7279,4.7249,4.5933,4.5274,4.5185,4.3908,4.329,4.329,4.329,4.329,4.329,4.329,4.329,4.329,4.329,4.329,4.329,4.329,4.329,4.329,4.329,4.329,4.329,4.329,4.329,4.329,4.329,4.329,4.329,4.329,4.329,4.316,4.2601,4.1666,4.0818,4.052,3.9656,3.8985,3.9311,4.0095,4.0724,4.0758,4.2157,4.3071,4.2393,4.1712,4.1469,4.2049,4.1992,4.2046,4.2625,4.3169,4.3506,4.3506,4.3506,4.3506,4.3506,4.3506,4.3506,4.3506,4.3506,4.3506,4.3506,4.3506,4.3506,4.3506,4.3543,4.3938,4.47,4.4773,4.5617,4.7113,4.7149,4.7599,3.6922,3.8631,4.0137,4.061,4.0931,4.1231,4.1547,4.1376,4.0775,3.9487,3.8484,3.7458,0.0,3.684,3.8362,4.0582,4.2192,0.0,4.4915,4.4993,0.0,4.2595,0.0,4.2201,4.2381,4.241,4.2661,4.325,4.4556,4.5304,4.5304,4.6561,4.7309,4.7309,4.7309,4.7309,4.7309,4.7309,4.707,4.654,4.5693,4.5035,4.4526,4.3698,4.329,4.329,4.329,4.329,4.329,4.329,4.329,4.329,4.329,4.329,4.329,4.329,4.329,4.329,4.329,4.329,4.329,4.329,4.329,4.329,4.329,4.329,4.329,4.329,4.329,4.326,4.31,4.2524,4.1861,4.1287,4.0539,3.9873,3.9486,4.0095,4.0911,4.1528,4.2604,4.33,4.3146,4.2503,4.2181,4.2636,4.2635,4.2629,4.2688,4.3169,4.3506,4.3506,4.3506,4.3506,4.3506,4.3506,4.3506,4.3506,4.3506,4.3506,4.3506,4.3506,4.3506,4.3506,4.4085,4.4488,4.47,4.5902,4.6709,4.7113,4.7709,4.8453,3.9412,4.0921,4.2237,4.2514,4.2369,4.2002,4.1413,4.0734,3.9512,3.7043,3.596,3.4945,3.3366,3.437,3.6265,3.8722,0.0,0.0,4.4383,4.4728,4.4311,0.0,4.2791,0.0,4.2791,4.2791,4.294,4.326,4.4556,4.5304,4.5304,4.6561,4.7309,4.7309,4.7309,4.7309,4.7309,4.7309,4.6958,4.63,4.6029,4.5364,4.4287,4.4054,4.3713,4.329,4.329,4.329,4.329,4.329,4.329,4.329,4.329,4.329,4.329,4.329,4.329,4.329,4.329,4.329,4.329,4.329,4.329,4.329,4.329,4.329,4.329,4.329,4.329,4.329,4.329,4.304,4.2631,4.2002,4.1553,4.1126,4.0534,4.1086,4.2006,4.2958,4.3566,4.3944,4.3944,4.3301,4.2961,4.3476,4.3496,4.3376,4.3248,4.3397,4.3506,4.3506,4.3506,4.3506,4.3506,4.3506,4.3506,4.3506,4.3506,4.3506,4.3506,4.3836,4.4011,4.4011,4.4819,4.5397,4.5755,4.6672,4.7259,4.7636,4.8489,4.9123,4.1907,4.2997,4.3741,4.4432,4.3842,4.2577,4.0582,3.9229,3.7427,3.3964,3.2588,3.1775,3.1031,3.1684,3.347,3.7003,0.0,4.1333,4.351,4.4184,4.419,4.3379,4.329,4.3319,4.3409,4.3409,4.3409,4.3409,4.4655,4.5394,4.5304,4.6561,4.7309,4.7309,4.7309,4.7309,4.7309,4.7309,4.6958,4.63,4.6681,4.6018,4.4427,4.4891,4.4488,4.3409,4.3409,4.3379,4.329,4.329,4.3349,4.3409,4.3409,4.3489,4.3579,4.3579,4.3579,4.3549,4.3439,4.3409,4.3429,4.3319,4.329,4.329,4.329,4.329,4.329,4.329,4.329,4.329,4.329,4.329,4.316,4.2541,4.2496,4.244,4.1934,4.2566,4.3506,4.4553,4.4682,4.4615,4.4615,4.4094,4.3862,4.4413,4.4437,4.4324,4.4196,4.3871,4.3616,4.3506,4.3506,4.3506,4.3506,4.3506,4.3506,4.3506,4.3616,4.3653,4.3653,4.4415,4.4847,4.4847,4.5654,4.6388,4.7113,4.7223,4.7672,4.8489,4.9233,4.9721,4.309,4.3775,4.4432,4.4581,4.3064,4.1326,4.0333,3.7618,0.0,0.0,3.1427,3.0243,2.9517,3.0973,3.3097,3.5514,3.7607,3.9849,4.2535,4.2853,4.2945,0.0,4.329,4.3519,4.4057,4.4117,4.4117,4.4117,4.5373,4.5882,4.5334,4.6561,4.7309,4.7309,4.7309,4.7309,4.7309,4.7309,4.6958,4.6322,4.7181,4.6762,4.5166,4.6085,4.5649,4.4117,4.4117,4.3818,4.329,4.329,4.3638,4.4117,4.4117,4.4466,4.4945,4.4945,4.4945,4.4885,4.4326,4.4117,4.4027,4.3489,4.329,4.329,4.329,4.329,4.329,4.329,4.329,4.329,4.329,4.329,4.316,4.2541,4.3001,4.3377,4.2753,4.342,4.4436,4.5327,4.5041,4.4615,4.4615,4.4892,4.5116,4.5058,4.5512,4.5766,4.5589,4.4912,4.4232,4.3579,4.3506,4.3506,4.3506,4.3506,4.3506,4.3506,4.4121,4.448,4.448,4.5259,4.57,4.57,4.6498,4.6966,4.7113,4.7783,4.8526,4.9297,4.949,5.0298,4.3865,4.4296,4.4615,4.4615,4.2909,4.0696,3.8802,0.0,0.0,0.0,2.9388,2.8678,2.7952,2.9948,0.0,3.4118,3.5856,3.8218,4.1685,4.1418,4.1444,4.308,4.3609,4.3938,4.4267,4.4616,4.4825,4.4825,4.5732,4.6001,4.5334,4.6561,4.7309,4.7309,4.7807,4.8093,4.8093,4.8646,4.8581,4.7918,4.8361,4.7723,4.6162,4.6579,4.6069,4.4825,4.4825,4.4646,4.4326,4.4326,4.4526,4.4825,4.4825,4.5005,4.5304,4.5304,4.5304,4.5244,4.4945,4.4825,4.4766,4.4446,4.3878,4.329,4.329,4.329,4.329,4.329,4.329,4.329,4.329,4.329,4.3358,4.3609,4.4444,4.5122,4.4786,4.5225,4.5649,4.5698,4.5399,4.5041,4.4682,4.5102,4.5572,4.5788,4.6382,4.6742,4.6543,4.6205,4.5654,4.4828,4.4754,4.4754,4.4754,4.4754,4.4754,4.4754,4.5112,4.5324,4.5324,4.6094,4.6535,4.6535,4.7305,4.7966,4.8416,4.8783,4.938,5.0178,5.0629,5.1253,4.4429,4.4615,4.4615,4.4615,4.2773,4.0223,3.7438,3.4787,0.0,2.85,2.7689,2.7427,2.6996,2.8856,3.104,0.0,3.4227,3.6546,4.0674,4.0314,4.0546,4.3094,4.3908,0.0,4.4496,4.5125,4.5514,4.5514,4.6001,4.6121,4.5753,4.6741,4.7309,4.7309,4.8272,4.882,4.882,4.9852,5.0128,4.9609,4.9565,4.8744,4.7288,4.7209,4.6528,4.5514,4.5514,4.5424,4.5304,4.5304,4.5394,4.5514,4.5514,4.5603,4.5723,4.5723,4.5723,4.5693,4.5574,4.5514,4.5484,4.5334,4.4586,4.3728,4.3728,4.3728,4.3728,4.3728,4.3638,4.3499,4.3499,4.3558,4.3927,4.5116,4.6085,4.6781,4.6992,4.7041,4.6853,4.6264,4.6027,4.5794,4.5368,4.5638,4.617,4.6791,4.7273,4.7549,4.7395,4.7369,4.7122,4.6471,4.6104,4.5883,4.5883,4.5883,4.5883,4.5883,4.6067,4.6177,4.6177,4.6938,4.7369,4.7369,4.815,4.894,4.961,4.9747,5.0261,5.1059,5.173,5.2097,4.4667,4.4615,4.4615,4.4615,4.2381,3.9592,3.7337,0.0,3.0717,2.8297,2.7258,2.6996,2.7587,2.7925,0.0,0.0,0.0,3.4917,3.9208,4.0084,4.1146,4.3414,0.0,0.0,4.5155,4.5792,4.6211,4.6211,4.6271,4.654,4.71,4.7249,4.7309,4.7309,4.8272,4.882,4.882,4.9852,5.0365,5.0301,5.0301,4.9706,4.8603,4.8603,4.7731,4.6211,4.6211,4.5852,4.5304,4.5304,4.5663,4.6211,4.6211,4.657,4.713,4.713,4.713,4.704,4.642,4.6211,4.6121,4.5514,4.5214,4.5125,4.5125,4.5125,4.5125,4.5125,4.4676,4.4207,4.4207,4.4441,4.5116,4.6917,4.7424,4.7736,4.8604,4.8247,4.7785,4.7718,4.7158,4.6884,4.7431,4.7455,4.7618,4.8302,4.8291,4.8212,4.8186,4.8186,4.815,4.8076,4.6764,4.5883,4.5883,4.5883,4.5883,4.5883,4.6608,4.7003,4.7003,4.7746,4.8186,4.8186,4.905,4.9527,4.961,5.0325,5.1096,5.1877,5.1987,5.238,4.4169,4.4511,4.4615,4.4615,4.2347,3.9389,3.6705,3.3558,3.0412,2.7706,2.6894,2.6793,2.7097,2.7486,2.8468,0.0,0.0,0.0,3.643,3.6894,3.8138,4.1832,4.3106,4.4296,4.5762,4.651,4.6899,4.6899,4.6899,4.7258,4.8168,4.7645,4.7581,4.8168,4.9215,5.0068,5.0652,5.1722,5.2274,5.2256,5.1019,5.0165,4.9714,4.848,4.7507,4.6899,4.6899,4.6749,4.6501,4.6501,4.6651,4.6899,4.6899,4.707,4.7309,4.7309,4.7309,4.7279,4.6988,4.6899,4.686,4.6591,4.6501,4.6352,4.5544,4.5304,4.5304,4.5304,4.5095,4.5049,4.5706,4.6492,4.7211,4.7538,4.8014,4.8545,4.8907,4.8781,4.8428,4.7988,4.765,4.7544,4.7755,4.8096,4.8555,4.9242,4.9185,4.9087,4.9087,4.8636,4.8296,4.8296,4.7709,4.7352,4.7352,4.7352,4.7352,4.7352,4.7636,4.7819,4.7819,4.8636,4.9087,4.9087,4.9894,5.0555,5.1032,5.1363,5.194,5.2747,5.3225,5.3628,4.3442,4.4105,4.4262,4.4262,4.2164,3.9254,3.6017,3.3152,3.0345,2.7309,2.67,2.67,2.67,2.7291,2.8229,2.9567,0.0,3.1182,3.5184,3.5498,3.6881,4.1018,4.2448,4.3941,4.6011,4.7133,4.7743,4.7743,4.7743,4.8198,4.9215,4.8605,4.8543,4.9256,5.0301,5.1173,5.1903,5.2956,5.3348,5.3024,5.1243,5.0223,4.9872,4.8093,4.7309,4.7309,4.7309,4.7309,4.7309,4.7309,4.7309,4.7309,4.7309,4.7309,4.7309,4.7309,4.7309,4.7309,4.7309,4.7309,4.7309,4.7309,4.7309,4.713,4.6172,4.5873,4.5873,4.5873,4.5973,4.6245,4.7092,4.8188,4.8909,4.8447,4.8831,4.9255,4.9052,4.9018,4.8849,4.8326,4.8225,4.8318,4.87,4.8975,4.9447,5.0307,5.0175,4.9968,4.9968,4.9407,4.903,4.903,4.903,4.8857,4.8333,4.8296,4.8416,4.8673,4.8673,4.8783,4.904,4.9627,4.9968,4.9968,5.0729,5.1344,5.1699,5.2124,5.2663,5.3259,5.4019,5.4656,4.263,4.3279,4.3423,4.3423,4.1745,3.9131,3.5362,3.278,3.0345,2.7309,2.67,2.67,2.67,2.7291,2.8069,2.8874,3.0219,0.0,3.6276,3.7231,3.8663,0.0,4.243,4.3566,4.5805,4.7688,4.8769,4.8769,4.8769,4.9256,5.032,5.0358,5.0358,5.0378,5.1359,5.1885,5.1903,5.2956,5.2956,5.1903,5.0873,4.9852,4.88,4.7764,4.7309,4.7309,4.7309,4.7309,4.7309,4.7309,4.7309,4.7309,4.7309,4.7309,4.7309,4.7309,4.7309,4.7309,4.7309,4.7309,4.7309,4.7309,4.7309,4.7309,4.7279,4.7279,4.7279,4.7279,4.7522,4.7851,4.8216,4.9029,4.9823,5.0045,5.0067,4.988,4.9154,4.9018,4.9018,4.8984,4.8984,4.9432,5.0836,5.0423,5.0376,5.1773,5.1316,5.0802,5.0802,5.0765,5.0765,5.0765,5.0765,5.0105,4.8443,4.8296,4.8673,4.9537,4.961,4.9931,5.0729,5.0765,5.0802,5.0802,5.1573,5.163,5.0933,5.2433,5.3226,5.3315,5.4062,5.5244,3.8874,3.9864,4.029,3.977,3.8316,3.6332,3.3603,3.1674,2.9736,2.7207,2.67,2.67,2.67,2.6894,2.7807,3.0117,3.0896,3.2307,0.0,0.0,0.0,4.0729,4.3446,4.5892,4.775,4.8455,4.9094,4.9832,4.9891,5.0358,5.1359,5.1414,5.1414,5.1414,5.174,5.1903,5.1903,5.2241,5.1885,5.0855,4.9813,4.9114,4.8779,4.7764,4.7309,4.7309,4.7309,4.7309,4.7309,4.7309,4.7309,4.7309,4.7309,4.7309,4.7309,4.7309,4.7309,4.7309,4.7309,4.7309,4.7309,4.7309,4.7309,4.7309,4.7309,4.7309,4.743,4.8136,4.8949,4.9636,4.9921,5.0766,5.1396,5.095,5.0829,5.0642,4.9898,4.9729,4.9593,4.9086,4.9018,4.9286,5.0202,5.058,5.0873,5.1309,5.1077,5.0867,5.0867,5.0384,5.0245,5.0762,5.0802,5.0582,5.0068,5.0021,5.0141,5.0398,5.0398,5.0545,5.0802,5.1316,5.162,5.162,5.1923,5.2179,5.2474,5.2507,5.3358,5.494,5.5172,5.6113,3.6361,3.766,3.807,3.7584,3.6524,3.4968,3.2452,3.0954,2.9456,2.7165,2.67,2.67,2.67,2.6928,2.774,2.9591,3.0649,3.2138,3.4799,3.6442,3.8246,4.0658,4.4049,4.6555,4.7492,4.8698,4.9675,5.0339,5.0741,5.1428,5.2469,5.2522,5.2522,5.2522,5.2522,5.2312,5.1903,5.1903,5.1192,4.9793,4.9114,4.8594,4.821,4.7602,4.7309,4.7309,4.7309,4.7309,0.0,4.7309,4.7309,4.7309,4.7309,4.7309,4.7309,4.7309,4.7309,4.7309,4.7309,4.7309,4.7309,4.7309,4.7309,4.7309,4.7309,4.7581,4.7988,4.8615,4.9852,5.1001,5.1149,5.1979,5.257,5.181,5.1607,5.142,5.0676,5.0507,5.0371,4.9916,4.9814,4.9977,5.0394,5.1051,5.1427,5.1134,5.1479,5.169,5.1378,5.114,5.1209,5.1678,5.1709,5.1709,5.1709,5.1169,5.0949,5.1242,5.101,5.1088,5.1662,5.1672,5.1794,5.2014,5.2089,5.2235,5.2465,5.2874,5.3851,5.5274,5.6148,5.7097,0.0,3.6109,3.6321,3.6254,3.569,3.4393,3.1596,3.0437,0.0,2.7139,2.67,2.6733,2.6835,2.7393,2.7891,2.8162,3.004,3.2215,3.4449,3.6046,3.8298,4.1661,4.4476,4.6058,4.587,4.8674,5.0531,5.0608,5.1502,5.2469,5.3433,5.3518,5.3518,5.3518,5.3416,5.287,5.1813,5.1795,5.0728,4.8697,4.8697,4.8189,4.7309,4.7309,4.7309,4.7309,4.7309,4.7309,4.7309,4.7309,4.7309,4.7309,4.7309,4.7309,4.7309,4.7309,4.7309,4.7309,4.7309,4.7309,4.7309,4.7309,4.7309,4.7309,4.7309,4.8009,4.8841,4.8871,5.0346,5.1921,5.1993,5.2765,5.3315,5.257,5.2401,5.2198,5.1438,5.1269,5.1269,5.1201,5.1201,5.1204,5.1183,5.1759,5.1979,5.1224,5.2246,5.2859,5.2114,5.2686,5.3144,5.3114,5.3114,5.3114,5.3114,5.1768,5.1218,5.1962,5.1338,5.1574,5.3064,5.1861,5.1488,5.2162,5.2242,5.1941,5.1282,5.3457,5.4529,5.4634,5.6865,5.7972,3.0252,0.0,3.1529,3.0963,3.0693,3.0219,0.0,2.8466,2.8035,0.0,0.0,0.0,2.8231,2.8112,2.8737,3.162,3.3017,3.4506,3.6772,3.9519,4.238,4.5405,4.6705,4.7883,4.9138,5.0639,5.1885,5.2713,5.3007,5.3213,5.3501,5.3518,5.3518,5.3518,5.2697,5.1795,5.076,5.0741,4.9714,4.7636,4.7636,4.7538,4.7309,4.7309,4.7309,4.7309,4.7309,4.7309,4.7309,4.7309,4.7309,4.7309,4.7309,4.7309,4.7309,4.7309,4.7309,4.7309,4.7309,4.7309,4.7309,4.7309,4.7309,4.7309,4.7309,4.8009,4.8952,4.9793,5.093,5.2083,5.2904,5.3314,5.345,5.3281,5.3213,5.301,5.2232,5.2063,5.1877,5.1302,5.1201,5.1198,5.1185,5.1793,5.2037,5.1298,5.1926,5.2256,5.1493,5.202,5.2433,5.2373,5.2358,5.2358,5.2358,5.1996,5.1887,5.2068,5.1441,5.1452,5.2399,5.2138,5.2281,5.2981,5.3077,5.2762,5.2049,5.3213,5.4314,5.5462,5.6599,5.7456,2.7816,2.9237,3.0514,3.0117,3.0016,2.9813,2.905,0.0,0.0,0.0,0.0,0.0,0.0,0.0,0.0,3.1935,3.3592,3.5745,3.9378,4.1497,4.3935,4.7239,4.7741,4.8485,5.0237,5.1303,5.2152,5.2715,5.3213,5.3518,5.3518,5.3041,5.2783,5.2783,5.1758,5.0949,5.0397,4.9911,4.8861,4.7309,4.7309,4.7309,4.7309,4.7309,4.7309,4.7309,4.7309,4.7309,4.7309,4.7309,4.7309,4.7309,4.7309,4.7309,4.7309,4.7309,4.7309,4.7309,4.7309,4.7309,4.7309,4.7309,4.7309,4.7366,4.7849,4.8697,4.9655,5.0242,5.1484,5.2783,5.3348,5.3518,5.3518,5.3518,5.3518,5.3382,5.2942,5.2841,5.2739,5.2317,5.2249,5.2148,5.1776,5.2327,5.2452,5.1364,5.208,5.2497,5.178,5.2278,5.2688,5.2651,5.2653,5.2653,5.2653,5.2371,5.219,5.2153,5.1851,5.1981,5.2669,5.2066,5.2072,5.2835,5.2857,5.2875,5.2841,5.3951,5.4766,5.5235,5.6716,5.76,2.7131,2.9237,3.1268,3.0794,3.0852,3.0852,3.0098,0.0,0.0,0.0,0.0,0.0,0.0,2.9025,0.0,0.0,3.4167,3.7403,4.2365,4.3281,4.475,4.8339,4.8561,4.8934,5.0256,5.1465,5.2065,5.1921,5.2887,5.3416,5.3247,5.2383,5.1831,5.1685,5.0684,5.0145,5.0145,4.9256,4.8293,4.7309,4.7309,4.7369,4.7459,4.7459,4.7459,4.7459,4.7459,4.7399,4.7309,4.7309,4.7309,4.7309,4.7429,4.7399,4.7309,4.7429,4.7399,4.7309,4.7309,4.7309,4.7309,4.7309,4.7387,4.7679,4.8532,4.9655,5.0627,5.0627,5.2026,5.3518,5.3518,5.3518,5.3518,5.3518,5.3518,5.3518,5.3518,5.3518,5.3518,5.3518,5.3518,5.3281,5.2604,5.3003,5.2985,5.1754,5.2561,5.3096,5.2393,5.2898,5.3267,5.3175,5.314,5.314,5.314,5.2645,5.2275,5.2207,5.2155,5.2428,5.3106,5.2099,5.1844,5.2469,5.2469,5.2875,5.3687,5.4929,5.5321,5.4992,5.7035,5.8001,2.9059,3.0818,3.1505,2.8949,2.9311,3.0074,2.9339,0.0,0.0,0.0,0.0,0.0,0.0,3.1718,3.2892,0.0,3.9242,4.2483,4.6488,4.6874,4.7665,5.0162,5.0936,5.1025,5.0455,5.2116,5.287,5.1957,5.2887,5.311,5.2205,5.1993,5.1506,5.0646,4.9595,4.9034,4.9034,4.8871,4.8293,4.7309,4.7309,4.7608,4.8169,4.8169,4.8169,4.8169,4.8169,4.7818,4.7309,4.7309,4.7309,4.7369,4.7908,4.7788,4.7369,4.7938,4.7788,4.7309,4.7309,4.7309,4.7309,4.7309,4.7892,4.8594,4.8759,5.0133,5.1685,5.1685,5.2557,5.3518,5.3518,5.3518,5.3518,5.3518,5.3518,5.3518,5.3518,5.3518,5.3518,5.3518,5.3518,5.345,5.3348,5.3415,5.3414,5.3196,5.3311,5.3205,5.2394,5.2941,5.3152,5.2522,5.2453,5.2453,5.2453,5.2345,5.2307,5.23,5.1695,5.1695,5.2436,5.2906,5.3213,5.3315,5.3315,5.3687,5.4431,5.4652,5.5364,5.6493,5.7531,5.798,2.8078,2.9668,3.0852,2.9871,3.1383,3.2871,3.2148,0.0,0.0,0.0,0.0,0.0,0.0,0.0,3.6671,4.0844,4.2997,4.5297,4.8612,4.8511,4.9125,5.1929,5.206,5.1722,5.1248,5.208,5.2205,5.1155,5.1539,5.1612,5.1117,5.0537,4.9997,4.9556,4.8543,4.8171,4.8536,4.8536,4.8309,4.7848,4.7848,4.8199,4.8828,4.8828,4.8648,4.8319,4.8678,4.8468,4.7848,4.8207,4.8169,4.7878,4.8199,4.7878,4.7339,4.7638,4.7549,4.7309,4.7309,4.7309,4.7366,4.7925,4.8408,4.9013,5.0133,5.1155,5.2011,5.2592,5.3127,5.3518,5.3518,5.3518,5.3518,5.3518,5.3518,5.3518,5.3518,5.3518,5.3518,5.3518,5.3518,5.3518,5.3518,5.3518,5.3518,5.3518,5.3518,5.3382,5.301,5.3222,5.3329,5.3003,5.2969,5.2969,5.2969,5.2954,5.2942,5.2942,5.2638,5.2588,5.2942,5.3315,5.3687,5.4093,5.4093,5.4465,5.5209,5.5581,5.613,5.6833,5.7603,5.7945,2.801,2.9161,3.0581,3.1495,0.0,3.4867,3.5024,0.0,0.0,0.0,0.0,0.0,0.0,3.755,4.0426,4.4228,4.5906,4.7631,5.0236,4.9958,5.0476,5.3197,5.2557,5.1903,5.1903,5.1704,5.1229,5.0455,5.0397,5.0281,5.0029,4.9235,4.8697,4.848,4.7851,4.7788,4.8267,4.8468,4.8528,4.8528,4.8528,4.8887,4.9516,4.9516,4.9224,4.8775,4.9307,4.9157,4.8558,4.8917,4.8768,4.8319,4.8319,4.7967,4.7519,4.7369,4.7309,4.7309,4.7309,4.7309,4.7452,4.845,4.8952,4.9516,5.134,5.2065,5.2469,5.328,5.3518,5.3518,5.3518,5.3518,5.3518,5.3518,5.3518,5.3518,5.3518,5.3518,5.3518,5.3518,5.3518,5.3518,5.3518,5.3518,5.3551,5.3721,5.3754,5.3822,5.3991,5.3856,5.3754,5.3754,5.3619,5.3518,5.3518,5.3653,5.3754,5.3754,5.3585,5.3585,5.3754,5.3754,5.4093,5.4837,5.4871,5.5209,5.5969,5.6528,5.69,5.707,5.7645,5.7983,3.1345,3.1505,3.1461,3.2882,0.0,0.0,3.6017,0.0,0.0,0.0,0.0,0.0,0.0,4.1068,4.3592,4.5331,4.797,5.0353,5.1928,5.2081,5.2403,5.3365,5.2557,5.1903,5.1903,5.1043,5.0474,5.0397,5.0397,4.997,4.8952,4.883,4.8377,4.743,4.7921,4.8259,4.8319,4.8917,4.9239,4.9239,4.9239,4.9553,5.0159,5.0159,5.0129,5.0069,5.0106,4.9793,4.9187,4.8618,4.8349,4.8319,4.8319,4.8289,4.8169,4.7519,4.7309,4.7309,4.7309,4.7309,4.7452,4.845,4.9476,5.0493,5.1561,5.2592,5.3399,5.3501,5.3518,5.3518,5.3518,5.3518,5.3518,5.3518,5.3518,5.3518,5.3518,5.3518,5.3518,5.3518,5.3518,5.3518,5.3518,5.3518,5.3721,5.4397,5.4499,5.4769,5.5462,5.4938,5.4499,5.4499,5.3923,5.3518,5.3518,5.4126,5.4499,5.4499,5.389,5.3822,5.4482,5.4499,5.4871,5.5597,5.5631,5.5969,5.6731,5.6765,5.7137,5.7832,5.79,5.8254,3.0161,3.0693,3.1562,3.3051,0.0,0.0,0.0,0.0,0.0,0.0,0.0,0.0,0.0,0.0,4.4925,4.7361,4.9458,5.1319,5.2841,5.3044,5.2893,5.2559,5.2498,5.1848,5.0158,5.0013,4.9582,4.8553,4.846,4.8303,4.7913,4.8256,4.8304,4.793,4.8588,4.9105,4.9471,4.971,5.0092,5.0481,5.0062,5.0189,5.0817,5.0398,5.0196,5.0196,5.0196,4.9883,4.9307,4.9434,4.9015,4.8259,4.7848,4.7668,4.7638,4.7399,4.7309,4.7309,4.7309,4.77,4.8418,4.9456,5.0493,5.1539,5.2575,5.3179,5.3518,5.3518,5.3518,5.3518,5.3518,5.3518,5.3518,5.3518,5.3518,5.3518,5.3518,5.3518,5.3518,5.3518,5.3518,5.3518,5.3518,5.3518,5.3585,5.3856,5.3923,5.4194,5.4905,5.4769,5.4769,5.5243,5.5023,5.4853,5.4853,5.5124,5.5259,5.5259,5.5023,5.4989,5.5277,5.5259,5.5631,5.6393,5.6393,5.6765,5.7476,5.7476,5.7629,5.7934,5.8355,5.8709,2.9948,3.0422,3.1562,0.0,0.0,0.0,0.0,0.0,0.0,0.0,0.0,0.0,0.0,0.0,4.6123,4.8612,5.0165,5.1531,5.2806,5.2913,5.2569,5.1829,5.2053,5.1608,5.0066,4.9748,4.9298,4.8473,4.8126,4.7938,4.7938,4.8379,4.8618,4.8618,4.9247,4.9793,5.0196,5.0405,5.0757,5.1176,5.0518,5.0458,5.0877,5.0405,5.0099,4.992,4.992,4.9673,4.9307,4.9523,4.8955,4.7938,4.7489,4.7309,4.7309,4.7309,4.7309,4.7352,4.7658,4.821,4.9013,5.0435,5.134,5.2083,5.3161,5.3518,5.3518,5.3518,5.3518,5.3518,5.3518,5.3518,5.3518,5.3518,5.3518,5.3518,5.3518,5.3518,5.3518,5.3518,5.3518,5.3518,5.3518,5.3518,5.3585,5.3822,5.3856,5.4126,5.4837,5.4938,5.5141,5.5665,5.5699,5.5699,5.5699,5.5902,5.6037,5.6037,5.6274,5.6274,5.6037,5.6037,5.6375,5.7137,5.7137,5.7408,5.79,5.79,5.8017,5.8254,5.8743,5.925,3.1596,3.12,3.1562,0.0,0.0,0.0,0.0,0.0,0.0,0.0,0.0,4.6583,4.5858,4.6297,4.7293,4.8766,5.0009,5.1047,5.1804,5.162,5.1414,5.1394,5.1027,5.1183,5.2183,5.0457,4.9716,5.0706,4.9863,4.9277,4.9277,4.9307,4.9307,4.9307,4.989,5.0196,5.0196,5.0877,5.1206,5.1176,5.0518,5.0196,5.0196,5.0196,4.9883,4.9277,4.9299,4.9299,4.9217,4.8558,4.7908,4.7309,4.7309,4.7309,4.7309,4.7309,4.7309,4.743,4.848,4.8841,4.9155,5.1229,5.1921,5.2101,5.3179,5.3518,5.3518,5.3518,5.3518,5.3518,5.3518,5.3518,5.3518,5.3518,5.3518,5.3518,5.3518,5.3518,5.3518,5.3518,5.3518,5.3518,5.3518,5.3518,5.3754,5.4482,5.4583,5.4871,5.5597,5.5699,5.5699,5.5699,5.5733,5.5733,5.5733,5.6375,5.6799,5.6799,5.7476,5.7577,5.6833,5.6799,5.7137,5.79,5.79,5.79,5.7934,5.7934,5.8287,5.9013,5.9013,5.9844,3.0683,3.12,3.2598,3.5159,0.0,0.0,0.0,0.0,0.0,0.0,5.0135,4.8664,4.7233,4.7138,4.7619,4.8564,4.9885,5.1047,5.1804,5.2202,5.1907,5.0451,5.1014,5.1154,5.0258,5.005,4.9869,4.9769,4.9479,4.9277,4.9277,4.9703,4.992,4.992,5.0548,5.0907,5.0907,5.1086,5.1206,5.1176,5.0518,5.0196,5.0166,4.9262,4.9015,4.9247,4.8798,4.8588,4.8558,4.7878,4.7489,4.7309,4.7309,4.7309,4.7366,4.8093,4.7904,4.7559,4.9296,4.9931,5.0145,5.1469,5.2401,5.3093,5.3399,5.3518,5.3518,5.3518,5.3518,5.3518,5.3518,5.3518,5.3518,5.3518,5.3518,5.3518,5.3518,5.3518,5.3518,5.3518,5.3518,5.3518,5.3518,5.3518,5.3585,5.3788,5.3822,5.4093,5.4837,5.5818,5.6461,5.6461,5.6934,5.7239,5.7239,5.7442,5.7577,5.7577,5.7798,5.778,5.7577,5.7577,5.7697,5.79,5.79,5.8152,5.8693,5.8693,5.9066,5.981,6.0351,6.0858,3.1901,3.2926,3.4798,3.7799,4.0912,4.433,4.8665,0.0,0.0,0.0,5.1589,5.0167,4.9025,4.8575,4.8488,4.8828,4.9489,5.0169,5.0587,5.1131,5.1023,4.9766,5.0742,5.1174,5.0131,5.0368,5.0458,5.0062,5.0032,5.0032,5.0032,5.0398,5.0607,5.0607,5.0996,5.1206,5.1206,5.1206,5.1206,5.1176,5.0301,4.9853,4.9823,4.8775,4.8379,4.8498,4.8079,4.7908,4.7878,4.7459,4.7309,4.7352,4.7743,4.7636,4.7473,4.8902,4.8779,4.8168,5.0281,5.0986,5.1155,5.2205,5.2956,5.3551,5.3856,5.3923,5.3991,5.4296,5.438,5.438,5.438,5.438,5.4211,5.3653,5.3518,5.3518,5.3518,5.3518,5.3518,5.3518,5.3518,5.3518,5.3518,5.3518,5.3518,5.3518,5.3518,5.3788,5.4516,5.5615,5.6494,5.6765,5.7442,5.778,5.7476,5.7442,5.7442,5.7442,5.7442,5.7577,5.79,5.79,5.8017,5.8321,5.8355,5.8693,5.9419,5.9419,5.9844,6.0588,6.1061,6.1467,3.4178,3.5566,3.7528,4.0629,4.3301,4.6462,5.1217,5.2367,5.2588,5.3197,5.2235,5.1112,5.0713,5.0073,4.9541,4.9303,4.9008,4.882,4.8882,4.9196,4.9442,4.9389,5.0451,5.1206,5.1206,5.1206,5.1206,5.1206,5.1206,5.1206,5.1206,5.1206,5.1206,5.1206,5.1206,5.1206,5.1206,5.1206,5.1176,5.1086,4.9875,4.9269,4.9187,4.8528,4.7878,4.7309,4.7309,4.7309,4.7309,4.7309,4.7309,4.7387,4.8418,4.8231,4.7679,4.9754,4.9872,4.9256,5.1406,5.2074,5.2197,5.3313,5.3721,5.3822,5.4499,5.4719,5.4837,5.5496,5.5699,5.5699,5.5699,5.5699,5.5361,5.4008,5.3721,5.3721,5.3721,5.3721,5.3721,5.3721,5.3721,5.3721,5.3721,5.3721,5.3721,5.3721,5.3721,5.3957,5.46,5.531,5.5969,5.663,5.7306,5.7442,5.6867,5.6799,5.6833,5.69,5.69,5.7205,5.7866,5.79,5.822,5.8878,5.8979,5.9351,6.0114,6.0182,6.0622,6.14,6.14,6.1772,3.3288,3.5182,3.7799,4.1901,4.6365,5.0236,5.1928,5.2807,5.3045,5.2367,5.1976,5.1241,4.9528,4.9111,4.8968,4.8905,4.8839,4.8986,4.9512,5.0105,5.0345,5.0034,5.0697,5.1206,5.1206,5.1206,5.1206,5.1206,5.1206,5.1206,5.1206,5.1206,5.1206,5.1206,5.1206,5.1206,5.1206,5.1206,5.0936,5.0428,4.9666,4.9007,4.8498,4.7818,4.7429,4.7309,4.7309,4.7309,4.7309,4.7309,4.7309,4.7387,4.8418,4.8677,4.8738,5.0817,5.093,5.0454,5.3083,5.3461,5.3026,5.4692,5.5225,5.5259,5.5428,5.5462,5.5496,5.5665,5.5699,5.5699,5.5699,5.5699,5.5631,5.5293,5.5225,5.5225,5.5225,5.5225,5.5225,5.5225,5.5225,5.5225,5.5225,5.5225,5.5225,5.5225,5.5225,5.5293,5.5428,5.5597,5.5767,5.5902,5.6071,5.6341,5.6765,5.6799,5.7036,5.7629,5.7645,5.7712,5.79,5.79,5.7949,5.8118,5.8727,5.9351,6.0114,6.0723,6.1434,6.2144,6.2144,6.2245,3.3852,3.6637,4.0155,4.5331,4.8901,5.1472,5.2638,5.3213,5.3059,5.1521,5.1543,5.1266,4.9175,4.882,4.8636,4.8147,4.8368,4.8673,4.9038,4.99,5.0447,5.0205,5.0787,5.1206,5.1206,5.1206,5.1206,5.1206,5.1206,5.1206,5.1206,5.1206,5.1206,5.1206,5.1206,5.1056,5.0727,5.0727,5.0398,4.9763,4.9127,4.8468,4.7818,4.7459,4.7309,4.7309,4.7309,4.7309,4.7309,4.7309,4.7309,4.7452,4.8983,4.9256,4.9146,5.2101,5.2539,5.1978,5.4313,5.4759,5.4454,5.5372,5.5699,5.5767,5.6105,5.624,5.6308,5.6664,5.6765,5.6765,5.6765,5.6765,5.6765,5.6765,5.6206,5.5699,5.5699,5.5699,5.5699,5.5699,5.5699,5.5699,5.5699,5.5699,5.5699,5.5699,5.5699,5.5699,5.5699,5.6003,5.624,5.624,5.6562,5.6765,5.6799,5.6799,5.6968,5.734,5.7374,5.7509,5.79,5.79,5.8051,5.8423,5.9167,5.9708,6.0114,6.0926,6.1298,6.1298,6.1298,6.1501,3.4461,3.8316,4.2963,4.8661,5.0642,5.1607,5.3145,5.3348,5.2696,5.0779,5.1061,5.1024,4.8912,4.8532,4.8272,4.743,4.7848,4.8349,4.8468,4.9471,5.0226,5.0345,5.0877,5.1206,5.1206,5.1206,5.1206,5.1206,5.1206,5.1206,5.1206,5.1206,5.1206,5.1206,5.1206,5.0877,5.0196,5.0196,4.983,4.9127,4.8468,4.7848,4.7309,4.7309,4.7309,4.7309,4.7309,4.7309,4.7309,4.7309,4.7387,4.7743,4.9812,5.0148,4.9967,5.3503,5.4231,5.3708,5.535,5.5902,5.5902,5.6037,5.6071,5.6172,5.6799,5.7002,5.7103,5.7712,5.79,5.79,5.79,5.79,5.79,5.79,5.6968,5.6071,5.6071,5.6071,5.6071,5.6071,5.6071,5.6071,5.6071,5.6071,5.6071,5.6071,5.6071,5.6071,5.6071,5.6494,5.6799,5.6799,5.7239,5.7306,5.6833,5.6799,5.6867,5.6968,5.7002,5.7273,5.7866,5.79,5.8186,5.8776,5.9539,5.9911,5.9911,6.0723,6.0757,6.0114,6.025,6.0655,3.3074,3.8316,4.4234,4.8932,5.0642,5.1607,5.3145,5.28,5.1795,5.0627,5.0512,4.997,4.7892,4.7495,4.7452,4.7331,4.7848,4.8498,4.9067,4.9763,5.0428,5.0996,5.1146,5.1206,5.1206,5.1206,5.1206,5.1206,5.1206,5.1206,5.1206,5.1206,5.1206,5.1206,5.1206,5.0877,5.0196,5.0196,4.9591,4.8438,4.7758,4.7399,4.7309,4.7309,4.7309,4.7309,4.7309,4.7309,4.7309,4.7309,4.7828,4.88,5.0624,5.1816,5.2688,5.4769,5.546,5.5473,5.634,5.6664,5.6765,5.7408,5.7629,5.7611,5.773,5.7764,5.7764,5.7866,5.79,5.79,5.79,5.79,5.79,5.79,5.7764,5.7629,5.7629,5.7629,5.7629,5.7629,5.7629,5.7629,5.7629,5.7629,5.7629,5.7629,5.7629,5.7629,5.7629,5.7137,5.6799,5.6799,5.6308,5.6206,5.6765,5.6799,5.707,5.7712,5.7764,5.7798,5.79,5.79,5.7967,5.8017,5.8795,5.9148,5.9148,5.9911,6.0216,6.0114,6.0825,6.1197,3.525,3.9297,4.3355,4.8274,5.0033,5.0818,5.1763,5.1943,5.1433,4.9832,4.9496,4.9065,4.7581,4.7309,4.7309,4.7309,4.8199,4.8947,4.9247,5.0152,5.0877,5.1146,5.1206,5.1206,5.1206,5.1206,5.1206,5.1206,5.1206,5.1206,5.1206,5.1206,5.1026,5.0667,5.0637,5.0159,4.9164,4.9134,4.8686,4.7728,4.7429,4.7309,4.7309,4.7309,4.7309,4.7309,4.7309,4.7309,4.7339,4.7698,4.8123,4.8746,5.1121,5.2313,5.2991,5.5451,5.6308,5.6427,5.7171,5.7408,5.7476,5.7798,5.79,5.79,5.79,5.79,5.79,5.79,5.79,5.79,5.79,5.79,5.79,5.79,5.79,5.79,5.79,5.79,5.79,5.79,5.79,5.79,5.79,5.79,5.79,5.79,5.79,5.79,5.79,5.7611,5.7408,5.7408,5.7137,5.707,5.7374,5.7408,5.7543,5.79,5.79,5.79,5.79,5.79,5.79,5.79,5.8626,5.8776,5.8389,5.9133,5.9471,5.9487,5.9859,6.0486,3.596,3.8802,4.1238,4.6075,4.8256,4.937,5.0066,5.0573,5.0478,4.9083,4.8594,4.8168,4.743,4.7309,4.7309,4.7309,4.8267,4.9097,4.9299,5.0242,5.0996,5.1176,5.1206,5.1116,5.0966,5.0936,5.0877,5.075,5.072,5.072,5.072,5.072,5.0511,4.9979,4.9979,4.9411,4.8319,4.8139,4.7788,4.7309,4.7309,4.7309,4.7309,4.7581,4.7628,4.7549,4.7369,4.7399,4.76,4.8377,4.8984,4.9619,5.2215,5.3382,5.3889,5.6224,5.707,5.7171,5.7712,5.79,5.79,5.79,5.79,5.79,5.79,5.79,5.79,5.79,5.8017,5.8186,5.8186,5.8321,5.8475,5.8475,5.8475,5.8373,5.8001,5.79,5.79,5.79,5.79,5.79,5.79,5.79,5.79,5.79,5.79,5.79,5.79,5.79,5.79,5.79,5.79,5.79,5.79,5.79,5.79,5.79,5.8103,5.8186,5.8186,5.8355,5.8475,5.8475,5.8998,5.893,5.8186,5.8709,5.9081,5.9284,5.9487,6.0197,3.2635,3.5318,3.7934,4.1724,4.4668,4.7029,4.8411,4.8344,4.8155,4.8686,4.8051,4.7374,4.7309,4.7309,4.7309,4.7309,4.7878,4.8588,4.9187,4.9853,5.0488,5.1116,5.1206,5.0936,5.0315,5.0255,5.0009,4.9426,4.9396,4.9396,4.9396,4.9396,4.9366,4.9337,4.9337,4.9007,4.8319,4.7668,4.7339,4.7309,4.7309,4.7309,4.7331,4.8293,4.8556,4.8229,4.7578,4.7668,4.8347,4.937,5.0776,5.2457,5.4417,5.5751,5.6673,5.7507,5.7832,5.7866,5.79,5.79,5.79,5.79,5.79,5.79,5.79,5.79,5.79,5.79,5.8389,5.8945,5.8945,5.9471,5.9979,5.9979,5.9979,5.9607,5.8204,5.79,5.79,5.79,5.79,5.79,5.79,5.79,5.79,5.79,5.79,5.79,5.79,5.79,5.79,5.79,5.79,5.79,5.79,5.79,5.79,5.79,5.8558,5.8945,5.8945,5.9607,5.9979,5.9979,6.0013,5.9674,5.8945,5.8979,5.9351,6.0047,6.0825,6.1231,3.1495,3.3964,3.6705,3.9491,4.1969,4.406,4.5239,4.6405,4.7225,4.7207,4.7258,4.7309,4.7309,4.7309,4.7309,4.7309,4.8207,4.9037,4.9269,5.0182,5.0787,5.0578,5.0578,5.0308,4.9673,4.9613,4.9546,4.9307,4.9277,4.9277,4.9277,4.9277,4.9097,4.8678,4.8648,4.8349,4.7668,4.7429,4.7309,4.7309,4.7309,4.7519,4.7959,4.8291,4.8662,4.8917,4.8678,4.912,5.0076,5.1643,5.264,5.3375,5.5195,5.6092,5.6539,5.7527,5.79,5.79,5.79,5.79,5.79,5.79,5.79,5.7983,5.8457,5.8626,5.8693,5.9167,5.9505,5.9708,5.9708,5.9911,6.0114,6.0114,6.0114,5.9945,5.9438,5.9302,5.9302,5.9302,5.9302,5.9302,5.9302,5.9302,5.9133,5.8693,5.8998,5.9133,5.866,5.9032,5.9133,5.866,5.8626,5.8626,5.8626,5.8626,5.8829,5.9268,5.9573,5.9708,5.9708,5.9945,6.0114,6.0114,6.0114,5.9979,5.9708,5.9708,6.0114,6.0892,6.1163,6.1535,3.0006,0.0,0.0,3.728,3.8891,4.0619,4.3226,4.4447,4.5297,4.6139,4.6659,4.7018,4.7279,4.7309,4.7309,4.7309,4.8027,4.8708,4.8917,4.9673,5.0129,4.992,4.989,4.9643,4.9037,4.8947,4.8858,4.8648,4.8618,4.8618,4.8618,4.8618,4.8438,4.7967,4.7967,4.7758,4.7309,4.7309,4.7309,4.7309,4.7519,4.7878,4.8319,4.8895,4.9304,4.9651,5.0782,5.1239,5.1377,5.2951,5.3926,5.4628,5.6175,5.6758,5.6854,5.7628,5.79,5.79,5.79,5.79,5.7934,5.8186,5.8254,5.8423,5.9167,5.9351,5.9453,5.9945,6.0283,6.0486,6.0486,6.0689,6.0858,6.0858,6.0858,6.0858,6.0858,6.0452,6.0114,6.0114,6.0114,6.0114,6.0114,6.0114,5.9945,5.9419,5.981,5.9911,5.9419,5.981,5.9911,5.9419,5.9351,5.9351,5.9351,5.9351,5.9573,6.008,6.0351,6.0486,6.0486,6.0723,6.0858,6.0858,6.0858,6.0858,6.0858,6.0622,6.0892,6.167,6.167,6.1907,0.0,0.0,0.0,0.0,3.5356,3.6708,4.2247,4.234,4.2182,4.5493,4.6181,4.642,4.716,4.7309,4.7309,4.7309,4.7309,4.7549,4.8229,4.8319,4.8558,4.9187,4.9247,4.9007,4.8349,4.8289,4.7997,4.7369,4.7309,4.7309,4.7309,4.7309,4.7309,4.7309,4.7309,4.7309,4.7309,4.7339,4.7339,4.7339,4.7997,4.8349,4.8401,5.0039,5.0603,5.0402,5.3594,5.3797,5.2017,5.3235,5.472,5.636,5.748,5.79,5.79,5.79,5.79,5.79,5.79,5.7934,5.8051,5.8795,5.9013,5.9148,5.9911,6.0148,6.0148,6.0148,6.0723,6.1332,6.1332,6.1873,6.24,6.24,6.24,6.24,6.24,6.1231,6.0182,6.0182,6.0182,6.0182,6.0182,6.0182,6.0148,6.0148,6.0148,6.0148,6.0148,6.0148,6.0148,6.0148,6.0148,6.0148,6.0148,6.0148,6.0148,6.0182,6.0892,6.1332,6.1332,6.2009,6.24,6.24,6.24,6.24,6.24,6.167,6.1704,6.24,6.24,6.24,2.9155,0.0,0.0,0.0,0.0,0.0,3.5749,3.6744,3.8332,4.2601,4.3469,4.4277,4.683,4.7309,4.7309,4.7309,4.7698,4.8087,4.8289,4.8708,4.8917,4.8618,4.8588,4.8319,4.7638,4.7578,4.7489,4.7309,4.7309,4.7309,4.7309,4.7309,4.7309,4.7309,4.7309,4.7309,4.7309,4.7788,4.8027,4.8027,4.8708,4.9254,4.968,5.0148,5.0577,5.0953,5.1872,5.2401,5.2841,5.5575,5.6984,5.7446,5.779,5.79,5.79,5.79,5.79,5.79,5.79,5.8254,5.8709,5.8912,5.9351,5.9945,6.0723,6.096,6.1095,6.1603,6.1907,6.2096,6.2096,6.2245,6.24,6.24,6.24,6.24,6.24,6.2042,6.1738,6.1738,6.1738,6.1738,6.1738,6.1738,6.1569,6.1061,6.096,6.096,6.096,6.096,6.096,6.096,6.096,6.096,6.096,6.096,6.1197,6.1738,6.1975,6.2096,6.2096,6.2299,6.24,6.24,6.24,6.24,6.24,6.2178,6.2178,6.24,6.24,6.24,0.0,0.0,0.0,0.0,0.0,0.0,3.454,3.5383,3.6716,4.1093,4.2201,4.314,4.5603,4.6292,4.6561,4.6839,4.7459,4.7878,4.7878,4.8207,4.8319,4.7908,4.7878,4.7728,4.7339,4.7309,4.7309,4.7309,4.7309,4.7309,4.7309,4.7309,4.7309,4.7309,4.7309,4.7429,4.7698,4.8087,4.8438,4.8708,4.9374,4.9883,5.0196,5.0488,5.0817,5.1253,5.1704,5.2313,5.3099,5.553,5.6509,5.6509,5.6509,5.6811,5.7204,5.7204,5.77,5.8355,5.8355,5.8829,5.9487,5.9859,6.025,6.0757,6.1535,6.1772,6.1839,6.2299,6.24,6.24,6.24,6.24,6.24,6.24,6.24,6.24,6.24,6.24,6.24,6.24,6.24,6.24,6.24,6.24,6.2245,6.1806,6.1772,6.1772,6.1772,6.1772,6.1772,6.1772,6.1772,6.1772,6.1772,6.1772,6.1941,6.2347,6.24,6.24,6.24,6.24,6.24,6.24,6.24,6.24,6.24,6.24,6.24,6.24,6.24,6.24,0.0,0.0,0.0,0.0,0.0,0.0,3.5611,3.584,3.6118,3.9876,4.1104,4.2002,4.3599,4.4347,4.4975,4.5642,4.642,4.704,4.7279,4.7309,4.7309,4.7309,4.7309,4.7309,4.7309,4.7309,4.7309,4.7309,4.7309,4.7309,4.7309,4.7309,4.7309,4.7309,4.7369,4.7698,4.8267,4.8446,4.8828,4.9396,5.0009,5.0315,5.0315,5.0936,5.1206,5.1276,5.226,5.2701,5.2767,5.3806,5.4379,5.461,5.4734,5.5337,5.6224,5.6439,5.7554,5.9013,5.9081,5.9607,6.0351,6.1061,6.1366,6.1535,6.2178,6.24,6.24,6.24,6.24,6.24,6.24,6.24,6.24,6.24,6.24,6.24,6.24,6.24,6.24,6.24,6.24,6.24,6.24,6.24,6.24,6.24,6.2333,6.2333,6.24,6.2333,6.2333,6.2381,6.24,6.24,6.24,6.24,6.24,6.24,6.24,6.24,6.24,6.24,6.24,6.24,6.24,6.24,6.24,6.24,6.24,6.24,6.24,6.24,3.4181,3.3617,3.2948,0.0,0.0,0.0,3.0591,3.1354,3.2961,3.5356,3.5941,3.7092,4.0516,4.1265,4.1564,4.2271,4.3778,4.5433,4.707,4.7309,4.7309,4.7309,4.7309,4.7309,4.7309,4.7309,4.7309,4.7309,4.7309,4.7309,4.7309,4.7309,4.7309,4.7309,4.7818,4.8169,4.8319,4.9321,4.989,5.0039,5.0697,5.0996,5.0996,5.1146,5.1206,5.1229,5.1433,5.1519,5.1572,5.1773,5.2945,5.4693,5.5538,5.6028,5.6367,5.7892,5.8695,5.9081,5.9674,6.0419,6.1095,6.1264,6.1704,6.2212,6.2367,6.24,6.24,6.24,6.24,6.24,6.24,6.24,6.24,6.24,6.24,6.24,6.24,6.24,6.24,6.24,6.24,6.24,6.24,6.24,6.24,6.24,6.1873,6.1738,6.2313,6.1873,6.1738,6.2347,6.24,6.24,6.24,6.24,6.24,6.24,6.24,6.24,6.24,6.24,6.24,6.24,6.24,6.24,6.24,6.24,6.24,6.24,6.24,6.24,3.6033,3.4844,3.3767,3.2764,0.0,0.0,0.0,3.1286,3.2168,3.4532,3.4488,3.4907,3.7883,3.8691,3.923,4.0247,4.2611,4.4536,4.5194,4.6471,4.7309,4.7309,4.7309,4.7309,4.7309,4.7309,4.7309,4.7309,4.7309,4.7309,4.7309,4.7309,4.7459,4.7788,4.8117,4.8596,4.9254,4.989,5.0368,5.0697,5.1026,5.1206,5.1206,5.1206,5.1206,5.1206,5.1206,5.1206,5.1206,5.1206,5.2429,5.4323,5.4475,5.5134,5.6137,5.7639,5.9036,6.0197,6.0588,6.1197,6.1839,6.1839,6.211,6.24,6.24,6.24,6.24,6.24,6.24,6.24,6.24,6.2651,6.2956,6.2956,6.3226,6.3497,6.3497,6.3497,6.3497,6.3497,6.3497,6.326,6.2536,6.24,6.24,6.24,6.2076,6.1975,6.2367,6.2076,6.1975,6.2367,6.24,6.24,6.24,6.24,6.24,6.24,6.24,6.24,6.24,6.24,6.255,6.2956,6.2956,6.3125,6.3497,6.3497,6.3125,6.2415,6.2787,6.2956,0.0,0.0,0.0,0.0,0.0,3.2691,0.0,0.0,0.0,3.4157,3.3784,3.3664,3.54,3.6118,3.6849,3.8075,4.0917,4.2771,4.2263,4.4476,4.6292,4.6681,4.695,4.713,4.713,4.689,4.689,4.7279,4.695,4.689,4.7279,4.7309,4.7608,4.8289,4.8438,4.9045,5.0196,5.0338,5.0667,5.1206,5.1206,5.1206,5.1206,5.1206,5.1206,5.1206,5.1206,5.1206,5.1206,5.1325,5.2281,5.3635,5.3503,5.4589,5.6397,5.7679,5.9488,6.1332,6.1467,6.1907,6.24,6.24,6.24,6.24,6.24,6.24,6.24,6.24,6.2482,6.2618,6.2618,6.3159,6.3714,6.3714,6.4174,6.4613,6.4613,6.4613,6.4613,6.4613,6.4613,6.4208,6.3024,6.2821,6.2773,6.2618,6.2618,6.255,6.2434,6.24,6.24,6.24,6.24,6.24,6.24,6.24,6.2448,6.2584,6.2618,6.2685,6.2821,6.2821,6.3091,6.368,6.3714,6.3984,6.4613,6.4613,6.4005,6.2821,6.3429,6.3714,0.0,0.0,0.0,0.0,3.5609,0.0,0.0,0.0,0.0,3.136,0.0,3.1989,3.2811,0.0,0.0,3.4053,3.6447,3.8165,3.8075,4.0367,4.2701,4.4436,4.5702,4.642,4.642,4.5343,4.5373,4.7189,4.5663,4.5424,4.7219,4.7309,4.7608,4.8289,4.8887,4.9494,5.0196,5.0787,5.1116,5.1206,5.1206,5.1206,5.1206,5.1206,5.1206,5.1206,5.1206,5.1206,5.1236,5.1858,5.2222,5.2607,5.4609,5.6536,5.8399,6.02,6.1033,6.14,6.2042,6.2333,6.24,6.24,6.24,6.24,6.24,6.24,6.24,6.24,6.2854,6.3376,6.3376,6.3937,6.4478,6.4478,6.4546,6.4613,6.4613,6.4613,6.4613,6.4613,6.4613,6.4546,6.4377,6.4343,6.414,6.3477,6.3376,6.3159,6.2502,6.24,6.24,6.24,6.24,6.24,6.24,6.24,6.2685,6.3308,6.3376,6.3666,6.4309,6.4343,6.4377,6.4478,6.4478,6.4512,6.4613,6.4613,6.4512,6.4343,6.4444,6.4478,0.0,0.0,0.0,0.0,0.0,0.0,3.2946,0.0,3.1749,0.0,0.0,0.0,0.0,0.0,0.0,0.0,3.5459,3.7135,3.6417,3.8242,4.0415,4.2372,4.312,4.3748,4.4506,4.4057,4.4566,4.657,4.5224,4.5185,4.7189,4.7309,4.7788,4.8858,4.9157,4.9786,5.0787,5.1056,5.1206,5.1206,5.1206,5.1206,5.1206,5.1206,5.1206,5.1206,5.1206,5.1415,5.1798,5.2097,5.306,5.4479,5.549,5.678,5.8266,5.9707,6.0991,6.1975,6.2299,6.24,6.24,6.24,6.24,6.24,6.24,6.2685,6.3057,6.3057,6.3565,6.414,6.414,6.4681,6.5222,6.5222,6.5561,6.5899,6.5899,6.5899,6.5899,6.5899,6.5899,6.5899,6.5899,6.5155,6.4478,6.4174,6.414,6.4038,6.37,6.3666,6.3666,6.3666,6.3666,6.3666,6.3666,6.3666,6.3802,6.414,6.414,6.4275,6.458,6.4613,6.4783,6.5222,6.5222,6.5459,6.5899,6.5899,6.5899,6.5865,6.5425,6.5222,3.9753,0.0,0.0,0.0,0.0,0.0,0.0,0.0,0.0,0.0,0.0,0.0,0.0,0.0,0.0,0.0,0.0,3.6207,3.51,3.5998,3.7644,4.0026,4.0804,4.1564,4.2681,4.2293,4.2951,4.5313,4.4087,4.4326,4.6869,4.7219,4.7908,4.9247,4.9456,5.0062,5.1176,5.1206,5.1206,5.1206,5.1206,5.1206,5.1206,5.1385,5.1475,5.1475,5.1678,5.2037,5.2486,5.2665,5.3844,5.5558,5.6068,5.7007,5.8211,5.9364,6.0911,6.24,6.24,6.24,6.24,6.24,6.2516,6.2685,6.2685,6.3226,6.3781,6.3781,6.4343,6.4884,6.4884,6.5459,6.6,6.6,6.6406,6.6791,6.6791,6.6791,6.6791,6.6791,6.6791,6.6791,6.6791,6.5912,6.5121,6.4918,6.4884,6.4816,6.4613,6.4613,6.4613,6.4613,6.4613,6.4613,6.4613,6.4613,6.4681,6.4884,6.5087,6.5222,6.5222,6.5222,6.5459,6.6,6.6,6.6271,6.6791,6.6791,6.6791,6.6791,6.6237,6.6,0.0,0.0,0.0,3.7481,0.0,0.0,0.0,0.0,3.516,0.0,0.0,0.0,0.0,0.0,0.0,0.0,0.0,0.0,0.0,3.3066,3.3888,3.7135,3.926,4.0696,4.1403,3.9697,3.9918,4.324,4.1654,4.2203,4.6121,4.6929,4.7908,4.9247,4.986,5.0518,5.1176,5.1206,5.1206,5.1206,5.1206,5.1206,5.1206,5.1887,5.2157,5.2187,5.2869,5.3169,5.3228,5.3862,5.4186,5.4449,5.6234,5.7706,5.8915,6.0128,6.1324,6.24,6.24,6.24,6.24,6.24,6.2888,6.3443,6.3443,6.4005,6.4546,6.4546,6.5087,6.5683,6.5683,6.6203,6.6757,6.6757,6.6757,6.6791,6.6791,6.6791,6.6791,6.6791,6.6791,6.6791,6.6791,6.6757,6.6508,6.5764,6.5683,6.5412,6.4681,6.4613,6.4613,6.4613,6.4613,6.4613,6.4613,6.4613,6.4884,6.5615,6.6339,6.6724,6.6724,6.6724,6.6724,6.6757,6.6757,6.6757,6.6791,6.6791,6.6791,6.6791,6.6757,6.6757,0.0,0.0,4.3469,3.9948,0.0,0.0,0.0,0.0,0.0,0.0,0.0,0.0,0.0,0.0,0.0,0.0,0.0,0.0,0.0,0.0,3.1914,0.0,0.0,0.0,3.8661,3.8559,3.9607,4.2511,4.1703,4.2581,4.6121,4.651,4.7459,4.9217,4.9516,5.0122,5.1176,5.1206,5.1206,5.1206,5.1648,5.1858,5.1887,5.2546,5.2869,5.2845,5.3109,5.3443,5.3892,5.4132,5.4461,5.493,5.556,5.6541,5.7854,5.9849,6.1358,6.2468,6.2956,6.3125,6.3226,6.37,6.4038,6.4241,6.4241,6.4749,6.5324,6.5324,6.5865,6.644,6.644,6.6609,6.6791,6.6791,6.6791,6.6791,6.6791,6.6791,6.6791,6.6791,6.6791,6.6791,6.6791,6.6791,6.6724,6.6474,6.644,6.6339,6.6102,6.6068,6.6068,6.6068,6.6068,6.6068,6.6068,6.6068,6.617,6.6406,6.6677,6.6791,6.6791,6.6791,6.6791,6.6791,6.6791,6.6791,6.6791,6.6791,6.6791,6.6791,6.6791,6.6791,4.4855,4.5394,0.0,4.2491,4.1624,0.0,3.7883,0.0,0.0,0.0,0.0,0.0,0.0,0.0,0.0,0.0,0.0,0.0,0.0,3.1166,0.0,0.0,0.0,0.0,0.0,3.6806,3.7871,4.0745,4.0146,4.1194,4.4736,4.5553,4.686,4.8887,4.9396,5.0122,5.1176,5.1415,5.1558,5.1535,5.2247,5.2546,5.2576,5.3234,5.3563,5.3563,5.3827,5.4162,5.4551,5.4551,5.482,5.5229,5.5675,5.659,5.7831,5.939,6.1161,6.2888,6.3632,6.3903,6.3951,6.4444,6.4783,6.4986,6.4986,6.5493,6.6102,6.6102,6.644,6.6791,6.6791,6.6791,6.6791,6.6791,6.6791,6.6791,6.6791,6.6791,6.6791,6.6791,6.6791,6.6791,6.6791,6.6791,6.6791,6.6791,6.6791,6.6791,6.6791,6.6791,6.6791,6.6791,6.6791,6.6791,6.6791,6.6791,6.6791,6.6791,6.6791,6.6791,6.6791,6.6791,6.6791,6.6791,6.6791,6.6791,6.6791,6.6791,6.6791,6.6791,6.6791,6.6791]}]]